[[{"header":{"parameterUnit":"m.s-1","parameterCategory":1,"la1":30.6,"la2":28.766,"lo1":-90.7593,"lo2":-88.6598,"dy":0.0162,"dx":0.0183,"nx":116,"ny":114,"refTime":"2024-02-09T06:00:00:Z","depth":0,"parameterNumber":2,"parameterNumberName":"U-component_of_WINDS"},"data":[0.0,0.0,0.0,0.0,0.0,0.0,0.0,0.0,0.0,0.0,0.0,0.0,0.0,0.0,0.0,0.0,0.0,0.0,0.0,0.0,0.0,0.0,0.0,0.0,0.0,0.0,0.0,0.0,0.0,0.0,0.0,0.0,0.0,0.0,0.0,0.0,0.0,0.0,0.0,0.0,0.0,0.0,0.0,0.0,0.0,0.0,0.0,0.0,0.0,0.0,0.0,0.0,0.0,0.0,0.0,0.0,0.0,0.0,0.0,0.0,0.0,0.0,0.0,0.0,0.0,0.0,0.0,0.0,0.0,0.0,0.0,0.0,0.0,0.0,0.0,0.0,0.0,0.0,0.0,0.0,0.0,0.0,0.0,0.0,0.0,0.0,0.0,0.0,0.0,0.0,0.0,0.0,0.0,0.0,0.0,0.0,0.0,0.0,0.0,0.0,0.0,0.0,0.0,0.0,0.0,0.0,0.0,0.0,0.0,0.0,0.0,0.0,0.0,0.0,0.0,0.0,0.0,0.0,0.0,0.0,0.0,0.0,0.0,0.0,0.0,0.0,0.0,0.0,0.0,0.0,0.0,0.0,0.0,0.0,0.0,0.0,0.0,0.0,0.0,0.0,0.0,0.0,0.0,0.0,0.0,0.0,0.0,0.0,0.0,0.0,0.0,0.0,0.0,0.0,0.0,0.0,0.0,0.0,0.0,0.0,0.0,0.0,0.0,0.0,0.0,0.0,0.0,0.0,0.0,0.0,0.0,0.0,0.0,0.0,0.0,0.0,0.0,0.0,0.0,0.0,0.0,0.0,0.0,0.0,0.0,0.0,0.0,0.0,0.0,0.0,0.0,0.0,0.0,0.0,0.0,0.0,0.0,0.0,0.0,0.0,0.0,0.0,0.0,0.0,0.0,0.0,0.0,0.0,0.0,0.0,0.0,0.0,0.0,0.0,0.0,0.0,0.0,0.0,0.0,0.0,0.0,0.0,0.0,0.0,0.0,0.0,0.0,0.0,0.0,0.0,0.0,0.0,0.0,0.0,0.0,0.0,0.0,0.0,0.0,0.0,0.0,0.0,0.0,0.0,0.0,0.0,0.0,0.0,0.0,0.0,0.0,0.0,0.0,0.0,0.0,0.0,0.0,0.0,0.0,0.0,0.0,0.0,0.0,0.0,0.0,0.0,0.0,0.0,0.0,0.0,0.0,0.0,0.0,0.0,0.0,0.0,0.0,0.0,0.0,0.0,0.0,0.0,0.0,0.0,0.0,0.0,0.0,0.0,0.0,0.0,0.0,0.0,0.0,0.0,0.0,0.0,0.0,0.0,0.0,0.0,0.0,0.0,0.0,0.0,0.0,0.0,0.0,0.0,0.0,0.0,0.0,0.0,0.0,0.0,0.0,0.0,0.0,0.0,0.0,0.0,0.0,0.0,0.0,0.0,0.0,0.0,0.0,0.0,0.0,0.0,0.0,0.0,0.0,0.0,0.0,0.0,0.0,0.0,0.0,0.0,0.0,0.0,0.0,0.0,0.0,0.0,0.0,0.0,0.0,0.0,0.0,0.0,0.0,0.0,0.0,0.0,0.0,0.0,0.0,0.0,0.0,0.0,0.0,0.0,0.0,0.0,0.0,0.0,0.0,0.0,0.0,0.0,0.0,0.0,0.0,0.0,0.0,0.0,0.0,0.0,0.0,0.0,0.0,0.0,0.0,0.0,0.0,0.0,0.0,0.0,0.0,0.0,0.0,0.0,0.0,0.0,0.0,0.0,0.0,0.0,0.0,0.0,0.0,0.0,0.0,0.0,0.0,0.0,0.0,0.0,0.0,0.0,0.0,0.0,0.0,0.0,0.0,0.0,0.0,0.0,0.0,0.0,0.0,0.0,0.0,0.0,0.0,0.0,0.0,0.0,0.0,0.0,0.0,0.0,0.0,0.0,0.0,0.0,0.0,0.0,0.0,0.0,0.0,0.0,0.0,0.0,0.0,0.0,0.0,0.0,0.0,0.0,0.0,0.0,0.0,0.0,0.0,0.0,0.0,0.0,0.0,0.0,0.0,0.0,0.0,0.0,0.0,0.0,0.0,0.0,0.0,0.0,0.0,0.0,0.0,0.0,0.0,0.0,0.0,0.0,0.0,0.0,0.0,0.0,0.0,0.0,0.0,0.0,0.0,0.0,0.0,0.0,0.0,0.0,0.0,0.0,0.0,0.0,0.0,0.0,0.0,0.0,0.0,0.0,0.0,0.0,0.0,0.0,0.0,0.0,0.0,0.0,0.0,0.0,0.0,0.0,0.0,0.0,0.0,0.0,0.0,0.0,0.0,0.0,0.0,0.0,0.0,0.0,0.0,0.0,0.0,0.0,0.0,0.0,0.0,0.0,0.0,0.0,0.0,0.0,0.0,0.0,0.0,0.0,0.0,0.0,0.0,0.0,0.0,0.0,0.0,0.0,0.0,0.0,0.0,0.0,0.0,0.0,0.0,0.0,0.0,0.0,0.0,0.0,0.0,0.0,0.0,0.0,0.0,0.0,0.0,0.0,0.0,0.0,0.0,0.0,0.0,0.0,0.0,0.0,0.0,0.0,0.0,0.0,0.0,0.0,0.0,0.0,0.0,0.0,0.0,0.0,0.0,0.0,0.0,0.0,0.0,0.0,0.0,0.0,0.0,0.0,0.0,0.0,0.0,0.0,0.0,0.0,0.0,0.0,0.0,0.0,0.0,0.0,0.0,0.0,0.0,0.0,0.0,0.0,0.0,0.0,0.0,0.0,0.0,0.0,0.0,0.0,0.0,0.0,0.0,0.0,0.0,0.0,0.0,0.0,0.0,0.0,0.0,0.0,0.0,0.0,0.0,0.0,0.0,0.0,0.0,0.0,0.0,0.0,0.0,0.0,0.0,0.0,0.0,0.0,0.0,0.0,0.0,0.0,0.0,0.0,0.0,0.0,0.0,0.0,0.0,0.0,0.0,0.0,0.0,0.0,0.0,0.0,0.0,0.0,0.0,0.0,0.0,0.0,0.0,0.0,0.0,0.0,0.0,0.0,0.0,0.0,0.0,0.0,0.0,0.0,0.0,0.0,0.0,0.0,0.0,0.0,0.0,0.0,0.0,0.0,0.0,0.0,0.0,0.0,0.0,0.0,0.0,0.0,0.0,0.0,0.0,0.0,0.0,0.0,0.0,0.0,0.0,0.0,0.0,0.0,0.0,0.0,0.0,0.0,0.0,0.0,0.0,0.0,0.0,0.0,0.0,0.0,0.0,0.0,0.0,0.0,0.0,0.0,0.0,0.0,0.0,0.0,0.0,0.0,0.0,0.0,0.0,0.0,0.0,0.0,0.0,0.0,0.0,0.0,0.0,0.0,0.0,0.0,0.0,0.0,0.0,0.0,0.0,0.0,0.0,0.0,0.0,0.0,0.0,0.0,0.0,0.0,0.0,0.0,0.0,0.0,0.0,0.0,0.0,0.0,0.0,0.0,0.0,0.0,0.0,0.0,0.0,0.0,0.0,0.0,0.0,0.0,0.0,0.0,0.0,0.0,0.0,0.0,0.0,0.0,0.0,0.0,0.0,0.0,0.0,0.0,0.0,0.0,0.0,0.0,0.0,0.0,0.0,0.0,0.0,0.0,0.0,0.0,0.0,0.0,0.0,0.0,0.0,0.0,0.0,0.0,0.0,0.0,0.0,0.0,0.0,0.0,0.0,0.0,0.0,0.0,0.0,0.0,0.0,0.0,0.0,0.0,0.0,0.0,0.0,0.0,0.0,0.0,0.0,0.0,0.0,0.0,0.0,0.0,0.0,0.0,0.0,0.0,0.0,0.0,0.0,0.0,0.0,0.0,0.0,0.0,0.0,0.0,0.0,0.0,0.0,0.0,0.0,0.0,0.0,0.0,0.0,0.0,0.0,0.0,0.0,0.0,0.0,0.0,0.0,0.0,0.0,0.0,0.0,0.0,0.0,0.0,0.0,0.0,0.0,0.0,0.0,0.0,0.0,0.0,0.0,0.0,0.0,0.0,0.0,0.0,0.0,0.0,0.0,0.0,0.0,0.0,0.0,0.0,0.0,0.0,0.0,0.0,0.0,0.0,0.0,0.0,0.0,0.0,0.0,0.0,0.0,0.0,0.0,0.0,0.0,0.0,0.0,0.0,0.0,0.0,0.0,0.0,0.0,0.0,0.0,0.0,0.0,0.0,0.0,0.0,0.0,0.0,0.0,0.0,0.0,0.0,0.0,0.0,0.0,0.0,0.0,0.0,0.0,0.0,0.0,0.0,0.0,0.0,0.0,0.0,0.0,0.0,0.0,0.0,0.0,0.0,0.0,0.0,0.0,0.0,0.0,0.0,0.0,0.0,0.0,0.0,0.0,0.0,0.0,0.0,0.0,0.0,0.0,0.0,0.0,0.0,0.0,0.0,0.0,0.0,0.0,0.0,0.0,0.0,0.0,0.0,0.0,0.0,0.0,0.0,0.0,0.0,0.0,0.0,0.0,0.0,0.0,0.0,0.0,0.0,0.0,0.0,0.0,0.0,0.0,0.0,0.0,0.0,0.0,0.0,0.0,0.0,0.0,0.0,0.0,0.0,0.0,0.0,0.0,0.0,0.0,0.0,0.0,0.0,0.0,0.0,0.0,0.0,0.0,0.0,0.0,0.0,0.0,0.0,0.0,0.0,0.0,0.0,0.0,0.0,0.0,0.0,0.0,0.0,0.0,0.0,0.0,0.0,0.0,0.0,0.0,0.0,0.0,0.0,0.0,0.0,0.0,0.0,0.0,0.0,0.0,0.0,0.0,0.0,0.0,0.0,0.0,0.0,0.0,0.0,0.0,0.0,0.0,0.0,0.0,0.0,0.0,0.0,0.0,0.0,0.0,0.0,0.0,0.0,0.0,0.0,0.0,0.0,0.0,0.0,0.0,0.0,0.0,0.0,0.0,0.0,0.0,0.0,0.0,0.0,0.0,0.0,0.0,0.0,0.0,0.0,0.0,0.0,0.0,0.0,0.0,0.0,0.0,0.0,0.0,0.0,0.0,0.0,0.0,0.0,0.0,0.0,0.0,0.0,0.0,0.0,0.0,0.0,0.0,0.0,0.0,0.0,0.0,0.0,0.0,0.0,0.0,0.0,0.0,0.0,0.0,0.0,0.0,0.0,0.0,0.0,0.0,0.0,0.0,0.0,0.0,0.0,0.0,0.0,0.0,0.0,0.0,0.0,0.0,0.0,0.0,0.0,0.0,0.0,0.0,0.0,0.0,0.0,0.0,0.0,0.0,0.0,0.0,0.0,0.0,0.0,0.0,0.0,0.0,0.0,0.0,0.0,0.0,0.0,0.0,0.0,0.0,0.0,0.0,0.0,0.0,0.0,0.0,0.0,0.0,0.0,0.0,0.0,0.0,0.0,0.0,0.0,0.0,0.0,0.0,0.0,0.0,0.0,0.0,0.0,0.0,0.0,0.0,0.0,0.0,0.0,0.0,0.0,0.0,0.0,0.0,0.0,0.0,0.0,0.0,0.0,0.0,0.0,0.0,0.0,0.0,0.0,0.0,0.0,0.0,0.0,0.0,0.0,0.0,0.0,0.0,0.0,0.0,0.0,0.0,0.0,0.0,0.0,0.0,0.0,0.0,0.0,0.0,0.0,0.0,0.0,0.0,0.0,0.0,0.0,0.0,0.0,0.0,0.0,0.0,0.0,0.0,0.0,0.0,0.0,0.0,0.0,0.0,0.0,0.0,0.0,0.0,0.0,0.0,0.0,0.0,0.0,0.0,0.0,0.0,0.0,0.0,0.0,0.0,0.0,0.0,0.0,0.0,0.0,0.0,0.0,0.0,0.0,0.0,0.0,0.0,0.0,0.0,0.0,0.0,0.0,0.0,0.0,0.0,0.0,0.0,0.0,0.0,0.0,0.0,0.0,0.0,0.0,0.0,0.0,0.0,0.0,0.0,0.0,0.0,0.0,0.0,0.0,0.0,0.0,0.0,0.0,0.0,0.0,0.0,0.0,0.0,0.0,0.0,0.0,0.0,0.0,0.0,0.0,0.0,0.0,0.0,0.0,0.0,0.0,0.0,0.0,0.0,0.0,0.0,0.0,0.0,0.0,0.0,0.0,0.0,0.0,-3.2847,-3.2227,0.0,0.0,0.0,0.0,0.0,0.0,0.0,0.0,0.0,0.0,0.0,0.0,0.0,0.0,0.0,0.0,0.0,0.0,0.0,0.0,0.0,0.0,0.0,0.0,0.0,0.0,-0.2713,-0.2635,-0.272,-0.3289,0.0,0.0,0.0,0.0,-0.5614,-0.5944,-0.6694,-0.7943,-0.8545,-0.9664,-1.1253,-1.1367,-1.0955,-1.0116,0.0,0.0,0.0,0.0,0.0,0.0,0.0,0.0,0.0,0.0,0.0,0.0,0.0,0.0,0.0,0.0,0.0,0.0,0.0,0.0,0.0,0.0,0.0,0.0,0.0,0.0,0.0,0.0,0.0,0.0,0.0,0.0,0.0,0.0,0.0,0.0,0.0,0.0,0.0,0.0,0.0,0.0,0.0,0.0,0.0,0.0,0.0,0.0,0.0,0.0,0.0,0.0,0.0,0.0,0.0,0.0,0.0,0.0,0.0,0.0,0.0,0.0,0.0,0.0,0.0,0.0,0.0,0.0,0.0,0.0,-3.5653,-3.4654,0.0,0.0,0.0,0.0,0.0,0.0,0.0,0.0,0.0,0.0,0.0,0.0,0.0,0.0,0.0,0.0,0.0,0.0,0.0,0.0,0.0,0.0,0.0,-0.2098,-0.1698,-0.1752,-0.1613,-0.1564,-0.169,-0.235,-0.2969,-0.3507,-0.4186,-0.4742,-0.5156,-0.5795,-0.6759,-0.8043,-0.9377,-1.1137,-1.3322,-1.4706,-1.4767,-1.3659,-1.2883,0.0,0.0,0.0,0.0,0.0,0.0,0.0,0.0,0.0,0.0,0.0,0.0,0.0,0.0,0.0,0.0,0.0,0.0,0.0,0.0,0.0,0.0,0.0,0.0,0.0,0.0,0.0,0.0,0.0,0.0,0.0,0.0,0.0,0.0,0.0,0.0,0.0,0.0,0.0,0.0,0.0,0.0,0.0,0.0,0.0,0.0,0.0,0.0,0.0,0.0,0.0,0.0,0.0,0.0,0.0,0.0,0.0,0.0,0.0,0.0,0.0,0.0,0.0,-4.324,-4.2906,-4.2983,-4.1153,-4.0629,-4.0992,-3.9213,-3.8152,-3.765,-3.6728,0.0,0.0,0.0,0.0,0.0,0.0,0.0,0.0,0.0,0.0,0.0,0.0,0.0,0.0,0.0,0.0,0.0,0.0,0.0,0.0,0.0,-0.1364,-0.0966,-0.0416,-0.0858,-0.1078,-0.0876,-0.1655,-0.2333,-0.2808,-0.3538,-0.4136,-0.4596,-0.564,-0.6732,-0.7829,-1.178,-1.4337,-1.5601,-1.7756,-1.8809,-1.8802,-1.6196,-1.5464,-1.6139,0.0,0.0,0.0,0.0,0.0,0.0,0.0,0.0,0.0,0.0,0.0,0.0,0.0,0.0,0.0,0.0,0.0,0.0,0.0,0.0,0.0,0.0,0.0,0.0,0.0,0.0,0.0,0.0,0.0,0.0,0.0,0.0,0.0,0.0,0.0,0.0,0.0,0.0,0.0,0.0,0.0,-2.223,-2.4138,0.0,0.0,0.0,0.0,0.0,0.0,0.0,0.0,0.0,0.0,0.0,0.0,0.0,-4.3459,-4.4135,-4.5087,-4.5513,-4.5449,-4.5714,-4.5194,-4.4107,-4.3771,-4.3175,-4.2348,-4.2525,0.0,-3.9708,-3.8314,0.0,0.0,0.0,0.0,0.0,0.0,0.0,0.0,0.0,0.0,0.0,0.0,0.0,0.0,0.0,0.0,0.0,0.0,0.0,0.0,0.0,-0.0687,-0.0361,-0.0068,-0.0445,-0.0652,-0.0542,-0.1207,-0.183,-0.2341,-0.2859,-0.357,-0.4536,-0.5332,-0.701,-0.9601,-1.2856,-1.5175,-1.6592,-1.8515,-1.9891,-2.0687,-1.975,-1.9144,-1.8759,-1.7718,0.0,0.0,0.0,0.0,0.0,0.0,0.0,0.0,0.0,0.0,0.0,0.0,0.0,0.0,0.0,0.0,0.0,0.0,0.0,0.0,0.0,0.0,0.0,0.0,0.0,0.0,0.0,0.0,0.0,0.0,0.0,0.0,0.0,0.0,0.0,0.0,0.0,0.0,0.0,-2.2202,-2.3488,-2.665,-2.8441,-3.0955,0.0,0.0,0.0,0.0,0.0,0.0,0.0,0.0,0.0,-4.5837,-4.6483,-4.7117,-4.7798,-4.8399,-4.8488,-4.8048,-4.8088,-4.7499,-4.6431,-4.5747,-4.5384,-4.5234,-4.4629,-4.4168,-4.3712,-4.1608,-4.0993,-4.1385,0.0,0.0,0.0,0.0,-4.3269,-4.3259,0.0,0.0,0.0,0.0,0.0,0.0,0.0,0.0,0.0,0.0,0.0,0.0,-0.0547,-0.0288,-0.0104,-0.0032,-0.0315,-0.0556,-0.0696,-0.1052,-0.1564,-0.2278,-0.2541,-0.3242,-0.4446,-0.5576,-0.7782,-1.1139,-1.3433,-1.535,-1.6911,-1.8796,-2.0258,-2.1371,-2.2425,-2.2352,-2.1369,-2.0141,-1.9284,-1.8734,0.0,0.0,0.0,0.0,0.0,0.0,0.0,0.0,0.0,0.0,0.0,0.0,0.0,0.0,0.0,0.0,0.0,0.0,0.0,0.0,0.0,0.0,0.0,0.0,0.0,0.0,0.0,0.0,0.0,0.0,0.0,0.0,0.0,0.0,0.0,0.0,0.0,-2.4258,-2.5807,-2.955,-3.122,-3.3651,0.0,0.0,0.0,0.0,0.0,0.0,-4.5383,-4.6287,-4.7518,-4.9175,-4.9647,-5.0196,-5.0838,-5.1099,-5.0998,-5.0565,-5.0204,-4.9557,-4.8607,-4.7791,-4.7513,-4.7688,-4.6731,-4.6851,-4.7505,-4.4733,-4.3834,-4.4153,-4.3919,-4.4228,-4.4892,-4.5504,-4.549,-4.5282,0.0,0.0,0.0,0.0,0.0,0.0,0.0,0.0,0.0,0.0,0.0,-0.0677,-0.0096,-0.0297,-0.0368,-0.0122,-0.052,-0.0991,-0.1505,-0.1269,-0.1634,-0.2799,-0.2873,-0.3266,-0.4106,-0.6832,-0.9306,-1.1467,-1.3716,-1.5373,-1.6592,-1.9156,-2.0625,-2.1203,-2.346,-2.4416,-2.4179,-2.2653,-2.2277,-2.2473,-2.0657,0.0,0.0,0.0,0.0,0.0,0.0,0.0,0.0,0.0,0.0,0.0,0.0,0.0,0.0,0.0,0.0,0.0,0.0,0.0,0.0,0.0,0.0,0.0,0.0,0.0,0.0,0.0,0.0,0.0,0.0,0.0,0.0,0.0,0.0,0.0,0.0,0.0,0.0,-3.2647,-3.5096,0.0,0.0,0.0,0.0,-4.465,-4.5991,-4.7007,-4.7532,-4.9164,-5.0204,-5.0589,-5.1199,-5.175,-5.2279,-5.2308,-5.2308,-5.2279,-5.2,-5.1279,-5.0177,-5.0212,-4.9742,-4.8925,-4.9539,-4.9921,-5.0011,-4.7073,-4.6273,-4.6975,-4.7024,-4.7634,-4.8387,-4.8032,-4.8122,-4.8116,0.0,0.0,0.0,0.0,0.0,0.0,0.0,0.0,-0.0678,-0.0472,-0.0482,-0.0515,-0.0512,-0.077,-0.1061,-0.1355,-0.1817,-0.2267,-0.2665,-0.2375,-0.2527,-0.3264,-0.2956,-0.3504,-0.51,-0.7406,-0.9482,-1.1292,-1.3293,-1.4915,-1.6179,-1.8549,-2.012,-2.1125,-2.316,-2.4282,-2.4612,-2.4451,-2.4052,-2.3416,-2.2804,-2.1683,0.0,0.0,0.0,0.0,0.0,0.0,0.0,0.0,0.0,0.0,0.0,0.0,0.0,0.0,0.0,0.0,0.0,0.0,0.0,0.0,0.0,0.0,0.0,0.0,0.0,0.0,0.0,0.0,0.0,0.0,0.0,0.0,0.0,0.0,0.0,0.0,0.0,-3.7489,-3.9571,0.0,-4.4128,-4.5741,-4.6797,-4.7185,-4.8155,-4.9117,-4.9944,-5.094,-5.1924,-5.2712,-5.2997,-5.34,-5.3909,-5.3727,-5.352,-5.3307,-5.3207,-5.2889,-5.2331,-5.2333,-5.1947,-5.1334,-5.1719,-5.1989,-5.2063,-5.1592,-5.0637,-4.9592,-5.0195,-5.0395,-5.0321,-5.0195,-4.9915,-4.9449,0.0,0.0,0.0,0.0,0.0,0.0,0.0,0.0,-0.0473,-0.0588,-0.0681,-0.0912,-0.1359,-0.189,-0.2434,-0.3004,-0.3329,-0.3699,-0.4154,-0.3531,-0.3379,-0.3919,-0.3583,-0.4209,-0.5991,-0.7734,-0.9476,-1.1172,-1.2797,-1.4271,-1.5633,-1.7632,-1.9199,-2.0524,-2.24,-2.3644,-2.4338,-2.5127,-2.504,-2.4378,-2.4416,-2.3487,-2.2108,0.0,0.0,0.0,0.0,0.0,0.0,0.0,0.0,0.0,0.0,0.0,0.0,0.0,0.0,0.0,0.0,0.0,0.0,0.0,0.0,0.0,0.0,0.0,0.0,0.0,0.0,0.0,0.0,0.0,0.0,0.0,0.0,0.0,0.0,-3.6758,-3.8685,-4.2124,-4.3792,-4.5505,-4.7679,-4.8922,-4.9717,-4.9905,-5.0836,-5.1675,-5.2399,-5.3017,-5.3698,-5.4472,-5.4503,-5.459,-5.4955,-5.4896,-5.4827,-5.4749,-5.485,-5.4719,-5.4467,-5.4624,-5.4288,-5.37,-5.3987,-5.4126,-5.4185,-5.4782,-5.4117,-5.2683,-5.3198,-5.2972,-5.2433,-5.2071,-5.1495,-5.0722,0.0,0.0,0.0,0.0,0.0,0.0,0.0,-0.0251,-0.0518,-0.1132,-0.1458,-0.1889,-0.2576,-0.361,-0.4443,-0.4897,-0.4947,-0.5232,-0.5902,-0.4629,-0.4135,-0.4793,-0.4759,-0.5355,-0.6689,-0.7901,-0.9367,-1.1092,-1.2257,-1.3558,-1.502,-1.6508,-1.795,-1.9353,-2.1293,-2.2615,-2.3467,-2.4639,-2.5253,-2.5423,-2.5424,-2.4946,-2.429,0.0,0.0,0.0,0.0,0.0,0.0,0.0,0.0,0.0,0.0,0.0,0.0,0.0,0.0,0.0,0.0,0.0,0.0,0.0,0.0,0.0,0.0,0.0,0.0,0.0,0.0,0.0,0.0,0.0,0.0,0.0,0.0,0.0,-4.1072,-4.1992,-4.3483,-4.6333,-4.7707,-4.8967,-5.0376,-5.1697,-5.2545,-5.2735,-5.4052,-5.4905,-5.4905,-5.5448,-5.5723,-5.5723,-5.569,-5.5511,-5.5259,-5.5791,-5.6274,-5.6657,-5.691,-5.691,-5.6707,-5.7002,-5.6713,-5.5946,-5.6255,-5.6415,-5.6391,-5.6362,-5.6362,-5.6303,-5.5886,-5.5411,-5.4749,-5.3625,-5.2832,-5.2034,0.0,0.0,0.0,0.0,0.0,0.0,-0.0076,-0.0153,-0.0547,-0.1445,-0.196,-0.2666,-0.3784,-0.4774,-0.554,-0.6014,-0.6115,-0.6406,-0.7017,-0.5876,-0.516,-0.5097,-0.5361,-0.5977,-0.7046,-0.8491,-0.9685,-1.0639,-1.2382,-1.3555,-1.4264,-1.6438,-1.7768,-1.836,-2.0313,-2.1339,-2.1627,-2.2734,-2.3302,-2.3576,-2.4943,-2.5098,-2.4513,0.0,0.0,0.0,0.0,0.0,0.0,0.0,0.0,0.0,0.0,0.0,0.0,0.0,0.0,0.0,0.0,0.0,0.0,0.0,0.0,0.0,0.0,0.0,0.0,0.0,0.0,0.0,0.0,0.0,0.0,0.0,-3.9361,-4.1886,-4.2903,-4.4397,-4.6567,-4.9628,-5.0879,-5.202,-5.3406,-5.4741,-5.5554,-5.5778,-5.6425,-5.6844,-5.6844,-5.6316,-5.6166,-5.6372,-5.6344,-5.6506,-5.6807,-5.7243,-5.773,-5.8185,-5.8034,-5.8258,-5.8613,-5.8744,-5.878,-5.8821,-5.8684,-5.8637,-5.8637,-5.7892,-5.7577,-5.7517,-5.6727,-5.5842,-5.4964,-5.4182,-5.2995,-5.1635,0.0,0.0,0.0,0.0,0.0,0.0,-0.0018,-0.0715,-0.1539,-0.2346,-0.3219,-0.4185,-0.5331,-0.624,-0.7028,-0.7741,-0.7427,-0.7477,-0.8139,-0.706,-0.6101,-0.5437,-0.5932,-0.6587,-0.739,-0.8534,-0.9609,-1.0618,-1.2138,-1.3199,-1.3865,-1.5981,-1.7241,-1.78,-1.9178,-2.0003,-2.0413,-2.1051,-2.1394,-2.1583,-2.2979,-2.3862,-2.4409,-2.4596,-2.4104,-2.3257,-2.2714,-2.2258,-2.181,-2.1078,0.0,0.0,0.0,0.0,0.0,0.0,0.0,0.0,0.0,0.0,0.0,0.0,0.0,0.0,0.0,0.0,0.0,0.0,0.0,0.0,0.0,0.0,0.0,0.0,-4.2067,-4.4578,-4.6532,-4.8,-4.9872,-5.2581,-5.4062,-5.5159,-5.5969,-5.7289,-5.8058,-5.8097,-5.8716,-5.8939,-5.8562,-5.8286,-5.8001,-5.7626,-5.7679,-5.7728,-5.7859,-5.8653,-5.9316,-5.9827,-6.0085,-6.0373,-6.0588,-6.0588,-6.0595,-6.0563,-6.0077,-5.9743,-5.9553,-5.8677,-5.8068,-5.7633,0.0,0.0,0.0,0.0,-5.3216,-5.2109,0.0,0.0,0.0,0.0,0.0,0.0,-0.0373,-0.1775,-0.304,-0.3616,-0.4862,-0.606,-0.6994,-0.7882,-0.8746,-0.962,-0.8811,-0.8466,-0.9036,-0.8137,-0.7112,-0.6075,-0.6637,-0.7223,-0.7745,-0.8358,-0.9277,-1.0595,-1.1575,-1.256,-1.3549,-1.5219,-1.6451,-1.7296,-1.7927,-1.8684,-1.9546,-1.9504,-1.9482,-1.9587,-2.0105,-2.1695,-2.3712,-2.3967,-2.3738,-2.3194,-2.2708,-2.2352,-2.2101,-2.1625,0.0,0.0,0.0,0.0,0.0,0.0,0.0,0.0,0.0,0.0,0.0,0.0,0.0,0.0,0.0,0.0,0.0,0.0,0.0,0.0,0.0,0.0,0.0,0.0,-4.4262,-4.7099,-5.0914,-5.2023,-5.317,-5.5237,-5.6991,-5.8159,-5.8389,-5.9426,-6.0115,-6.009,-6.0901,-6.1031,-6.025,-6.0691,0.0,0.0,0.0,-5.9178,-5.8684,-6.0129,-6.1064,-6.1515,-6.2342,-6.2571,-6.2312,-6.2219,-6.1905,-6.1408,-6.0683,-6.0061,-5.9576,-5.8633,-5.7581,-5.6563,-5.6444,-5.5882,-5.5077,-5.402,-5.3371,-5.3069,0.0,0.0,0.0,0.0,0.0,0.0,-0.2637,-0.3179,-0.3914,-0.4826,-0.6057,-0.7252,-0.8241,-0.945,-1.0231,-1.0315,-0.9881,-0.9416,-0.8962,-0.8717,-0.8459,-0.8123,-0.8097,-0.8062,-0.8037,-0.8652,-0.9101,-0.9272,-1.1002,-1.2003,-1.2376,-1.4439,-1.5638,-1.6081,-1.7136,-1.7695,-1.7866,-1.7711,-1.7679,-1.7762,-1.7689,-1.9032,-2.1109,-2.1675,-2.1889,-2.1845,-2.1515,-2.1602,-2.1739,-2.0937,-2.0874,-2.1118,-2.0828,-2.1039,0.0,0.0,0.0,0.0,0.0,0.0,0.0,0.0,0.0,0.0,0.0,0.0,0.0,0.0,0.0,0.0,0.0,0.0,0.0,-4.5929,-4.7526,-4.9648,-5.3314,-5.4395,-5.5554,-5.7569,-5.8394,-5.9511,-6.134,-6.1096,-6.1482,-6.3096,-6.2714,-6.2591,-6.2945,-6.2364,-6.1733,-6.1122,-6.0947,-6.0707,-6.0496,-6.1695,-6.2433,-6.2743,-6.2714,0.0,-6.2281,-6.1671,-6.1495,-6.1673,-6.0555,-6.0039,-5.9728,-5.7326,-5.5151,-5.3405,-5.455,-5.4371,-5.3459,-5.3221,-5.3237,-5.3334,0.0,0.0,0.0,0.0,0.0,0.0,-0.3242,-0.4114,-0.513,-0.6156,-0.7474,-0.8607,-0.9417,-0.9989,-1.0488,-1.0919,-1.0547,-0.9986,-0.9204,-0.9309,-0.9177,-0.8738,-0.8627,-0.8388,-0.7908,-0.8228,-0.8448,-0.8553,-0.9855,-1.089,-1.1628,-1.3122,-1.4209,-1.4874,-1.5801,-1.617,-1.6106,-1.6168,-1.6067,-1.5889,-1.5776,-1.6234,-1.716,-1.8731,-1.9655,-2.0152,-2.0312,-2.0587,-2.0835,-2.0818,-2.0671,-2.0571,-2.0599,-2.0717,-2.1154,0.0,0.0,0.0,0.0,0.0,0.0,0.0,0.0,0.0,0.0,0.0,0.0,0.0,0.0,-4.2239,-4.3496,0.0,-4.5356,-4.7543,-4.9082,-5.0845,-5.3314,-5.4944,-5.6566,-5.8302,-5.9202,-6.043,-6.2211,-6.2414,-6.2965,-6.42,-6.4223,-6.412,-6.3933,-6.3777,-6.3308,-6.2467,-6.228,-6.2039,-6.1815,-6.3001,-6.3637,-6.3822,-6.388,-6.3589,-6.2986,-6.2146,-6.1763,-6.1695,-6.0346,-5.9444,-5.872,-5.5577,-5.3446,-5.2191,-5.2908,-5.3026,-5.2789,-5.2854,-5.3069,-5.3346,0.0,0.0,0.0,0.0,0.0,0.0,0.0,-0.4782,-0.6072,-0.7134,-0.8622,-0.9747,-1.0132,-1.0261,-1.0527,-1.113,-1.0678,-1.0143,-0.9607,-0.9747,-0.9573,-0.8905,-0.8865,-0.8495,-0.7751,-0.7666,-0.7753,-0.7996,-0.8657,-0.957,-1.0689,-1.1696,-1.2648,-1.3582,-1.4384,-1.4727,-1.4685,-1.4923,-1.4776,-1.4352,-1.416,-1.3831,-1.3627,-1.5608,-1.7113,-1.8241,-1.9127,-1.9637,-2.0027,-2.0933,-2.0723,-2.0185,-2.0468,-2.0665,-2.1153,-2.3232,-2.4587,0.0,0.0,0.0,0.0,0.0,0.0,0.0,0.0,-3.6546,-3.8772,-4.1677,-4.3838,-4.5521,-4.6534,-4.705,-4.7581,-4.8479,-4.9907,-5.1353,-5.2805,-5.4622,-5.6472,-5.8249,-5.9536,-6.0971,-6.2513,-6.3372,-6.4165,-6.5037,-6.5385,-6.5396,-6.4821,-6.5146,-6.4841,-6.3817,-6.3443,-6.3107,-6.2797,-6.372,-6.4208,-6.424,-6.4517,-6.4225,-6.3402,-6.2457,-6.1825,-6.1348,-5.9532,-5.8014,-5.6577,-5.3744,-5.2072,-5.1383,-5.1509,-5.1816,-5.2231,-5.2551,-5.2922,-5.324,0.0,0.0,0.0,0.0,0.0,0.0,0.0,0.0,-0.6033,-0.7001,-0.9021,-1.0232,-0.9794,-1.0896,-1.1324,-1.0416,-0.9843,-0.9699,-1.0093,-0.9868,-0.966,-0.95,-0.9157,-0.8603,-0.7796,-0.7568,-0.735,-0.7216,-0.7909,-0.8393,-0.875,-1.0292,-1.1301,-1.1941,-1.3244,-1.3954,-1.4168,-1.4104,-1.3973,-1.3804,-1.2717,-1.2361,-1.2474,-1.2644,-1.4079,-1.6283,-1.8008,-1.9144,-1.9962,-2.0954,-2.1297,-2.1374,-2.1554,-2.2084,-2.2885,-2.4326,-2.5652,-2.6912,-2.8334,-2.9532,-3.0563,-3.1472,-3.2523,-3.4472,0.0,-4.0105,-4.1213,-4.467,-4.6089,-4.7002,-4.8085,-4.8301,-4.8766,-5.0033,-5.0512,-5.1432,-5.3509,-5.3948,-5.5122,-5.7893,-5.93,-6.0976,-6.3426,-6.3576,-6.4583,-6.706,-6.6207,-6.6048,-6.7133,-6.651,-6.5859,-6.5376,-6.4444,-6.3783,-6.3388,-6.3331,-6.326,-6.326,-6.3067,-6.2809,-6.2426,-6.1433,-6.063,-5.9901,-5.7434,-5.4877,-5.2453,-5.1875,-5.0984,-4.998,-5.0445,-5.0685,-5.0876,-5.1926,-5.2667,-5.2976,0.0,0.0,0.0,0.0,0.0,0.0,0.0,0.0,0.0,-0.7496,-0.8961,-0.9967,-1.0078,-1.0526,-1.0293,-0.9075,-0.9272,-0.9293,-0.8948,-0.9012,-0.8958,-0.8675,-0.824,-0.7776,-0.729,-0.7138,-0.706,-0.7096,-0.7311,-0.7777,-0.8531,-0.9122,-0.9907,-1.0834,-1.2359,-1.3049,-1.3121,-1.3453,-1.3575,-1.3502,-1.2575,-1.2288,-1.2415,-1.3079,-1.4534,-1.6367,-1.7373,-1.8775,0.0,-2.139,-2.1966,-2.2244,-2.2394,-2.268,-2.3301,-2.5081,-2.6611,-2.8299,-3.0886,-3.1975,-3.2739,-3.3968,-3.5648,-3.7754,-4.0863,-4.2174,-4.3556,-4.6353,-4.7541,-4.8162,-4.855,-4.887,-4.928,-4.9872,-5.0579,-5.1589,-5.3213,-5.3977,-5.5205,-5.7591,-5.8998,-6.0613,-6.2784,-6.3136,-6.4283,-6.6839,-6.6711,-6.6837,-6.7565,-6.7237,-6.6658,-6.5943,-6.4893,-6.4169,-6.3885,-6.3355,-6.3115,-6.3115,-6.2674,-6.2416,-6.2281,-6.1101,-5.9582,-5.7811,-5.5971,-5.4025,-5.1965,-5.1224,-5.0659,-5.0346,-5.0471,-5.0567,-5.0775,-5.1787,-5.2062,-5.1946,0.0,0.0,0.0,0.0,0.0,0.0,0.0,0.0,0.0,0.0,-0.9077,-0.987,-1.016,-0.9676,-0.8988,-0.8146,-0.8585,-0.8617,-0.7982,-0.8064,-0.7993,-0.7697,-0.7376,-0.7122,-0.699,-0.6981,-0.7171,-0.7551,-0.7254,-0.7669,-0.8726,-0.8637,-0.9218,-1.0406,-1.1824,-1.2572,-1.2784,-1.3424,-1.368,-1.3671,-1.3158,-1.3078,-1.3324,-1.4292,-1.5708,-1.7256,-1.7664,-1.9263,-2.13,-2.2346,-2.3156,-2.3664,-2.3453,-2.3674,-2.4368,-2.6246,-2.8114,-3.0181,-3.2832,-3.3873,-3.4626,-3.6265,-3.8307,-4.0357,-4.2268,-4.3677,-4.5167,-4.7209,-4.8225,-4.8809,-4.8831,-4.9256,-4.9645,-4.985,-5.0759,-5.1866,-5.3023,-5.4136,-5.5556,-5.7356,-5.855,-6.0028,-6.2094,-6.3142,-6.4558,-6.6638,-6.713,-6.7477,-6.7881,-6.7692,-6.7174,-6.6331,-6.5051,-6.4346,-6.4192,-6.319,-6.27,-6.27,-6.2239,-6.1981,-6.1815,-6.0484,-5.8562,-5.6214,-5.4907,-5.3387,-5.184,-5.0965,-5.0751,-5.109,-5.0976,-5.1119,-5.1374,-5.2013,-5.1835,-5.125,0.0,0.0,0.0,0.0,0.0,0.0,0.0,0.0,0.0,0.0,0.0,0.0,0.0,-0.845,-0.7758,-0.7976,-0.7623,-0.7482,-0.7775,-0.7277,-0.6946,-0.6918,-0.6923,-0.7008,-0.7192,-0.7383,-0.7899,-0.8753,-0.8037,-0.8144,-0.8997,-0.9042,-0.9667,-1.0731,-1.1886,-1.2839,-1.3591,-1.4133,-1.4425,-1.4447,-1.4388,-1.4729,-1.5343,-1.5662,-1.6991,-1.8784,-1.9181,-2.0921,-2.3142,-2.396,-2.5101,-2.6005,-2.4957,-2.555,-2.686,-2.8128,-3.0491,-3.2796,-3.3416,-3.4448,-3.5844,-3.7926,-3.9604,-4.1342,-4.3709,-4.4769,-4.5681,-4.7106,-4.8,-4.8639,-4.9101,-4.9462,-4.9884,-5.0461,-5.1317,-5.2234,-5.3169,-5.4489,-5.5896,-5.7351,-5.7923,-5.9239,-6.1734,-6.4126,-6.5975,-6.7126,-6.7436,-6.7913,-6.8608,-6.7976,-6.7281,-6.6617,-6.4967,-6.4243,-6.448,-6.2637,-6.1613,-6.1613,-6.1339,-6.1083,-6.0794,-5.9185,-5.7355,-5.5491,-5.4194,-5.2725,-5.1212,-5.0917,-5.1179,-5.1791,-5.2061,-5.23,-5.2584,-5.2849,-5.2231,-5.1206,0.0,0.0,0.0,0.0,0.0,0.0,0.0,0.0,0.0,0.0,0.0,0.0,0.0,0.0,0.0,0.0,-0.7438,-0.7296,-0.6527,-0.6789,-0.6804,-0.6452,-0.6603,-0.7038,-0.7772,-0.8515,-0.9285,-1.0061,-0.9851,-1.0175,-1.1009,-1.0771,-1.1305,-1.2395,-1.3458,-1.4226,-1.4814,-1.5771,-1.5965,-1.5633,-1.6281,-1.6703,-1.707,-1.7637,-1.9086,-2.0863,0.0,-2.2591,-2.404,-2.5072,-2.6229,-2.7217,-2.6996,-2.7084,-2.7697,-3.0082,-3.1566,-3.2958,-3.5509,-3.6829,-3.7903,-3.9871,-4.1756,-4.3547,-4.5245,-4.5998,-4.6567,-4.7237,-4.8,-4.8442,-4.8372,-4.9419,-5.0431,-5.0934,-5.1832,-5.2829,-5.3746,-5.4619,-5.577,-5.756,-5.9111,-6.0655,-6.2139,-6.3052,-6.4685,-6.7278,-6.7823,-6.839,-6.9304,-6.8703,-6.8008,-6.7281,-6.5188,-6.414,-6.4243,-6.23,-6.1308,-6.1308,-6.1052,-6.0721,-6.0219,-5.895,-5.7324,-5.546,-5.4164,-5.2791,-5.1433,-5.1011,-5.1369,-5.233,-5.2234,-5.2502,-5.2819,-5.2488,-5.1318,-4.9909,0.0,0.0,0.0,0.0,0.0,0.0,0.0,0.0,0.0,0.0,0.0,0.0,0.0,0.0,0.0,0.0,0.0,-0.6964,-0.5996,-0.6466,-0.662,-0.6253,-0.6762,-0.7588,-0.8721,-0.9796,-1.0924,-1.2091,-1.1962,-1.2316,-1.3139,-1.2643,-1.3037,-1.4202,-1.4812,-1.545,-1.6155,-1.7069,-1.7296,-1.705,-1.7998,-1.8607,-1.8962,-1.958,-2.0926,0.0,-2.2949,-2.401,-2.538,-2.622,-2.7568,-2.8842,-2.8587,-2.9006,-2.9965,-3.1892,-3.3142,-3.4611,-3.7615,-3.8935,-4.0022,-4.2221,-4.3881,-4.5266,-4.6461,-4.6664,-4.6708,-4.7143,-4.7436,-4.7644,-4.7841,-4.8715,-4.9896,-5.1351,-5.2303,-5.3325,-5.4645,-5.5823,-5.7055,-5.8405,-6.034,-6.2054,-6.3295,-6.3974,-6.5183,-6.7417,-6.8241,-6.891,-6.9651,-6.9051,-6.8175,-6.7143,-6.5031,-6.386,-6.364,-6.197,-6.1155,-6.1052,-6.0794,-6.046,-5.9955,-5.8796,-5.7324,-5.561,-5.4213,-5.2838,-5.1572,-5.1105,-5.1588,-5.2567,-5.255,-5.2587,-5.2657,-5.1926,-5.0407,-4.8718,0.0,0.0,0.0,0.0,0.0,0.0,0.0,0.0,0.0,0.0,0.0,0.0,0.0,0.0,0.0,0.0,0.0,0.0,-0.6262,-0.6412,-0.6465,-0.6403,-0.7462,-0.867,-0.9978,-1.1259,-1.2816,-1.4664,-1.4269,-1.4493,-1.5256,-1.4501,-1.4826,-1.5994,-1.5971,-1.6593,-1.7653,-1.8158,-1.8509,-1.8696,-1.9616,-2.0407,-2.1048,-2.1354,-2.2498,-2.3906,-2.3837,-2.5159,-2.7022,-2.7342,-2.9121,-3.0941,-2.9887,-3.1355,-3.3534,-3.3671,-3.5432,-3.7786,-3.9797,-4.0922,-4.2206,-4.4939,-4.593,-4.6452,-4.7338,-4.6813,-4.629,-4.6745,-4.6402,-4.638,-4.7537,-4.7525,-4.8401,-5.1657,-5.2741,-5.3861,-5.5804,-5.7978,-5.9471,-5.9818,-6.1508,-6.339,-6.5111,-6.6511,-6.743,-6.7647,-6.8745,-6.9444,-6.9746,-6.9082,-6.7963,-6.6309,-6.4601,-6.3381,-6.2674,-6.1681,-6.1052,-6.0794,-6.0534,-6.025,-5.9955,-5.8641,-5.7304,-5.5967,-5.434,-5.2838,-5.1602,-5.1293,-5.173,-5.2614,-5.2849,-5.2611,-5.2063,-5.1212,-4.9442,-4.7558,0.0,0.0,0.0,0.0,0.0,0.0,0.0,0.0,0.0,0.0,0.0,0.0,0.0,0.0,0.0,0.0,0.0,0.0,-0.6881,-0.7458,-0.7808,-0.7798,-0.9252,-1.0567,-1.1678,-1.3796,-1.5087,-1.5405,-1.6088,-1.6376,-1.6222,-1.6222,-1.6587,-1.7285,-1.8168,-1.8717,-1.9081,-2.0511,-2.0792,-2.0399,-2.1713,-2.2385,-2.2615,-2.2553,-2.3129,-2.4067,-2.4739,-2.5603,-2.6604,-2.7977,-3.0469,-3.2946,-3.3105,-3.4468,-3.6298,-3.7883,-3.9411,-4.1118,-4.3493,-4.4943,-4.6094,-4.71,-4.7626,-4.7892,-4.8019,-4.734,-4.6614,-4.6273,-4.6465,-4.6413,-4.5648,-4.7792,-4.9865,-5.0475,-5.314,-5.5534,-5.661,-5.8648,-6.016,-6.0589,-6.2714,-6.4449,-6.5258,-6.6776,-6.7967,-6.8457,-6.944,-7.0168,-7.0504,-6.9335,-6.8184,-6.7,-6.4851,-6.3277,-6.2416,-6.1392,-6.0742,-6.0481,-6.0429,-6.025,-5.9955,-5.8796,-5.7525,-5.6134,-5.4552,-5.3122,-5.1834,-5.1199,-5.1446,-5.2252,-5.1837,-5.1299,-5.0668,-4.9686,-4.749,-4.4874,0.0,0.0,0.0,0.0,0.0,0.0,0.0,0.0,0.0,0.0,0.0,0.0,0.0,0.0,0.0,0.0,0.0,0.0,0.0,-0.8939,-0.9401,-0.9738,-1.1091,-1.2578,-1.4112,-1.5873,-1.6937,-1.7227,-1.7849,-1.7822,-1.7262,-1.7497,-1.7799,-1.8178,-1.9015,-1.9677,-2.0199,-2.1352,-2.1751,0.0,0.0,-2.3213,-2.3265,-2.3213,-2.3693,-2.445,-2.5276,-2.6898,-2.8969,-3.066,-3.2722,-3.4856,-3.6565,-3.8158,-3.9847,-4.2078,-4.3508,-4.4882,-4.7144,-4.8196,-4.8721,-4.9164,-4.8942,-4.8523,-4.816,-4.7275,-4.6369,-4.5851,-4.5891,-4.5858,-4.5486,-4.721,-4.9202,-5.0839,-5.3447,-5.5813,-5.7536,-5.9669,-6.1201,-6.1634,-6.3795,-6.5397,-6.5967,-6.7711,-6.8849,-6.9059,-6.9714,-7.0218,-7.0532,-6.9406,-6.8066,-6.6627,-6.4683,-6.2965,-6.1483,-6.0801,-6.0272,-6.0008,-6.0008,-5.9804,-5.95,-5.8592,-5.7373,-5.5804,-5.424,-5.2849,-5.1572,-5.076,-5.0662,-5.0929,-5.0385,-4.9642,-4.8671,-4.713,-4.5007,-4.2731,0.0,0.0,0.0,0.0,0.0,0.0,0.0,0.0,0.0,0.0,0.0,0.0,0.0,0.0,0.0,0.0,0.0,0.0,0.0,0.0,-1.1122,-1.18,-1.2989,-1.4567,-1.6618,-1.7607,-1.848,-1.9293,-1.9301,-1.8947,-1.83,-1.8441,-1.8678,-1.8987,-1.9484,-2.0267,-2.1225,-2.1677,-2.2176,-2.2762,-2.3282,-2.3539,-2.365,0.0,-2.4368,-2.5182,-2.5978,-2.8662,-3.2175,-3.4138,-3.5509,-3.6922,-3.9941,-4.2035,-4.3783,-4.6028,-4.757,-4.8888,-5.0555,-5.093,-5.0876,-5.1024,-5.0072,-4.8924,-4.8233,-4.6937,-4.5757,-4.535,-4.4953,-4.494,-4.576,-4.6268,-4.7849,-5.1681,-5.3585,-5.5632,-5.861,-6.083,-6.2297,-6.2714,-6.4746,-6.6329,-6.6915,-6.8643,-6.9654,-6.9418,-6.9552,-6.9751,-7.0092,-6.9233,-6.776,-6.5598,-6.4056,-6.2331,-6.0429,-6.0144,-5.9827,-5.9529,-5.9476,-5.9221,-5.8819,-5.801,-5.6818,-5.5224,-5.3523,-5.2148,-5.1003,-5.0067,-4.9508,-4.9127,-4.8679,-4.7629,-4.6134,-4.4192,-4.2397,-4.0635,0.0,0.0,0.0,0.0,0.0,0.0,0.0,0.0,0.0,0.0,-0.9519,-0.7209,0.0,0.0,0.0,0.0,0.0,0.0,0.0,0.0,0.0,-1.2982,-1.4798,-1.6343,-1.7545,-1.8966,-1.9706,-1.9684,-1.9801,-1.9631,-1.9167,-1.9137,-1.9623,-2.0491,-2.1443,-2.2191,-2.2766,-2.3381,-2.3725,-2.3837,-2.4224,-2.473,-2.5298,-2.5446,0.0,0.0,-2.8126,-2.9911,-3.2205,-3.5717,-3.804,-3.9919,-4.2235,-4.495,-4.7561,-4.8884,-5.0988,-5.2856,-5.27,-5.3386,-5.3793,-5.2335,-5.1263,-5.0138,-4.8718,-4.6841,-4.5202,-4.4606,-4.4368,-4.4112,-4.3786,-4.6124,-4.8787,-5.085,-5.364,-5.6707,-5.9913,-6.1831,-6.3126,-6.3692,-6.5701,-6.7105,-6.7198,-6.8386,-6.9188,-6.9387,-6.8918,-6.8748,-6.9032,-6.8839,-6.7288,-6.4162,-6.205,-6.0779,-6.0377,-6.0144,-5.9827,-5.9529,-5.9261,-5.8984,-5.8587,-5.7114,-5.5913,-5.4983,-5.2755,-5.1345,-5.0361,-4.9245,-4.8194,-4.7299,-4.6628,-4.5111,-4.3099,-4.2163,-4.0163,-3.7685,0.0,0.0,0.0,0.0,0.0,0.0,0.0,-1.4943,-1.4775,-1.61,-1.4221,-1.2223,-1.0774,-1.0609,0.0,0.0,0.0,0.0,0.0,0.0,0.0,0.0,-1.631,-1.7579,-1.9132,-1.9921,-2.0384,-2.0537,0.0,-2.023,-1.9611,-2.019,-2.0629,-2.1005,-2.223,-2.3042,-2.3577,-2.4382,-2.4923,-2.5299,-2.5717,-2.6367,-2.703,0.0,0.0,0.0,-2.9483,-3.1134,-3.3356,-3.5668,-3.8243,-4.0951,-4.4135,-4.6616,-4.8907,-5.1385,-5.3255,-5.4683,-5.5391,-5.5588,-5.5254,-5.3831,-5.1769,-4.973,-4.8391,-4.6213,-4.434,-4.3833,-4.3919,-4.4001,-4.3632,-4.5973,-4.8514,-5.0207,-5.2603,-5.5516,-5.9188,-6.0871,-6.2246,-6.3651,-6.5723,-6.7059,-6.7059,-6.8178,-6.8794,-6.866,-6.8493,-6.8536,-6.882,-6.741,-6.5446,-6.2808,-6.0866,-5.9849,-5.9743,-5.9452,-5.9237,-5.9099,-5.8578,-5.8178,-5.7783,-5.6175,-5.465,-5.3248,-5.1503,-5.0054,-4.8909,-4.7662,-4.6712,-4.5895,-4.4598,-4.3113,-4.1525,-3.9669,-3.7913,-3.6235,0.0,0.0,0.0,0.0,0.0,0.0,0.0,-1.7324,-1.7643,-1.9276,-1.8936,-1.7752,-1.5624,-1.4604,-1.3891,0.0,0.0,0.0,0.0,0.0,0.0,0.0,0.0,0.0,-2.0395,0.0,0.0,-2.1407,-2.1339,0.0,0.0,0.0,0.0,0.0,-2.3109,-2.3943,-2.4461,-2.5329,-2.607,0.0,0.0,-2.7975,-2.884,0.0,0.0,0.0,0.0,-3.2321,-3.435,-3.5597,-3.7757,-4.0594,-4.4423,-4.6979,-4.9311,-5.2737,-5.4569,-5.5784,-5.7323,-5.7266,-5.6391,-5.5017,-5.2275,-4.9551,-4.7998,-4.5653,-4.3689,-4.33,-4.3518,-4.3854,-4.3947,-4.572,-4.7865,-4.9837,-5.1564,-5.4129,-5.831,-5.9932,-6.14,-6.3433,-6.5435,-6.6678,-6.6888,-6.7939,-6.84,-6.7966,-6.7848,-6.794,-6.8165,-6.5561,-6.3366,-6.1757,-6.0289,-5.9315,-5.8991,-5.8803,-5.8605,-5.8402,-5.7813,-5.7096,-5.6385,-5.4967,-5.3216,-5.1313,-4.9957,-4.861,-4.7213,-4.5792,-4.4886,-4.415,-4.2437,-4.1156,-3.9998,-3.7526,-3.6036,-3.5145,0.0,0.0,0.0,0.0,0.0,0.0,0.0,-1.887,-2.0512,-2.2725,-2.1618,-2.102,-2.209,-1.9134,-1.6827,0.0,0.0,0.0,0.0,0.0,0.0,0.0,0.0,0.0,0.0,0.0,0.0,-2.2113,-2.2037,0.0,0.0,0.0,0.0,0.0,0.0,-2.5683,-2.6114,-2.6671,0.0,0.0,0.0,0.0,0.0,0.0,0.0,0.0,0.0,-3.3468,-3.4023,-3.6504,-3.7626,-3.8488,-4.1554,-4.5463,-4.9422,-5.1661,-5.4536,-5.7003,-5.7127,-5.7919,-5.8046,-5.5134,-5.3298,-5.1373,-4.8155,-4.5527,-4.3694,-4.33,-4.3064,-4.316,-4.3949,-4.5275,-4.7126,-4.9924,-5.1453,-5.3879,-5.8604,-6.0374,-6.1869,-6.3754,-6.4861,-6.5897,-6.6796,-6.7335,-6.7675,-6.7904,-6.6685,-6.5989,-6.6098,-6.3508,-6.188,-6.1439,-6.0183,-5.9261,-5.8748,-5.8719,-5.8288,-5.7424,-5.7063,-5.5982,-5.4273,-5.3208,-5.1686,-4.9815,-4.8416,-4.706,-4.5669,-4.3748,-4.2396,-4.1355,-4.0196,-3.8894,-3.7495,-3.6332,-3.5017,-3.3661,0.0,0.0,0.0,0.0,0.0,0.0,-1.8947,-1.9726,-2.1091,-2.3931,-2.3633,-2.3378,-2.3817,-2.2528,-2.0686,0.0,0.0,0.0,0.0,0.0,0.0,0.0,0.0,0.0,0.0,0.0,-2.2599,-2.3022,-2.3819,0.0,0.0,0.0,0.0,0.0,0.0,-2.7264,-2.7336,-2.8404,0.0,0.0,0.0,0.0,0.0,0.0,0.0,0.0,0.0,0.0,-3.5036,-3.5813,-3.6683,-3.7767,-3.9017,-4.1826,-4.5507,-4.962,-5.3004,-5.5673,-5.7045,-5.7433,-5.7089,-5.5409,-5.2942,-5.0191,-4.7682,-4.5241,-4.3337,-4.2692,-4.2842,-4.3152,-4.3478,-4.4738,-4.6326,-4.8284,-4.9194,-5.1056,-5.5069,-5.6388,-5.8137,-6.1263,-6.2603,-6.3944,-6.5609,-6.6083,-6.6171,-6.5836,-6.4289,-6.3123,-6.2615,-6.1834,-6.0874,-5.972,-5.8864,-5.8332,-5.8169,-5.7621,-5.6929,-5.6176,-5.4956,-5.3757,-5.2601,-5.0675,-4.9116,-4.7749,-4.6465,-4.5121,-4.3686,-4.2281,-4.1213,-4.029,-3.888,-3.7564,-3.6237,-3.5004,-3.376,-3.265,0.0,0.0,0.0,0.0,0.0,-1.7639,-1.982,-2.0762,-2.2064,-2.4444,-2.4926,-2.5073,-2.514,-2.4857,-2.3787,-2.1711,0.0,0.0,0.0,0.0,0.0,0.0,0.0,0.0,0.0,0.0,-2.3577,-2.432,-2.5557,-2.6068,0.0,0.0,-2.7698,-2.7251,0.0,0.0,0.0,0.0,0.0,0.0,0.0,0.0,0.0,0.0,0.0,0.0,0.0,0.0,0.0,0.0,0.0,-3.7344,-3.7693,-3.9484,-4.2455,-4.737,-5.074,-5.3381,-5.5864,-5.6213,-5.5783,-5.4956,-5.2437,-4.9549,-4.7478,-4.5179,-4.3303,-4.2789,-4.2894,-4.32,-4.3457,-4.436,-4.5581,-4.7082,-4.7768,-4.944,-5.3154,-5.4168,-5.5848,-5.9328,-6.0028,-6.1195,-6.3615,-6.4563,-6.48,-6.4305,-6.2733,-6.1283,-6.0028,-5.9799,-5.9123,-5.8023,-5.7494,-5.7193,-5.6974,-5.6372,-5.5623,-5.462,-5.3095,-5.1718,-5.0564,-4.8522,-4.6861,-4.5557,-4.4706,-4.3392,-4.1864,-4.0702,-3.9872,-3.9114,-3.7565,-3.6318,-3.529,-3.3975,-3.2877,-3.1885,0.0,0.0,0.0,0.0,0.0,0.0,-1.9769,-2.2189,-2.4073,-2.4618,-2.5399,-2.616,-2.6879,-2.6013,-2.5758,-2.663,0.0,0.0,0.0,0.0,0.0,0.0,0.0,0.0,0.0,0.0,-2.4442,-2.5987,-2.6978,-2.7451,-2.7411,-2.8675,-2.8832,-2.8023,0.0,0.0,0.0,0.0,0.0,0.0,0.0,0.0,0.0,0.0,0.0,0.0,0.0,0.0,0.0,0.0,0.0,0.0,0.0,-3.9413,-4.141,-4.4997,-4.7803,-5.0361,-5.3203,-5.4248,-5.441,-5.357,-5.2081,-5.0236,-4.7779,-4.5505,-4.3872,-4.3787,-4.3313,-4.3188,-4.413,-4.4293,-4.4917,-4.6795,-4.7803,-4.9896,-5.4186,-5.5121,-5.6249,-5.8523,-5.7355,-5.7618,-6.083,-6.2869,-6.4028,-6.3967,-6.2656,-6.0963,-5.9097,-5.7122,-5.6285,-5.6697,-5.6439,-5.5933,-5.5036,-5.5282,-5.4508,-5.2734,-5.1864,-5.0138,-4.7824,-4.6855,-4.5283,-4.3355,-4.3166,-4.2071,-4.0315,-3.8824,-3.7978,-3.7476,-3.5995,-3.5076,-3.4378,-3.3396,-3.2385,-3.1423,0.0,0.0,0.0,0.0,0.0,0.0,0.0,-2.1211,-2.2494,-2.3791,-2.4069,-2.4858,-2.6794,-2.5972,-2.6072,-2.8069,0.0,0.0,0.0,0.0,0.0,0.0,0.0,0.0,0.0,0.0,-2.6753,-2.7499,-2.9236,-3.0166,-3.0265,-3.1281,-3.1396,-3.0748,-3.1087,-3.1135,0.0,0.0,0.0,0.0,0.0,0.0,-3.5117,0.0,0.0,0.0,0.0,0.0,0.0,0.0,0.0,0.0,0.0,0.0,0.0,-4.1935,-4.5425,-4.896,-5.038,-5.1206,-5.1522,-5.0589,-4.942,-4.7919,-4.5848,-4.4884,-4.4172,-4.3157,-4.3007,-4.3178,-4.3591,-4.3476,-4.4091,-4.6386,-4.6791,-4.796,-5.1118,-5.2194,-5.3515,-5.5882,-5.7613,-5.9076,-6.0366,-6.1416,-6.1901,-6.1629,-6.0525,-5.917,-5.7474,-5.5551,-5.4988,-5.5991,-5.4978,-5.4599,-5.5008,-5.3844,-5.2462,-5.0812,-4.9141,-4.7371,-4.5637,-4.4149,-4.3074,-4.229,-4.1469,-4.0419,-3.9247,-3.8658,-3.7814,-3.6825,-3.5693,-3.4615,-3.3658,-3.2761,-3.1757,-3.0714,0.0,0.0,0.0,0.0,0.0,0.0,0.0,-2.0218,-2.1224,-2.2831,-2.3416,-2.4471,-2.6571,-2.6355,-2.6818,-2.8651,0.0,0.0,0.0,0.0,0.0,0.0,0.0,0.0,0.0,-2.7414,-2.8262,-2.9558,-3.1018,-3.1888,-3.2176,-3.2907,-3.2859,-3.2136,-3.2104,-3.203,0.0,0.0,0.0,0.0,0.0,0.0,-3.5155,0.0,0.0,0.0,0.0,0.0,0.0,0.0,0.0,0.0,0.0,0.0,0.0,0.0,-4.3075,-4.6122,-4.766,-4.8437,-4.866,-4.8249,-4.7384,-4.624,-4.4775,-4.4263,-4.3815,-4.2813,-4.2805,-4.3082,-4.3235,-4.3084,-4.3617,-4.5762,-4.6057,-4.7078,-4.9922,-5.0845,-5.1757,-5.3414,-5.6251,-5.8192,-5.8361,-5.9806,-6.0518,-5.9897,-5.9191,-5.7945,-5.602,-5.4321,-5.3663,-5.4156,-5.3134,-5.2867,-5.3407,-5.2099,-5.0678,-4.9098,-4.715,-4.538,-4.3683,-4.2057,-4.1154,-4.0777,-3.9857,-3.9067,0.0,-3.8048,-3.7236,-3.6171,-3.5274,-3.4266,-3.3157,-3.2502,-3.1617,-3.0701,0.0,0.0,0.0,0.0,0.0,0.0,0.0,0.0,-2.0483,-2.1912,-2.3405,-2.4884,-2.6345,-2.7084,-2.7767,-2.8554,0.0,0.0,0.0,0.0,0.0,0.0,0.0,0.0,-2.9154,-2.8297,-2.9193,-3.1873,-3.2378,-3.2889,-3.3327,-3.3781,-3.3518,-3.2606,-3.2175,-3.2158,-3.2463,0.0,0.0,0.0,-3.4372,-3.4691,0.0,0.0,0.0,0.0,0.0,0.0,0.0,0.0,0.0,0.0,0.0,0.0,0.0,0.0,0.0,0.0,0.0,-4.5765,-4.5829,-4.6138,-4.564,-4.4893,-4.4223,-4.3613,0.0,-4.2653,-4.2776,-4.2965,-4.3056,-4.3028,-4.3487,-4.5082,-4.5672,-4.6992,-5.0084,-5.0647,-5.0956,-5.1569,-5.3801,-5.5307,-5.542,-5.8188,-5.9578,-5.8639,-5.8381,-5.7228,-5.4824,-5.3377,-5.226,-5.1432,-5.1049,-5.08,-5.0743,-5.0081,-4.9018,-4.7536,-4.5756,-4.3954,-4.2084,-4.0574,-3.9612,-3.9084,-3.8424,-3.8033,-3.7699,-3.714,-3.6389,-3.5561,-3.4739,-3.3832,-3.2896,-3.2488,-3.1834,-3.1252,0.0,0.0,0.0,0.0,0.0,0.0,0.0,0.0,0.0,0.0,-2.3722,-2.5293,-2.6231,-2.6814,-2.7365,0.0,0.0,0.0,0.0,0.0,0.0,0.0,0.0,0.0,-2.9116,-2.9358,-3.0487,-3.2647,-3.3632,-3.4597,-3.5546,-3.5844,-3.5512,-3.4651,-3.4111,-3.3504,-3.2929,-3.2621,0.0,0.0,-3.3408,-3.367,0.0,0.0,0.0,0.0,-3.519,-3.6147,0.0,0.0,0.0,0.0,0.0,0.0,0.0,0.0,-4.0135,-4.1151,-4.233,0.0,-4.2363,-4.1788,-4.2076,-4.2357,0.0,-4.233,-4.2643,-4.2302,-4.2848,-4.3234,-4.2811,-4.3258,-4.4042,-4.5253,-4.5279,-4.6009,-4.8468,-4.9656,-5.0938,-5.252,-5.3703,-5.4764,-5.5668,-5.71,-5.7898,-5.7601,-5.664,-5.5442,-5.414,-5.1935,-5.034,-4.9504,-4.8333,-4.8524,-5.0142,-4.8425,-4.705,-4.6083,-4.4293,-4.2609,-4.1081,-3.9897,-3.9242,-3.9057,-3.8209,-3.7641,-3.7304,-3.7016,-3.6062,-3.4699,-3.395,-3.3129,-3.2316,-3.1733,-3.1356,-3.1252,0.0,0.0,0.0,0.0,0.0,0.0,0.0,0.0,0.0,0.0,0.0,0.0,0.0,0.0,0.0,0.0,0.0,0.0,0.0,0.0,0.0,0.0,0.0,-2.8411,-2.9464,-2.9779,-3.1046,-3.3358,-3.3926,-3.4845,-3.6113,-3.591,-3.556,-3.5033,-3.4075,-3.3248,-3.2582,-3.2163,-3.2387,-3.2965,-3.2522,0.0,0.0,0.0,0.0,0.0,-3.4967,-3.5978,0.0,-3.8028,-3.862,-3.8709,0.0,0.0,0.0,0.0,-3.8682,-3.9184,-3.9688,-4.0669,-4.1367,-4.0824,-4.1129,-4.1338,-4.0751,-4.1423,-4.1969,-4.1371,-4.2299,-4.3065,-4.2564,-4.3063,-4.376,-4.4456,-4.4761,-4.5623,-4.7688,-4.8847,-4.9944,-5.1518,-5.2476,-5.361,-5.4937,-5.5785,-5.6287,-5.6376,-5.523,-5.4045,-5.2826,-5.0865,-4.9165,-4.7904,-4.6386,-4.6502,-4.8297,-4.6785,-4.5596,-4.4769,-4.3199,-4.1689,-4.0184,-3.9169,-3.8642,-3.8523,-3.7719,-3.7316,-3.716,-3.6793,-3.5723,-3.4313,-3.3619,-3.2722,-3.1862,-3.1654,-3.1519,-3.1527,0.0,0.0,0.0,0.0,0.0,0.0,0.0,0.0,0.0,0.0,0.0,0.0,0.0,0.0,0.0,0.0,0.0,0.0,0.0,0.0,0.0,0.0,0.0,-2.8397,-2.9964,-2.9879,-3.1148,-3.3836,-3.3919,-3.4633,-3.5943,-3.5456,-3.4919,-3.434,-3.315,-3.2324,-3.1817,-3.1593,-3.181,-3.2258,-3.1837,0.0,0.0,0.0,0.0,0.0,0.0,0.0,0.0,-3.7372,-3.8046,-3.8227,-3.7582,0.0,0.0,0.0,0.0,0.0,-3.7648,-3.9367,-4.101,-4.087,-4.0988,-4.0913,-4.0078,-4.0699,-4.1267,-4.0444,-4.1745,-4.2889,-4.2413,-4.2895,-4.3392,-4.3506,-4.41,-4.5126,-4.679,-4.747,-4.8252,-4.9511,-5.0691,-5.2036,-5.3611,-5.4309,-5.4806,-5.5108,-5.3975,-5.2781,-5.1592,-4.9779,-4.8113,-4.6526,-4.496,-4.4574,-4.5517,-4.4946,-4.4293,-4.3593,-4.237,-4.1004,-3.9568,-3.8648,-3.8122,-3.7867,-3.7292,-3.7069,-3.7091,-3.6419,-3.5303,-3.402,-3.3368,-3.2435,-3.1448,-3.1803,-3.1858,-3.1873,0.0,0.0,0.0,0.0,0.0,0.0,0.0,0.0,0.0,0.0,0.0,0.0,0.0,0.0,0.0,0.0,0.0,0.0,0.0,0.0,0.0,-2.7247,-2.7496,-2.847,-3.0351,-3.0005,-3.1042,-3.3543,-3.4553,-3.5392,-3.6082,-3.6541,-3.5432,-3.2979,-3.2718,-3.1992,-3.1011,-3.1326,-3.181,-3.2258,-3.1604,0.0,0.0,0.0,0.0,0.0,0.0,0.0,0.0,-3.5026,-3.5827,-3.6655,-3.6043,0.0,0.0,0.0,0.0,0.0,-3.761,-3.8056,-3.8333,-3.831,-3.9032,-3.9632,-3.9029,-3.9946,-4.0767,-4.0245,-4.1956,-4.3343,-4.2602,-4.3623,-4.4408,-4.3698,-4.3223,-4.3142,-4.373,-4.418,-4.5316,-4.7773,-4.8694,-4.9998,-5.1954,-5.2986,-5.3573,-5.3846,-5.2726,-5.1799,-5.1286,-4.8276,-4.6282,-4.5608,-4.3612,-4.2361,-4.1906,-4.2283,-4.2555,-4.2794,-4.1507,-4.0414,-3.9573,-3.8859,-3.8285,-3.7874,-3.7427,-3.7113,-3.678,-3.5713,-3.4607,-3.3407,-3.2474,-3.1677,-3.1121,-3.1596,-3.1818,-3.2169,0.0,0.0,0.0,0.0,0.0,0.0,0.0,0.0,0.0,0.0,0.0,0.0,0.0,0.0,0.0,0.0,0.0,0.0,0.0,0.0,-2.7776,-2.7504,-2.7654,-2.8528,-3.0178,-3.0779,-3.2142,-3.442,-3.5301,-3.6067,-3.6698,-3.6102,-3.4453,-3.1994,-3.1805,-3.1296,-3.0524,-3.051,-3.0719,-3.1065,0.0,0.0,0.0,0.0,0.0,0.0,0.0,0.0,0.0,0.0,-3.5723,-3.633,-3.5862,0.0,0.0,0.0,0.0,0.0,-3.5663,-3.5961,-3.6382,-3.6773,-3.786,-3.8756,-3.872,-3.9354,-3.9969,-3.9899,-4.1233,-4.2324,-4.2108,-4.2582,-4.2878,-4.2431,-4.1952,-4.1763,-4.2003,-4.2336,-4.3238,-4.5084,-4.6583,-4.8339,-5.0607,-5.1527,-5.2169,-5.2809,-5.1378,-5.0469,-5.0258,-4.7546,-4.5616,-4.4893,-4.3146,-4.1744,-4.0777,-4.1098,-4.14,-4.1617,-4.0819,-4.0145,-3.9573,-3.8767,-3.8194,-3.79,-3.7703,-3.7227,-3.6548,-3.5616,-3.4401,-3.3118,-3.2188,-3.142,-3.0967,-3.1983,-3.2823,-3.3581,0.0,0.0,0.0,0.0,0.0,0.0,0.0,0.0,0.0,0.0,0.0,0.0,0.0,0.0,0.0,0.0,0.0,0.0,0.0,0.0,-2.7605,-2.7483,-2.784,-2.8884,-3.0603,-3.1597,-3.3192,-3.5385,-3.5949,-3.639,-3.6736,-3.4986,-3.3079,-3.1098,-3.0833,-3.0478,-3.0033,-2.9725,-2.981,-3.0142,0.0,0.0,0.0,0.0,0.0,0.0,0.0,0.0,0.0,0.0,0.0,0.0,0.0,0.0,0.0,-3.4531,-3.409,-3.3883,-3.3839,-3.4254,-3.4816,-3.5525,-3.6768,-3.7898,-3.8169,-3.8743,-3.9211,-3.9379,-4.0402,-4.1377,-4.1558,-4.1346,-4.0959,-4.0627,-4.0216,-3.9977,-3.9984,-4.0388,-4.12,-4.2406,-4.4398,-4.6634,-4.9014,-4.9823,-5.055,-5.1525,-5.0141,-4.9221,-4.907,-4.6889,-4.528,-4.4359,-4.296,-4.1706,-4.0768,-4.0908,-4.093,-4.0777,-4.0389,-4.0002,-3.9573,-3.8602,-3.8103,-3.79,-3.79,-3.7382,-3.6445,-3.5476,-3.4301,-3.2948,-3.1992,-3.1473,-3.1436,-3.271,-3.4067,-3.5377,0.0,0.0,0.0,0.0,0.0,0.0,0.0,0.0,0.0,0.0,0.0,0.0,0.0,0.0,0.0,0.0,0.0,0.0,0.0,0.0,-2.6656,-2.6485,-2.7806,-2.9782,-3.2453,-3.2256,-3.3339,-3.5934,-3.6361,-3.6206,-3.5482,-3.3578,-3.1801,-3.0291,-3.0,-2.9705,-2.9381,-2.955,-2.9869,-3.0235,-2.9591,0.0,0.0,0.0,0.0,0.0,0.0,0.0,0.0,0.0,0.0,0.0,0.0,0.0,-3.3901,-3.483,-3.4056,-3.2974,-3.3365,-3.3503,-3.3705,-3.412,-3.5532,-3.6834,-3.6925,-3.7915,-3.8767,-3.8546,-3.9995,-4.1302,-4.1324,-4.0683,-3.9812,-3.8629,-3.7721,-3.7059,-3.6677,-3.7502,-3.8727,-4.0165,-4.2208,-4.4456,-4.6829,-4.7582,-4.8447,-4.9618,-4.9064,-4.8423,-4.7861,-4.6273,-4.4956,-4.4143,-4.2869,-4.1973,-4.1416,-4.1766,-4.1522,-4.0777,-4.0219,-3.9812,-3.9573,-3.8602,-3.8103,-3.79,-3.79,-3.7382,-3.6392,-3.5047,-3.3989,-3.3155,-3.1622,-3.1837,-3.309,-3.3778,-3.5409,-3.7272,0.0,0.0,0.0,0.0,0.0,0.0,0.0,0.0,0.0,0.0,0.0,0.0,0.0,0.0,0.0,0.0,0.0,0.0,0.0,-2.6269,-2.6774,-2.6999,-2.8015,-2.9364,-3.1133,-3.3247,-3.5192,-3.6947,-3.6729,-3.6139,-3.5162,-3.3311,-3.2026,-3.129,-3.033,-3.0096,-3.0335,-2.99,-2.9898,-3.0115,-2.9353,-2.8745,0.0,0.0,0.0,0.0,0.0,0.0,0.0,0.0,-3.103,-3.1744,-3.1777,-3.2274,-3.2803,-3.2403,-3.2378,-3.2398,-3.2006,-3.2321,-3.2826,-3.3226,-3.3881,-3.4798,-3.6332,-3.6807,-3.7225,-3.8304,-3.8955,-3.9354,-3.9354,-3.9025,-3.8375,-3.7318,-3.6396,-3.5605,-3.5123,-3.5699,-3.6748,-3.8277,-4.0692,-4.3298,-4.5971,-4.7113,-4.8061,-4.8897,-4.86,-4.8132,-4.7754,-4.6796,-4.5783,-4.4872,-4.4004,-4.3054,-4.1955,-4.2074,-4.1978,-4.1501,-4.0484,-3.9628,-3.9024,-3.8332,-3.7965,-3.7874,-3.7508,-3.6925,-3.6122,-3.4544,-3.3525,-3.283,-3.2067,-3.2752,-3.4339,-3.5453,-3.6841,-3.8299,0.0,0.0,0.0,0.0,0.0,0.0,0.0,0.0,0.0,0.0,0.0,0.0,0.0,0.0,0.0,0.0,0.0,0.0,-2.5349,-2.6183,-2.6791,-2.7027,-2.7759,-2.8768,-3.0097,-3.3252,-3.5527,-3.6841,-3.6465,-3.5735,-3.4676,-3.3132,-3.2366,-3.2325,-3.1116,-3.0996,-3.1604,-3.0514,-3.0218,-3.0342,-2.9243,-2.841,0.0,0.0,0.0,0.0,0.0,0.0,0.0,0.0,-3.0104,-3.0837,-3.0804,-3.1199,-3.1597,-3.1047,-3.1028,-3.1112,-3.0715,-3.1119,-3.1715,-3.1846,-3.2463,-3.3457,-3.5104,-3.5604,-3.6147,-3.7653,-3.8118,-3.8131,-3.7853,-3.7551,-3.6998,-3.5992,-3.4916,-3.4034,-3.3395,-3.4041,-3.5128,-3.6463,-3.9294,-4.2241,-4.4955,-4.6339,-4.7397,-4.8128,-4.8132,-4.7802,-4.7295,-4.708,-4.6448,-4.5304,-4.4931,-4.4107,-4.2904,-4.2785,-4.252,-4.21,-4.0769,-3.9744,-3.9113,-3.8286,-3.79,-3.7874,-3.7273,-3.6716,-3.6122,-3.4601,-3.3671,-3.3172,-3.3146,-3.4139,-3.5736,-3.695,-3.8212,-3.9413,0.0,0.0,0.0,0.0,0.0,0.0,0.0,0.0,0.0,0.0,0.0,0.0,0.0,0.0,0.0,0.0,0.0,0.0,-2.4609,-2.5895,-2.6539,-2.6206,-2.6957,-2.8193,-2.987,-3.2048,-3.3909,-3.54,-3.553,-3.5011,-3.3876,-3.2857,-3.2668,-3.3169,-3.2213,-3.2316,-3.3057,-3.1362,-3.0825,-3.1039,-2.9322,-2.8603,-2.8489,0.0,0.0,0.0,0.0,0.0,0.0,0.0,-2.8497,-2.9541,-3.01,-3.0132,-3.0206,-3.1345,-3.029,-2.8912,-2.9515,-2.9983,-3.0207,-2.98,-3.1405,-3.3079,-3.2988,-3.4263,-3.5719,-3.6511,-3.7504,-3.7947,-3.713,-3.6413,-3.5615,-3.4538,-3.3222,-3.203,-3.1302,-3.2496,-3.3803,-3.4598,-3.8034,-4.1215,-4.3476,-4.499,-4.6212,-4.7205,-4.7545,-4.7295,-4.6431,-4.6907,-4.6645,-4.538,-4.5324,-4.5043,-4.4425,-4.3851,-4.3216,-4.2356,-4.1053,-4.0239,-3.9928,-3.8562,-3.79,-3.7874,-3.7246,-3.6804,-3.6392,-3.5273,-3.4576,-3.4366,-3.4887,-3.5945,-3.7338,-3.8256,-3.9478,-4.0743,0.0,0.0,0.0,0.0,0.0,0.0,0.0,0.0,0.0,0.0,0.0,0.0,0.0,0.0,0.0,0.0,0.0,0.0,-2.4293,-2.5547,-2.6277,-2.6081,-2.7591,-2.8632,-2.9006,-3.0978,-3.3054,-3.5253,-3.492,-3.4343,-3.3508,-3.2364,-3.2321,-3.3169,-3.2815,-3.2496,-3.2189,-3.1748,-3.101,-3.0013,-2.9696,-2.8598,-2.7279,0.0,0.0,0.0,0.0,0.0,0.0,0.0,0.0,0.0,-2.7766,-2.7873,-2.7964,-2.8693,-2.851,-2.8177,-2.8549,-2.9389,-3.0185,-3.0264,-3.1223,-3.2257,-3.275,-3.3799,-3.4847,-3.5623,-3.5853,-3.5835,-3.578,-3.4937,-3.4083,-3.3329,-3.2066,-3.0934,-3.017,-3.138,-3.2895,-3.426,-3.7508,-4.0795,-4.3704,-4.5087,-4.6212,-4.7205,-4.7545,-4.7592,-4.7346,-4.7825,-4.756,-4.6316,-4.626,-4.556,-4.4143,-4.3757,-4.3216,-4.2383,-4.1194,-4.0168,-3.9321,-3.8352,-3.79,-3.7848,-3.6802,-3.6411,-3.6366,-3.4809,-3.4362,-3.4682,-3.5169,-3.6479,-3.8163,-3.9064,-3.9897,-4.0667,0.0,0.0,0.0,0.0,0.0,0.0,0.0,0.0,0.0,0.0,-2.2918,-2.295,0.0,0.0,0.0,-2.326,-2.4049,0.0,-2.3984,-2.506,-2.5829,-2.6162,-2.7315,-2.8232,-2.8786,-3.0648,-3.2201,-3.3386,-3.361,-3.3408,-3.2918,-3.2931,-3.3323,-3.4025,-3.4304,-3.3815,-3.2658,-3.2333,-3.1331,-2.9929,-2.9522,-2.8647,-2.7515,0.0,0.0,0.0,0.0,0.0,0.0,0.0,0.0,0.0,-2.6469,-2.667,-2.6854,-2.7251,-2.7247,-2.7173,-2.755,-2.8454,-2.9352,-2.9725,-3.0943,-3.2262,-3.3068,-3.3707,-3.4269,-3.4753,-3.4841,-3.4854,-3.4854,-3.4224,-3.3548,-3.296,-3.162,-3.0581,-3.0267,-3.1174,-3.2532,-3.4244,-3.7401,-4.0603,-4.3657,-4.4961,-4.6061,-4.7177,-4.735,-4.7313,-4.7212,-4.7915,-4.7652,-4.6183,-4.6526,-4.5853,-4.4001,-4.3642,-4.3148,-4.2356,-4.1053,-4.0014,-3.9243,-3.8083,-3.7534,-3.7482,-3.6393,-3.5867,-3.5775,-3.5039,-3.5122,-3.5805,-3.6437,-3.7582,-3.9005,-3.9765,-4.0275,-4.065,0.0,0.0,-2.0144,-2.0707,0.0,0.0,0.0,0.0,0.0,-2.3032,-2.2694,-2.251,0.0,0.0,0.0,-2.2557,-2.316,-2.3569,-2.357,-2.4425,-2.5332,-2.6254,-2.6752,-2.7731,-2.9312,-3.0917,-3.1344,-3.0546,-3.1814,-3.2342,-3.2177,-3.3948,-3.4862,-3.5034,-3.5967,-3.5397,-3.3603,-3.2584,-3.1379,-3.016,-2.9029,-2.8589,-2.8494,-2.6894,0.0,0.0,0.0,0.0,0.0,0.0,0.0,0.0,-2.5779,-2.6051,-2.631,-2.6622,-2.6265,-2.5927,-2.6592,-2.7275,-2.7975,-2.8655,-3.0701,-3.2759,-3.3539,-3.3674,-3.3701,-3.39,-3.4283,-3.4501,-3.4238,-3.3984,-3.3677,-3.3178,-3.176,-3.0813,-3.1192,-3.1622,-3.2679,-3.4633,-3.7607,-4.0568,-4.3421,-4.4626,-4.5762,-4.7011,-4.6883,-4.6628,-4.6371,-4.7404,-4.7178,-4.538,-4.6175,-4.5749,-4.4001,-4.3499,-4.2931,-4.2254,-4.079,-3.9826,-3.9348,-3.7734,-3.6959,-3.6802,-3.5989,-3.531,-3.4929,-3.5683,-3.6507,-3.7365,-3.8136,-3.8951,-3.9755,-4.0347,-4.0566,-4.0603,0.0,0.0,-2.1369,-2.1462,0.0,0.0,0.0,0.0,-2.3106,-2.3052,-2.2694,-2.2369,-2.2071,-2.263,0.0,-2.2377,-2.2957,-2.3168,-2.2636,-2.3554,-2.455,-2.5431,-2.8414,-3.0462,-3.1369,-3.1224,-3.0553,-2.9304,-3.0546,-3.1338,-3.1667,-3.2649,-3.3242,-3.3422,-3.3908,-3.3025,-3.1087,-2.984,-2.8886,-2.8275,-2.8232,-2.7633,-2.6828,-2.7073,-2.6365,0.0,0.0,0.0,0.0,0.0,0.0,0.0,-2.4166,-2.4044,-2.3835,-2.4936,-2.4754,-2.4411,-2.5386,-2.6121,-2.6975,-2.8482,-3.0513,-3.2142,-3.2216,-3.2447,-3.2803,-3.3483,-3.3234,-3.3046,-3.3441,-3.3226,-3.2882,-3.2638,-3.185,-3.1366,-3.1405,-3.2449,-3.3913,-3.5973,-3.8532,-4.1005,-4.3373,-4.4482,-4.5233,-4.5546,-4.6132,-4.6334,-4.6033,-4.6889,-4.6827,-4.5666,-4.5627,-4.4984,-4.3709,-4.3211,-4.2453,-4.1346,-4.0837,-3.994,-3.8762,-3.755,-3.6515,-3.5695,-3.5775,-3.569,-3.5458,-3.601,-3.6918,-3.793,-3.8499,-3.9152,-3.9771,-4.0233,-4.0304,-4.0167,0.0,0.0,0.0,0.0,0.0,0.0,0.0,0.0,-2.2962,-2.3032,-2.2487,-2.1854,-2.1282,-2.184,0.0,0.0,-2.1709,-2.2041,-2.1872,-2.2835,-2.4037,-2.5417,-2.7827,-2.9162,-2.9217,-2.9113,-2.8635,-2.7688,-2.8073,-2.8896,-3.014,-3.1493,-3.2023,-3.1856,-3.2497,-3.1516,-2.9346,-2.8683,-2.7843,-2.6925,-2.7081,-2.6747,-2.6125,-2.5987,-2.5377,-2.4569,-2.4086,0.0,0.0,0.0,0.0,0.0,0.0,0.0,-2.2813,-2.3384,-2.3458,-2.358,-2.4514,-2.5433,-2.6709,-2.9122,-3.0589,-3.156,-3.1977,-3.2154,-3.2382,-3.2962,-3.2942,-3.2798,-3.2758,-3.2891,-3.2751,-3.2192,-3.1894,-3.1928,-3.2329,-3.3325,-3.4795,-3.6964,-3.9024,-4.1123,-4.3258,-4.3966,-4.4498,-4.4884,-4.5043,-4.5084,-4.4875,-4.5752,-4.5748,-4.4713,-4.5012,-4.4634,-4.3499,-4.3067,-4.2229,-4.0923,-4.0616,-3.9588,-3.7791,-3.6988,-3.6009,-3.5115,-3.5558,-3.577,-3.5838,-3.6764,-3.7553,-3.8189,-3.9027,-3.953,-3.9744,-4.0225,-4.0241,-4.0035,0.0,0.0,0.0,0.0,0.0,0.0,0.0,0.0,0.0,-2.3069,-2.2335,-2.1494,-2.0746,-2.1294,-2.1186,0.0,0.0,0.0,-2.1268,-2.2352,-2.3789,-2.555,-2.6649,-2.6925,-2.6382,-2.6687,-2.6618,-2.6052,-2.5551,-2.6236,-2.8021,-3.0084,-3.0914,-3.0664,-3.113,-3.0129,-2.8125,-2.761,-2.6802,-2.5854,-2.5722,-2.5658,-2.5516,-2.4574,-2.3961,-2.3642,-2.3299,-2.2914,-2.2571,-2.282,0.0,0.0,0.0,0.0,-2.201,-2.1792,-2.2085,-2.2609,-2.3308,-2.4587,-2.6424,-2.9332,-3.0367,-3.0892,-3.1931,-3.2122,-3.2122,-3.2404,-3.2949,-3.3171,-3.2513,-3.2967,-3.3157,-3.2227,-3.2257,-3.266,-3.3453,-3.4244,-3.5538,-3.7742,-3.9417,-4.1094,-4.291,-4.3286,-4.365,-4.4171,-4.3791,-4.3465,-4.3405,-4.4206,-4.4315,-4.3504,-4.42,-4.4215,-4.3238,-4.297,-4.2187,-4.0871,-4.0375,-3.9144,-3.7161,-3.6541,-3.5757,-3.4917,-3.5489,-3.5907,-3.6262,-3.7661,-3.826,-3.8394,-3.9541,-3.9848,-3.97,-4.0225,-4.0198,-4.0019,0.0,0.0,0.0,0.0,0.0,0.0,0.0,0.0,0.0,0.0,-2.2832,-2.2124,-2.1049,-2.1396,-2.1309,-2.0292,-2.0734,-2.0973,-2.0802,0.0,0.0,-2.4976,-2.6694,-2.7396,-2.6991,-2.6658,-2.5864,-2.4558,-2.4519,-2.4862,-2.5612,-2.7764,-2.9388,-3.0436,-2.8902,-2.7984,-2.7409,-2.457,-2.3985,-2.4898,-2.42,-2.3822,-2.3666,-2.371,-2.2872,-2.1707,-2.188,-2.1892,-2.1747,-2.1116,-2.098,0.0,0.0,0.0,-1.9777,-1.9902,-2.0136,-2.0366,-2.0582,-2.2602,-2.5186,-2.7231,-2.8733,-2.9954,-3.0892,-3.1308,-3.1596,-3.1909,-3.2917,-3.3688,-3.3583,-3.3934,-3.4066,-3.362,-3.3564,-3.3738,-3.4214,-3.5046,-3.6314,-3.8254,-3.9811,-4.1132,-4.2107,-4.2398,-4.25,-4.2358,-4.2276,-4.21,-4.1816,-4.2712,-4.3108,-4.2943,-4.3067,-4.3127,-4.2949,-4.2706,-4.2162,-4.1442,-4.0208,-3.905,-3.8036,-3.7232,-3.6173,-3.496,-3.5812,-3.64,-3.6877,-3.8168,-3.8896,-3.9183,-3.9793,-3.9733,-3.9452,-4.0138,-4.0138,-3.987,0.0,0.0,0.0,0.0,0.0,0.0,0.0,0.0,0.0,0.0,0.0,-2.2076,-2.0445,-2.0827,-2.0566,-1.8989,-1.9442,-2.0004,-2.0446,-2.1528,-2.2528,-2.3346,-2.4091,-2.4418,-2.4301,-2.3891,-2.3486,-2.3113,-2.2476,-2.293,-2.4392,-2.5268,-2.6673,-2.8421,-2.7,-2.6177,-2.5718,-2.3497,-2.2861,-2.334,-2.2638,-2.2149,-2.1861,-2.2076,-2.1427,-2.046,-2.1104,-2.1062,-2.0736,-2.0655,-2.0512,-2.029,-1.9655,0.0,0.0,0.0,-1.9058,-1.947,-2.0845,-2.2548,-2.437,-2.6237,-2.758,-2.8746,-2.9689,-3.0635,-3.1441,-3.1905,-3.2856,-3.334,-3.2573,-3.3049,-3.3168,-3.1969,-3.2434,-3.3095,-3.3541,-3.4795,-3.6455,-3.866,-3.9847,-4.0857,-4.1686,-4.174,-4.1605,-4.1281,-4.1113,-4.1005,-4.083,-4.1221,-4.1564,-4.1883,-4.1962,-4.2086,-4.2435,-4.2484,-4.2215,-4.1597,-4.0014,-3.8998,-3.8431,-3.7584,-3.6857,-3.6271,-3.6837,-3.7155,-3.7284,-3.8222,-3.8646,-3.8847,-3.9196,-3.9282,-3.9239,-3.9542,-3.9612,-3.9609,0.0,0.0,0.0,0.0,0.0,0.0,0.0,0.0,0.0,0.0,0.0,-2.1629,-1.991,0.0,0.0,0.0,-1.8427,-1.9151,-1.9767,-2.0408,-2.0983,-2.1463,-2.1664,-2.1755,-2.1667,-2.1124,-2.108,-2.1591,-2.0647,-2.1349,-2.3513,-2.3547,-2.4559,-2.6296,-2.5688,-2.5044,-2.4316,-2.2989,-2.2351,-2.2149,-2.1326,-2.0662,-2.0214,-2.0185,-1.9692,-1.911,-1.9961,-2.0004,-1.9708,-2.0038,-2.0021,-1.9743,-1.9022,-1.8573,0.0,0.0,0.0,-1.8328,-2.067,-2.1764,-2.2741,-2.4792,-2.6052,-2.7062,-2.8149,-2.9565,-3.081,-3.1378,-3.2346,-3.2787,-3.1668,-3.2281,-3.2464,-3.0936,-3.164,-3.2525,-3.2856,-3.4354,-3.6262,-3.8536,-3.9468,-4.0239,-4.1159,-4.0983,-4.0716,-4.0475,-4.004,-3.9714,-3.9714,-3.9708,-3.9953,-4.052,-4.0829,-4.128,-4.1852,-4.2284,-4.2237,-4.1692,-4.0354,-3.9521,-3.9175,-3.8443,-3.8013,-3.7854,-3.783,-3.7682,-3.7497,-3.8222,-3.8385,-3.8179,-3.8464,-3.8608,-3.8693,-3.8778,-3.8931,-3.9195,0.0,0.0,0.0,0.0,0.0,0.0,0.0,0.0,0.0,0.0,0.0,-2.0827,-1.9896,-1.9658,-1.9119,-1.7992,-1.8629,-1.8905,-1.8424,-1.9311,-1.9756,-1.9553,-2.0563,0.0,-2.0507,-1.948,-1.9271,-1.9927,-1.9547,-2.0525,-2.2777,-2.3199,-2.39,-2.4849,-2.5234,-2.4803,-2.3789,-2.2752,-2.217,-2.1801,-2.0421,-1.9482,-1.8831,-1.8213,-1.7581,-1.7146,-1.7943,-1.8481,-1.8755,-1.865,-1.8967,-1.9113,-1.723,-1.6639,-1.65,0.0,0.0,0.0,-1.851,-1.9017,-1.9501,-2.2201,-2.3527,-2.4598,-2.6099,-2.7866,-2.9324,-2.9748,-3.1157,-3.2202,-3.1686,-3.2465,-3.2916,-3.2122,-3.2332,-3.2572,-3.262,-3.3981,-3.5695,-3.7736,-3.8443,-3.9207,-4.0287,-4.0067,-3.9857,-3.983,-3.8827,-3.8209,-3.8209,-3.8092,-3.8227,-3.8727,-3.9907,-4.0755,-4.1239,-4.207,-4.2312,-4.1958,-4.1639,-4.1146,-4.0609,-4.0368,-3.9954,-3.9367,-3.847,-3.7752,-3.7284,-3.8351,-3.8285,-3.7582,-3.7836,-3.7794,-3.7624,-3.7878,-3.8191,-3.8548,0.0,0.0,0.0,0.0,0.0,0.0,0.0,0.0,0.0,0.0,0.0,0.0,0.0,-1.9081,-1.824,-1.7052,-1.7595,-1.7874,-1.7531,-1.828,-1.8604,-1.8369,-1.8642,0.0,-1.8723,-1.8025,-1.8197,-1.9277,-1.8559,-1.9473,-2.1859,-2.1999,-2.2405,-2.3041,-2.3597,-2.3358,-2.2379,-2.1296,-2.0311,-1.9467,-1.8757,-1.7896,-1.7058,-1.7044,-1.6544,-1.5957,-1.6688,-1.6856,-1.6783,-1.6824,-1.7029,-1.7169,-1.6469,-1.6445,-1.6606,-1.6157,-1.6294,-1.6763,-1.7565,-1.8364,-1.9252,-2.0427,-2.1901,-2.3379,-2.4513,-2.6525,-2.8368,-2.9254,-3.0325,-3.1303,-3.1815,-3.1983,-3.198,-3.1685,-3.1644,-3.1877,-3.2555,-3.3721,-3.515,-3.6864,-3.7904,-3.8647,-3.8972,-3.8734,-3.8489,-3.8272,-3.7502,-3.7137,-3.7267,-3.7087,-3.7492,-3.8575,-3.8754,-3.9528,-4.0923,-4.1426,-4.1807,-4.2065,-4.1902,-4.1558,-4.1036,-4.0588,-4.0154,-3.9658,-3.8809,-3.797,-3.7257,-3.7772,-3.7558,-3.6931,-3.7014,-3.7097,-3.7097,-3.7097,-3.7234,-3.7506,0.0,0.0,0.0,0.0,0.0,-1.7214,-1.7507,0.0,0.0,0.0,0.0,0.0,0.0,0.0,-1.8024,-1.687,-1.6918,-1.6928,-1.6738,-1.7304,-1.7544,-1.734,-1.7196,0.0,-1.7666,-1.6861,-1.7118,-1.8459,-1.7878,-1.8627,-2.0625,-2.0921,-2.1269,-2.1633,-2.1878,-2.1846,-2.15,-2.0705,-1.9677,-1.8485,-1.7624,-1.6731,-1.5914,-1.5542,-1.5077,-1.4676,-1.5331,-1.5406,-1.5274,-1.5643,-1.6023,-1.6243,-1.5711,-1.5859,-1.6173,-1.6049,-1.644,-1.693,-1.6912,-1.763,-1.8598,-1.9463,-2.056,-2.1825,-2.3499,-2.5344,-2.7082,-2.8586,-2.9579,-3.0413,-3.142,-3.1253,-3.1049,-3.121,-3.111,-3.1289,-3.2128,-3.3212,-3.4519,-3.6302,-3.7114,-3.7732,-3.814,-3.7753,-3.7429,-3.7306,-3.6542,-3.6181,-3.6396,-3.6181,-3.677,-3.8277,-3.8175,-3.8897,-4.0777,-4.1165,-4.1651,-4.2239,-4.2274,-4.2133,-4.1748,-4.1298,-4.073,-4.0045,-3.9226,-3.8256,-3.716,-3.6968,-3.6645,-3.6156,-3.5967,-3.6076,-3.6389,-3.6266,-3.6415,-3.6769,0.0,-1.9946,-1.9194,-1.7073,-1.7177,-1.7356,-1.6758,-1.81,-1.9222,-1.9288,0.0,0.0,0.0,0.0,0.0,-1.7542,-1.6707,-1.6139,-1.601,-1.6413,-1.659,-1.6403,-1.6388,-1.6727,-1.7361,-1.6044,-1.6015,-1.739,-1.7523,-1.8103,-1.9121,-2.0096,-2.06,-2.0645,-2.0188,-2.0435,-2.1198,-2.1068,-2.0291,-1.9008,-1.7142,-1.6085,-1.5444,-1.3661,-1.3059,-1.3233,-1.3811,-1.4123,-1.4333,-1.5143,-1.599,-1.6453,-1.4994,-1.4736,-1.5074,-1.5368,-1.5913,-1.6455,0.0,0.0,0.0,-1.9257,-1.939,-1.9831,-2.3021,-2.4272,-2.5372,-2.76,-2.8716,-2.9551,-3.0405,-3.0351,-3.0344,-3.0813,-3.0847,-3.0917,-3.1346,-3.2372,-3.3885,-3.5974,-3.6055,-3.6467,-3.7753,-3.716,-3.676,-3.6914,-3.5861,-3.5335,-3.5563,-3.5335,-3.5974,-3.7645,-3.805,-3.9031,-4.0698,-4.1256,-4.1866,-4.2484,-4.2728,-4.29,-4.29,-4.2609,-4.1839,-4.0683,-3.9833,-3.8604,-3.7107,-3.6102,-3.5548,-3.5305,-3.474,-3.4875,-3.5386,-3.5386,-3.5762,-3.6368,-1.989,-1.9557,-1.8812,-1.6696,-1.6326,-1.6287,-1.6218,-1.6487,-1.7229,0.0,0.0,0.0,-1.9515,-1.8624,-1.7605,-1.6773,-1.6578,-1.6337,-1.6012,-1.6121,-1.6155,-1.6111,-1.6488,-1.6771,-1.695,-1.6453,-1.666,-1.7682,-1.7274,-1.7754,-1.9036,-1.9266,-1.9609,-2.002,-1.9466,-1.9222,-1.9272,-1.9246,-1.7992,-1.6038,-1.6038,-1.5111,-1.3696,-1.3304,-1.267,-1.2016,-1.2433,-1.2511,-1.2504,-1.3129,-1.3806,-1.4516,-1.5171,-1.5291,-1.5418,-1.6467,-1.7036,-1.7243,-1.6906,0.0,0.0,0.0,0.0,0.0,-2.1332,-2.2781,-2.4317,-2.6265,-2.7137,-2.7916,-2.914,-2.9407,-2.9646,-3.0146,-3.0311,-3.0724,-3.1694,-3.2458,-3.3253,-3.4091,-3.5385,-3.6055,-3.5658,-3.5672,-3.5627,-3.5259,-3.4474,-3.4196,-3.4564,-3.5086,-3.5372,-3.5338,-3.6682,-3.7691,-3.8392,-3.958,-4.0531,-4.1382,-4.2393,-4.29,-4.29,-4.2609,-4.1962,-4.0916,-3.9268,-3.798,-3.6893,-3.5897,-3.5103,-3.454,-3.4658,-3.4646,-3.462,-3.5373,-3.5534,-3.5624,-1.9863,-1.9549,-1.8883,-1.7023,-1.6739,-1.6714,-1.6517,-1.6561,-1.7175,0.0,0.0,0.0,-1.9351,-1.8476,-1.7537,-1.6874,-1.6519,-1.62,-1.5813,-1.5769,-1.5888,-1.6218,-1.6548,-1.6908,-1.724,-1.6754,-1.6814,-1.7421,-1.7035,-1.7222,-1.7958,-1.8217,-1.8308,-1.8276,-1.8168,-1.7826,-1.7349,-1.7393,-1.6645,-1.5433,-1.5052,-1.4273,-1.3274,-1.2642,-1.2025,-1.1524,-1.1756,-1.1875,-1.2027,-1.2607,-1.3181,-1.3918,-1.5274,-1.5722,-1.5892,-1.6757,-1.7634,-1.8092,-1.7075,-1.7435,-1.7994,-1.7524,0.0,0.0,-2.1131,-2.2278,-2.3511,-2.5641,-2.6306,-2.6832,-2.785,-2.8326,-2.8622,-2.8856,-2.9021,-2.9762,-3.152,-3.1969,-3.2489,-3.342,-3.4292,-3.4729,-3.459,-3.4589,-3.4414,-3.3987,-3.3627,-3.3537,-3.3794,-3.4353,-3.4615,-3.4564,-3.5669,-3.6668,-3.7505,-3.8434,-3.9402,-4.036,-4.1501,-4.2135,-4.2183,-4.2181,-4.1646,-4.0656,-3.8879,-3.7624,-3.6711,-3.5073,-3.4286,-3.406,-3.4059,-3.4073,-3.4192,-3.5262,-3.5381,-3.5216,0.0,-1.9689,-1.9171,-1.7709,-1.7777,-1.7868,-1.7409,-1.7623,-1.8099,0.0,-1.9028,-1.9139,-1.9255,-1.8597,-1.7945,-1.7415,-1.6593,-1.5942,-1.558,-1.5462,-1.5757,-1.6481,-1.6784,-1.7267,-1.8013,-1.7262,-1.6919,-1.7076,-1.6845,-1.6666,-1.6537,-1.7167,-1.7024,-1.6218,-1.6707,-1.6422,-1.5633,-1.5653,-1.5816,-1.5908,-1.4177,-1.3504,-1.3457,-1.1904,-1.1404,-1.1509,-1.1629,-1.1994,-1.2519,-1.3201,-1.3703,-1.4272,-1.5446,-1.6058,-1.6414,-1.6776,-1.7947,-1.8831,-1.7385,-1.7387,-1.78,-1.7857,-1.7843,0.0,-2.1635,-2.2242,-2.2836,-2.5232,-2.5751,-2.5929,-2.6443,-2.6974,-2.7251,-2.709,-2.736,-2.8419,-3.0795,-3.1021,-3.1508,-3.3126,-3.2928,-3.3065,-3.4015,-3.3672,-3.3308,-3.3018,-3.3002,-3.301,-3.3063,-3.3264,-3.3788,-3.4545,-3.4952,-3.5791,-3.7103,-3.7508,-3.8246,-3.9316,-4.0206,-4.0764,-4.1037,-4.1323,-4.1002,-4.008,-3.8477,-3.7437,-3.6614,-3.4098,-3.337,-3.3792,-3.3225,-3.3317,-3.3962,-3.5205,-3.5268,-3.5057,-1.9246,-1.9059,-1.8799,-1.7958,-1.7641,-1.77,0.0,-1.7822,-1.8042,-1.9572,-1.973,-1.9373,-1.8545,-1.8435,-1.8097,-1.7311,-1.6821,-1.6388,-1.5926,-1.5696,-1.5861,-1.6544,-1.7728,-1.8524,-1.8874,-1.8981,-1.8748,-1.8115,-1.7427,-1.6915,-1.6572,-1.716,-1.6996,-1.62,-1.6242,-1.5873,-1.5171,-1.4442,-1.4037,-1.3869,-1.3368,-1.289,-1.2382,-1.1788,-1.156,-1.1614,-1.189,-1.2546,-1.3425,-1.446,-1.4976,-1.5353,-1.628,-1.6642,-1.6954,-1.8164,-1.8659,-1.8809,-1.8854,-1.8581,-1.8362,-1.8809,-1.8702,0.0,-2.0811,-2.1328,-2.1895,-2.37,-2.3813,-2.3866,-2.4792,-2.5215,-2.548,-2.5656,-2.6412,-2.7558,-2.9238,-2.9544,-2.9963,-3.0778,-3.1848,-3.2449,-3.2161,-3.2568,-3.2735,-3.2373,-3.203,-3.1721,-3.1453,-3.1901,-3.2437,-3.3092,-3.3892,-3.4487,-3.4838,-3.6026,-3.6867,-3.7369,-3.8385,-3.9238,-3.9922,-3.9979,-3.9759,-3.9256,-3.7801,-3.7042,-3.6641,-3.441,-3.3564,-3.3657,-3.3344,-3.3198,-3.3307,-3.5136,-3.5335,-3.49,-1.9498,-1.9286,-1.9056,-1.871,0.0,0.0,0.0,-1.8586,-1.8631,-1.9969,-1.9708,-1.9151,-1.8416,-1.8254,-1.7907,-1.7205,-1.6693,-1.6278,-1.5917,-1.5525,-1.5682,-1.6621,-1.7733,-1.8691,-1.9476,-1.9105,-1.8805,-1.8664,-1.7503,-1.6674,-1.6159,-1.6522,-1.6379,-1.5788,-1.5556,-1.5372,-1.5222,-1.4335,-1.3848,-1.3607,-1.3058,-1.2491,-1.1965,-1.2136,-1.234,-1.2612,-1.3264,-1.4319,-1.5418,-1.5395,-1.6299,-1.7323,-1.6525,-1.7541,-1.9012,-1.9058,-1.9485,-1.9786,-1.9179,-1.8831,-1.8634,-1.8609,-1.8823,0.0,0.0,-2.1216,-2.1858,-2.3324,-2.3074,-2.2851,-2.3693,-2.3719,-2.3795,-2.4177,-2.4749,-2.5439,-2.6326,-2.768,-2.8832,-2.9548,-3.0305,-3.0809,-3.0745,-3.1245,-3.1529,-3.1395,-3.095,-3.0714,-3.0849,-3.1369,-3.1734,-3.194,-3.2713,-3.3315,-3.3817,-3.4287,-3.4925,-3.5734,-3.6527,-3.7322,-3.8192,-3.8523,-3.8437,-3.81,-3.7196,-3.6515,-3.5943,-3.4271,-3.3703,-3.3829,-3.3433,-3.3416,-3.3804,-3.5158,-3.5444,-3.5406,-1.9604,-1.9492,-1.9354,-1.9354,0.0,0.0,0.0,0.0,-1.9148,-1.9943,-1.9415,-1.8877,-1.863,-1.8269,-1.7929,-1.7639,-1.6886,-1.6345,-1.6177,-1.5572,-1.5718,-1.6784,-1.7509,-1.848,-1.974,-1.8763,-1.8354,-1.8609,-1.7346,-1.6383,-1.574,-1.5939,-1.5806,-1.5349,-1.5104,-1.5156,-1.5372,-1.4545,-1.4109,-1.3908,-1.3237,-1.2567,-1.2024,-1.268,-1.3274,-1.4004,-1.5383,-1.6801,-1.7884,-1.7117,-1.8217,-1.9575,-1.776,-1.9122,-2.1241,-2.0371,-2.0756,-2.1237,-1.9985,-1.9607,-1.9403,-1.8988,-1.9305,-1.9978,0.0,0.0,0.0,-2.287,-2.2477,-2.2043,-2.247,-2.2251,-2.2088,-2.2453,-2.2873,-2.3161,-2.3197,-2.5245,-2.7081,-2.8046,-2.8369,-2.8699,-2.9204,-2.9398,-2.9616,-2.9988,-2.9326,-2.9328,-3.0302,-3.074,-3.0997,-3.1149,-3.1482,-3.2062,-3.2887,-3.2404,-3.2779,-3.406,-3.4442,-3.5127,-3.6197,-3.6745,-3.6908,-3.6755,-3.6322,-3.5841,-3.5208,-3.4147,-3.396,-3.4292,-3.3493,-3.3649,-3.439,-3.5146,-3.5564,-3.584,-1.8413,-1.8877,-1.912,-1.912,0.0,0.0,0.0,0.0,-1.8801,-1.9128,-1.9146,-1.9132,-1.9034,-1.8737,-1.8757,-1.9345,-1.8302,-1.7558,-1.7504,-1.6596,-1.6414,-1.7203,-1.7587,-1.8238,-1.9162,-1.8893,-1.8354,-1.7586,-1.706,-1.6488,-1.587,-1.6077,-1.579,-1.5144,-1.5524,-1.5496,-1.5082,-1.4417,-1.3993,-1.3853,-1.4176,-1.3561,-1.2548,-1.3052,-1.397,-1.5395,-1.8364,-1.994,-2.0665,-2.1174,-2.1494,-2.1677,-2.2051,-2.2174,-2.2335,-2.3109,-2.316,-2.3001,-2.3109,-2.2441,-2.1777,-2.2002,-2.1476,-2.1019,-2.1456,0.0,-2.1601,-2.1197,0.0,-2.0803,-2.0264,0.0,0.0,-2.0053,-2.1086,-2.1629,-2.0809,-2.1934,-2.3313,-2.4587,-2.5748,-2.6561,-2.687,-2.6481,-2.6675,-2.7755,-2.6519,-2.6731,-2.9076,-2.9038,-2.9528,-3.0863,-3.039,-3.0378,-3.1067,-3.0556,-3.079,-3.1708,-3.2002,-3.2759,-3.3961,-3.4287,-3.4769,-3.5308,-3.4793,-3.4855,-3.5234,-3.437,-3.4575,-3.5289,-3.3773,-3.3504,-3.4091,-3.5035,-3.5435,-3.5667,-1.7612,-1.8114,-1.844,-1.855,0.0,0.0,0.0,0.0,-1.9337,-1.9402,-1.9336,-1.9251,-1.9208,-1.9277,-1.944,-1.9636,-1.9048,-1.8511,-1.8141,-1.7432,-1.7165,-1.7532,-1.7617,-1.8126,-1.9023,-1.8278,-1.7853,-1.7792,-1.748,-1.7068,-1.659,-1.6951,-1.697,-1.6651,-1.6308,-1.6236,-1.6346,-1.5901,-1.5247,-1.4592,-1.5777,-1.5581,-1.4669,-1.5648,-1.7337,-1.9492,-2.1999,-2.3152,-2.3433,-2.3015,-2.3773,-2.4736,-2.3785,-2.4029,-2.4703,-2.4767,-2.4372,-2.3917,-2.3735,-2.3441,-2.298,-2.2355,-2.2261,-2.2139,-2.1472,-2.118,-2.1069,-2.1145,0.0,0.0,0.0,0.0,0.0,0.0,-1.9329,-1.9392,-1.8868,-1.9596,-2.0767,-2.2376,-2.3212,-2.3971,-2.475,-2.4691,-2.5006,-2.6045,-2.5328,-2.5589,-2.7262,-2.7656,-2.8162,-2.8784,-2.8371,-2.8674,-2.9609,-2.8931,-2.9237,-3.0434,-3.0131,-3.0805,-3.2343,-3.2433,-3.3052,-3.4,-3.4042,-3.4201,-3.4357,-3.3997,-3.4399,-3.5106,-3.4314,-3.4615,-3.5462,-3.5466,-3.5759,-3.6218,-1.6539,-1.7355,-1.8018,-1.8161,-1.8481,0.0,0.0,-1.9235,-1.9296,-1.9505,-1.923,-1.9202,-1.9686,-1.9965,-2.022,-2.0422,-2.0167,-1.971,-1.9061,-1.8405,-1.8029,-1.7961,-1.7696,-1.7875,-1.857,-1.77,-1.7439,-1.7823,-1.7688,-1.7676,-1.7821,-1.7801,-1.8059,-1.8513,-1.7408,-1.7291,-1.7887,-1.7583,-1.6966,-1.6279,-1.7693,-1.8256,-1.8286,-1.8809,-2.0754,-2.3364,-2.4937,-2.5877,-2.624,-2.5335,-2.623,-2.7488,-2.5895,-2.614,-2.6956,-2.6503,-2.5993,-2.5467,-2.5029,-2.4906,-2.4499,-2.2889,-2.2917,-2.2851,-2.1272,-2.0884,-2.0825,-2.0695,-1.9907,0.0,0.0,0.0,-1.7786,-1.799,0.0,-1.7603,-1.7152,-1.7686,-1.8659,-2.0163,-2.0728,-2.1354,-2.2171,-2.2194,-2.2679,-2.3986,-2.3513,-2.3924,-2.5709,-2.6201,-2.6598,-2.6949,-2.6716,-2.6976,-2.7963,-2.7175,-2.7447,-2.8794,-2.8245,-2.8858,-3.0514,-3.0699,-3.1376,-3.2455,-3.3083,-3.3388,-3.3411,-3.3564,-3.4221,-3.5106,-3.4648,-3.541,-3.665,-3.5902,-3.5974,-3.6452,-1.488,-1.6666,-1.8179,-1.8179,-1.837,-1.8448,-1.8195,-1.7933,-1.8073,-1.9001,-1.866,-1.8964,-2.0657,-2.0799,-2.1243,-2.2384,-2.2081,-2.1455,-2.0597,-1.9668,-1.8971,-1.8588,-1.7876,-1.7519,-1.7548,-1.738,-1.7238,-1.712,-1.734,-1.8207,-1.9677,-1.833,-1.8719,-2.0442,-1.8919,-1.8671,-1.9409,-1.9075,-1.8966,-1.913,-1.9899,-2.1683,-2.3663,-2.2234,-2.3543,-2.6198,-2.662,-2.7781,-2.9161,-2.9108,-2.9311,-2.9513,-2.9425,-2.9038,-2.8636,-2.8815,-2.86,-2.8231,-2.7996,-2.7668,-2.6848,-2.4608,-2.3742,-2.2972,-2.0883,-2.1043,-2.1051,-1.9154,-1.9351,-1.932,-1.7597,-1.7423,-1.7288,-1.6683,-1.6937,0.0,0.0,-1.6166,-1.6893,-1.7561,-1.8312,-1.883,-1.8857,-1.8278,-1.8904,-2.1353,-2.024,-2.104,-2.4661,-2.449,-2.4881,-2.6083,-2.5625,-2.5535,-2.5893,-2.5082,-2.5234,-2.6324,-2.6115,-2.6792,-2.8226,-2.8966,-2.9709,-3.056,-3.1607,-3.2271,-3.2666,-3.3225,-3.4349,-3.5693,-3.4601,-3.5372,-3.6985,-3.6167,-3.5927,-3.6003,-1.4808,-1.5864,-1.6745,-1.6745,-1.7377,-1.7799,-1.747,-1.7233,-1.742,-1.8258,-1.8997,-1.9881,-2.1143,-2.1877,-2.2383,-2.2778,-2.2785,-2.2625,-2.2277,-2.1327,-2.0975,-2.141,-1.9872,-1.9072,-1.9369,-1.8446,-1.7821,-1.7559,-1.8648,-1.9358,-1.9672,-2.0194,-2.0425,-2.038,-1.995,-1.9929,-2.0235,-2.0322,-2.0482,-2.0784,-2.2198,-2.3881,-2.5515,-2.5289,-2.6154,-2.767,-2.909,-3.0095,-3.0897,-3.1401,-3.125,-3.0917,-3.1029,-3.0262,-2.9327,-2.9502,-2.9166,-2.8713,-2.817,-2.8035,-2.753,-2.5419,-2.4344,-2.3374,-2.1638,-2.0838,-2.0075,-1.8953,-1.8785,-1.8477,-1.729,-1.678,-1.6396,-1.5851,-1.5474,-1.5001,0.0,-1.429,-1.4125,-1.3699,-1.5475,-1.6857,-1.7205,-1.7057,-1.7821,-1.9991,-1.9145,-1.9614,-2.2219,-2.2358,-2.2849,-2.3936,-2.3374,-2.3474,-2.4422,-2.3966,-2.4015,-2.4601,-2.4548,-2.5239,-2.6641,-2.6945,-2.7921,-2.9385,-3.0191,-3.1071,-3.1988,-3.2272,-3.3341,-3.4765,-3.4412,-3.5079,-3.6243,-3.5789,-3.5812,-3.5955,-1.4836,-1.5318,-1.5851,-1.5982,-1.6631,-1.6979,-1.6511,-1.6571,-1.7011,-1.79,-1.8955,-2.0195,-2.1643,-2.2422,-2.2963,-2.3234,-2.3622,-2.3589,-2.2997,-2.2495,-2.2323,-2.2502,-2.0913,-2.0125,-2.0298,-1.9045,-1.8366,-1.8297,-1.9341,-2.002,-2.0295,-2.0998,-2.1218,-2.097,-2.0446,-2.0382,-2.0696,-2.1201,-2.1628,-2.212,-2.4247,-2.5939,-2.7245,-2.7814,-2.8339,-2.8924,-3.0467,-3.1356,-3.1898,-3.2554,-3.2342,-3.1781,-3.1885,-3.1022,-2.999,-2.9999,-2.9648,-2.9119,-2.8386,-2.8275,-2.779,-2.5697,-2.4597,-2.3476,-2.1249,-2.0205,-1.9381,-1.8187,-1.7759,-1.7434,-1.6846,-1.6133,-1.5463,-1.4852,-1.4342,-1.3834,0.0,-1.2743,-1.2255,-1.1984,-1.3674,-1.4849,-1.4766,-1.5339,-1.6263,-1.7467,-1.7403,-1.8165,-2.0129,-2.0266,-2.0855,-2.1996,-2.1642,-2.1773,-2.255,-2.2542,-2.2644,-2.2888,-2.3042,-2.3714,-2.4742,-2.5355,-2.6376,-2.7687,-2.8981,-3.0127,-3.11,-3.1677,-3.2764,-3.4161,-3.3958,-3.4667,-3.5759,-3.5529,-3.5531,-3.5524,-1.4933,-1.5191,-1.5602,-1.5953,-1.6109,-1.5962,-1.5329,-1.5928,-1.6841,-1.7839,-1.8628,-1.9922,-2.2081,-2.2525,-2.2983,-2.3839,-2.452,-2.4344,-2.2923,-2.3142,-2.2936,-2.2034,-2.1175,-2.0607,-2.0447,-1.926,-1.8836,-1.9234,-1.9354,-2.0104,-2.1376,-2.0705,-2.099,-2.2022,-2.0374,-2.0044,-2.0809,-2.1587,-2.2374,-2.3245,-2.6029,-2.7813,-2.8871,-2.9767,-2.9977,-2.9918,-3.0755,-3.1505,-3.2237,-3.2764,-3.2606,-3.2131,-3.2067,-3.1444,-3.066,-3.0444,-3.0126,-2.964,-2.8835,-2.8458,-2.7748,-2.5552,-2.4598,-2.3326,-1.9968,-1.9381,-1.9007,-1.7084,-1.6506,-1.6319,-1.6247,-1.5443,-1.4524,-1.3688,-1.3533,-1.3253,-1.2446,-1.1509,-1.1242,-1.2151,-1.2847,-1.2841,-1.1733,-1.3244,-1.424,-1.4088,-1.5085,-1.6509,-1.8375,-1.8339,-1.8906,-2.0312,-2.0348,-2.0369,-2.041,-2.0808,-2.1036,-2.1104,-2.1587,-2.205,-2.2574,-2.4138,-2.5057,-2.5573,-2.7901,-2.9334,-3.0079,-3.1336,-3.2585,-3.3727,-3.3294,-3.4053,-3.5462,-3.5487,-3.5201,-3.4775,-1.5445,-1.6076,-1.6498,-1.6133,-1.5428,-1.5041,-1.5499,-1.5869,-1.6357,-1.7155,-1.9117,-2.1011,-2.2448,-2.3031,-2.3474,-2.3885,-2.4066,-2.4308,-2.4618,-2.3977,-2.3997,-2.4874,-2.3097,-2.2098,-2.2158,-2.0517,-1.9662,-1.971,-1.9739,-1.973,-1.971,-2.0089,-1.9941,-1.9369,-1.8998,-1.926,-2.0098,-2.059,-2.2312,-2.4871,-2.6859,-2.8144,-2.8871,-2.9699,-3.0007,-3.0168,-3.1397,-3.2198,-3.2764,-3.2607,-3.2554,-3.2424,-3.1824,-3.1329,-3.0823,-3.0482,-3.0216,-2.9845,-2.9153,-2.8597,-2.7972,-2.6928,-2.5332,-2.3646,-2.2475,-2.1119,-1.9702,-1.8344,-1.7553,-1.678,-1.5671,-1.4897,-1.415,-1.3228,-1.2129,-1.1082,-1.0156,-0.9826,-0.9856,-1.0325,-1.0991,-1.1528,-1.1802,-1.2303,-1.2942,-1.3746,-1.3965,-1.4827,-1.6565,-1.6523,-1.7125,-1.8542,-1.8473,-1.8666,-1.9178,-1.951,-1.9649,-1.9592,-2.0172,-2.0781,-2.1367,-2.213,-2.3125,-2.4385,-2.5801,-2.7208,-2.8636,-3.002,-3.1198,-3.2271,-3.292,-3.3773,-3.4717,-3.5109,-3.5041,-3.4775,-1.6151,-1.6947,-1.7591,-1.7693,-1.6643,-1.5751,-1.5663,-1.5803,-1.6084,-1.6535,-1.8573,-2.0435,-2.1725,-2.2776,-2.3482,-2.3849,-2.4055,-2.4211,-2.4318,-2.414,-2.4165,-2.4489,-2.3157,-2.2243,-2.1923,-2.0238,-1.9369,-1.9424,-1.9276,-1.8979,-1.8547,-1.9091,-1.8768,-1.7777,-1.7893,-1.8367,-1.9218,-2.0892,-2.3171,-2.5726,-2.7116,-2.8343,0.0,-2.9648,-3.0023,-3.0459,-3.1235,-3.1797,-3.2215,-3.2237,-3.2159,-3.194,-3.1408,-3.0958,-3.052,-3.0101,-2.9831,-2.956,-2.9091,-2.8538,-2.79,-2.712,-2.5758,-2.4211,-2.2713,-2.1222,-1.9792,-1.8483,-1.7119,-1.5968,-1.5235,-1.4315,-1.3325,-1.2311,-1.1107,-1.0081,-0.9421,-0.9148,-0.9185,-0.9567,-0.9917,-1.0308,-1.0731,-1.1421,-1.1979,-1.2351,-1.255,-1.3213,-1.4522,-1.4665,-1.5201,-1.6295,-1.6415,-1.6618,-1.6977,-1.7575,-1.783,-1.7731,-1.8578,-1.9071,-1.9344,-2.0428,-2.1471,-2.2453,-2.4108,-2.5741,-2.7353,-2.8846,-3.0204,-3.1412,-3.2727,-3.3586,-3.4244,-3.4607,-3.4604,-3.4457,-1.6874,-1.7808,-1.8854,-1.9608,-1.8789,-1.7598,-1.6374,-1.6153,-1.62,-1.6346,-1.7893,-1.9479,-2.0834,-2.2215,-2.3261,-2.3776,-2.4164,-2.4026,-2.3266,-2.39,-2.3722,-2.2365,-2.2002,-2.1446,-2.0541,-1.9056,-1.838,-1.8488,-1.818,-1.7831,-1.7454,-1.7698,-1.7395,-1.6637,-1.6774,-1.7372,-1.8476,-2.1669,-2.4177,-2.6077,-2.6967,-2.8356,-2.9843,-2.9583,-2.9928,-3.0557,-3.0558,-3.083,-3.1226,-3.1636,-3.1468,-3.1032,-3.0773,-3.0365,-2.9908,-2.9535,-2.9263,-2.9052,-2.887,-2.8331,-2.7589,-2.6724,-2.5917,-2.4671,-2.2008,-2.078,-1.9709,-1.8216,-1.6239,-1.4811,-1.4889,-1.3593,-1.2195,-1.1209,-1.035,-0.9719,-0.9383,-0.9052,-0.8985,-0.9381,-0.9448,0.0,-0.933,-1.0587,-1.1151,-1.0592,-1.1099,-1.1714,-1.2432,-1.2805,-1.3272,-1.3893,-1.4286,-1.4507,-1.4591,-1.54,-1.5804,-1.5895,-1.6812,-1.7207,-1.7171,-1.8913,-1.9887,-2.0352,-2.2514,-2.4426,-2.611,-2.781,-2.9476,-3.1129,-3.2592,-3.3479,-3.3911,-3.3974,-3.4014,-3.4014,-1.7338,-1.8951,-2.0085,-1.9497,-1.9843,-2.0018,-1.9313,-1.8188,-1.7502,-1.7775,-1.9651,-2.1216,-2.1947,-2.2754,-2.3298,-2.3409,-2.3519,-2.3627,-2.3667,-2.3397,-2.2527,-2.085,-2.0692,-2.0097,-1.902,-1.7917,-1.7233,-1.6978,-1.6636,-1.6178,-1.5579,-1.5806,-1.5438,-1.4612,-1.4798,-1.6279,-1.8762,-2.1005,-2.3585,-2.6153,-2.666,-2.7886,-2.9315,-2.9276,-2.945,-2.9753,-2.9897,-3.0379,-3.0902,-3.0377,-3.0306,-3.0348,-2.9835,-2.961,-2.9496,-2.9419,-2.9263,-2.9091,-2.9052,-2.8162,-2.712,-2.6609,-2.5542,-2.4233,-2.2854,-2.171,-2.0586,-1.9146,-1.7278,-1.5594,-1.4461,-1.2507,-1.0889,-1.0381,-0.9776,-0.9207,-0.8678,-0.8845,-0.9024,-0.9017,-0.9428,-0.964,-0.9398,-0.9972,-1.0181,-0.9751,-1.0226,-1.0562,-1.0647,-1.1187,-1.1582,-1.1839,-1.236,-1.2925,-1.3486,-1.3516,-1.3906,-1.462,-1.5246,-1.5757,-1.6181,-1.7298,-1.8344,-1.9371,-2.0526,-2.2251,-2.4471,-2.6532,-2.9047,-3.1661,-3.2579,-3.3149,-3.3431,-3.3433,-3.3592,-3.3767,-1.9309,-1.9992,-2.0566,-2.0594,-2.0663,-2.0689,-2.0661,-1.9997,-1.9184,-1.8354,-1.9843,-2.1144,-2.1621,-2.2831,-2.3556,-2.3446,-2.3409,-2.3313,-2.3091,-2.3038,-2.1425,-1.7918,-1.7121,-1.6829,-1.6987,-1.6264,-1.5714,-1.535,-1.5052,-1.4607,-1.408,-1.4396,-1.4138,-1.3489,-1.4877,-1.6625,-1.8715,-2.1349,-2.3716,-2.5765,-2.6616,-2.7691,-2.8754,-2.8534,-2.8826,-2.9325,-2.9227,-2.9447,-2.9766,-2.9543,-2.9564,-2.9594,-2.9204,-2.9106,-2.9067,-2.8949,-2.8816,-2.8585,-2.8412,-2.7663,-2.6745,-2.6055,-2.5221,-2.4277,-2.3171,-2.1927,-2.0684,-1.9354,-1.7388,-1.5303,-1.3373,-1.203,-1.095,-1.0075,-0.9581,-0.9152,-0.871,-0.8738,-0.8905,-0.921,-0.953,-0.9527,-0.9117,-0.9405,-0.9521,-0.9253,-0.9283,-0.932,-0.938,-0.977,-0.9895,-0.9656,-1.0204,-1.0636,-1.0958,-1.1068,-1.1626,-1.2611,-1.3196,-1.3835,-1.4474,-1.5675,-1.6631,-1.7464,-1.8921,-2.0718,-2.2839,-2.6085,-2.8765,-3.0882,-3.1484,-3.2204,-3.2853,-3.2567,-3.2814,-3.3292,-2.1202,-2.1025,-2.1043,-2.1864,-2.1434,-2.1101,-2.147,-2.1462,-2.0871,-1.9324,-2.0357,-2.1362,-2.1735,-2.3052,-2.38,-2.3509,-2.3305,-2.2818,-2.1919,-2.1074,-1.874,-1.4696,-1.3819,-1.3891,-1.4898,-1.4644,-1.4272,-1.3822,-1.3559,-1.3233,-1.2853,-1.3131,-1.3133,-1.3037,-1.5424,-1.7261,-1.8763,-2.1865,-2.4006,-2.541,-2.6527,-2.7486,-2.8134,-2.785,-2.8267,-2.8936,-2.8649,-2.8639,-2.8791,-2.8895,-2.8934,-2.8934,-2.8816,-2.8712,-2.8633,-2.8459,-2.8259,-2.798,-2.7669,-2.7027,-2.6239,-2.5367,-2.4702,-2.4006,-2.3019,-2.1732,-2.0446,-1.9203,-1.7026,-1.4603,-1.2323,-1.1684,-1.1115,-0.9793,-0.9397,-0.9107,-0.8772,-0.8652,-0.8786,-0.9293,-0.9423,-0.913,-0.8319,-0.8659,-0.8751,-0.8332,-0.8317,-0.8289,-0.817,-0.8517,-0.841,-0.7706,-0.8229,-0.8544,-0.8585,-0.8795,-0.9394,-1.0448,-1.1113,-1.1836,-1.2683,-1.4057,-1.4998,-1.5634,-1.7398,-1.945,-2.1849,-2.5722,-2.8165,-2.9579,-3.0141,-3.1097,-3.2156,-3.1757,-3.2189,-3.2992,-2.1819,-2.1934,-2.2176,-2.2622,-2.2439,-2.2255,-2.2286,-2.2402,-2.2301,-2.1888,-2.2653,-2.3427,-2.396,-2.4001,-2.377,-2.3183,-2.2739,-2.1818,-2.0236,-1.547,-1.2459,-1.1977,-1.2783,-1.3173,-1.3055,-1.3378,-1.323,-1.2575,-1.2359,-1.2172,-1.2021,-1.1864,-1.2343,-1.3429,-1.5541,-1.7437,-1.9202,-2.1896,-2.3891,-2.5395,-2.6297,-2.6954,-2.7411,-2.7548,-2.7849,-2.8211,-2.8299,-2.8548,-2.8752,-2.8419,-2.8419,-2.8538,-2.8538,-2.8379,-2.8259,-2.8219,-2.7938,-2.7539,-2.7239,-2.6223,-2.516,-2.4846,-2.3793,-2.2757,-2.2277,-2.1244,-2.0013,-1.8787,-1.6315,-1.3767,-1.1901,-1.1249,-1.0528,-0.9122,-0.8968,-0.8819,-0.8254,-0.862,-0.8841,-0.8554,-0.8842,-0.8333,-0.6535,-0.7355,-0.7453,-0.6116,-0.7329,-0.7732,-0.6831,-0.7446,-0.7349,-0.6309,-0.6969,-0.7405,-0.7547,-0.7326,-0.7673,-0.8564,-0.9225,-1.011,-1.114,-1.2452,-1.3642,-1.4748,-1.5683,-1.8341,-2.2246,-2.4957,-2.6801,-2.8019,-2.9164,-3.0227,-3.1147,-3.13,-3.2139,-3.317,-2.2763,-2.2524,-2.2482,-2.2787,-2.2515,-2.2422,-2.304,-2.3271,-2.3599,-2.4172,-2.4375,-2.4723,-2.5369,-2.5117,-2.4585,-2.3804,-2.21,-2.0231,-1.8401,-1.462,-1.2582,-1.292,-1.2995,-1.2989,-1.2917,-1.2767,-1.2467,-1.2032,-1.1785,-1.1404,-1.0902,-1.1686,-1.3127,-1.5118,-1.7465,-1.9383,-2.104,-2.2962,-2.4453,-2.5481,-2.5775,-2.6038,-2.6292,-2.6507,-2.6986,-2.7533,-2.7454,-2.7893,-2.8419,-2.8099,-2.8139,-2.8299,-2.8203,-2.8082,-2.8042,-2.8042,-2.7696,-2.7204,-2.6589,-2.5675,-2.4815,-2.4348,-2.3431,-2.2579,-2.2152,-2.1031,-1.9723,-1.8533,-1.6154,-1.3784,-1.2116,-1.1487,-1.0826,-0.9547,-0.9225,-0.898,-0.8567,-0.8671,-0.8592,-0.8157,-0.7996,-0.7375,-0.5981,-0.6292,-0.6097,-0.4956,-0.643,-0.6967,-0.6039,-0.6357,-0.6206,-0.5421,-0.5517,-0.572,-0.6026,-0.5684,-0.5956,-0.6855,-0.7622,-0.8603,-0.9785,-1.0852,-1.2508,-1.4637,-1.6161,-1.8513,-2.144,-2.3912,-2.5725,-2.6934,-2.8031,-2.9095,-3.0153,-3.071,-3.1493,-3.2361,-2.349,-2.2914,-2.2653,-2.3199,-2.278,-2.2703,-2.361,-2.3923,-2.4577,-2.5915,-2.5923,-2.5996,-2.6524,-2.6096,-2.535,-2.4386,-2.1809,-1.9487,-1.7874,-1.5374,-1.4106,-1.4492,-1.3825,-1.3403,-1.342,-1.2987,-1.2592,-1.2298,-1.214,-1.1757,-1.1181,-1.2974,-1.4841,-1.6802,-1.9407,-2.1234,-2.2377,-2.4106,-2.5033,-2.5319,-2.5578,-2.5546,-2.5387,-2.5627,-2.6153,-2.6671,-2.6545,-2.6984,-2.7582,-2.7445,-2.7539,-2.7713,-2.7736,-2.776,-2.7719,-2.7719,-2.733,-2.6775,-2.6085,-2.5266,-2.442,-2.3913,-2.3003,-2.2179,-2.1947,-2.071,-1.9211,-1.7713,-1.5785,-1.3899,-1.2452,-1.1768,-1.1007,-0.9729,-0.9356,-0.9017,-0.8553,-0.8329,-0.8027,-0.7495,-0.6949,-0.6142,-0.4973,-0.509,-0.4813,-0.3853,-0.5128,-0.5686,-0.5084,-0.527,-0.5118,-0.4494,-0.4436,-0.4491,-0.464,-0.4354,-0.4634,-0.5412,-0.62,-0.719,-0.8391,-0.9834,-1.1803,-1.4221,-1.6433,-1.8475,-2.0431,-2.2856,-2.4591,-2.5796,-2.6834,-2.8086,-2.9288,-3.0163,-3.1034,-3.1942,-2.3904,-2.315,-2.2782,-2.3983,-2.3568,-2.3335,-2.3985,-2.4308,-2.5168,-2.7037,-2.7411,-2.7461,-2.7492,-2.6765,-2.5839,-2.4693,-2.2039,-2.0009,-1.9108,-1.7256,-1.6151,-1.6159,-1.5216,-1.461,-1.4385,-1.4173,-1.3867,-1.3484,-1.3562,-1.3492,-1.3433,-1.5954,-1.7481,-1.8204,-2.1156,-2.2528,-2.2763,-2.5166,-2.5579,-2.4721,-2.5895,-2.5747,-2.4842,-2.5177,-2.5385,-2.553,-2.5493,-2.5769,-2.6149,-2.6211,-2.635,-2.6652,-2.7307,-2.7348,-2.7226,-2.7226,-2.6757,-2.6143,-2.5796,-2.4837,-2.3849,-2.3653,-2.2336,-2.1224,-2.1627,-2.0303,-1.8398,-1.6265,-1.4965,-1.3884,-1.2788,-1.1889,-1.0814,-0.9354,-0.9163,-0.8851,-0.7872,-0.7477,-0.7068,-0.6406,-0.5655,-0.4593,-0.2989,-0.3617,-0.3667,-0.2609,-0.329,-0.3728,-0.3734,-0.4239,-0.4213,-0.355,-0.3969,-0.3975,-0.3524,-0.3594,-0.3806,-0.423,-0.4958,-0.5832,-0.6924,-0.9513,-1.1578,-1.3254,-1.602,-1.7947,-1.9319,-2.1802,-2.3374,-2.4337,-2.5701,-2.7154,-2.8643,-2.9768,-3.1011,-3.2165,-2.3514,-2.3294,-2.3219,-2.3396,-2.3616,-2.3956,-2.4478,-2.5346,-2.6324,-2.7448,-2.8394,-2.9051,-2.9258,-2.7892,-2.6664,-2.5839,-2.3688,-2.2046,-2.1194,-1.9918,-1.8922,-1.8354,-1.7666,-1.6977,-1.6315,-1.614,-1.5842,-1.5398,-1.5484,-1.5851,-1.6523,-1.8497,-2.0181,-2.1538,-2.3806,-2.5079,-2.5553,-2.6181,-2.5906,-2.5128,-2.4846,-2.4396,-2.3898,-2.4271,-2.4611,-2.4981,-2.5287,-2.5581,-2.5874,-2.5782,-2.5795,-2.5821,-2.5737,-2.6113,-2.6487,-2.6343,-2.6135,-2.5837,-2.526,-2.4483,-2.3755,-2.3481,-2.2237,-2.1104,-2.1203,-1.9515,-1.7507,-1.6013,-1.4792,-1.3705,-1.271,-1.1964,-1.1271,-1.058,-1.0024,-0.9439,-0.8743,-0.8093,-0.7138,-0.565,-0.4702,-0.3686,-0.2437,-0.2325,-0.2109,-0.1577,-0.2201,-0.2843,-0.334,-0.3576,-0.3609,-0.3424,-0.3266,0.0,-0.2966,-0.2892,-0.2805,-0.2707,-0.3778,-0.5143,-0.678,-0.8547,-1.0471,-1.2555,-1.5119,-1.7338,-1.9265,-2.1116,-2.2655,-2.3828,-2.4896,-2.6194,-2.7683,-2.9452,-3.0759,-3.1783,-2.3111,-2.3052,-2.309,-2.311,-2.3603,-2.4192,-2.485,-2.5993,-2.7145,-2.814,-2.9232,-3.0104,-3.051,-2.9229,-2.79,-2.6755,-2.5147,-2.3761,-2.285,-2.1843,-2.1142,-2.0657,-2.0119,-1.9566,-1.901,-1.8823,-1.848,-1.7961,-1.8277,-1.8952,-1.9949,-2.1557,-2.2923,-2.4168,-2.5691,-2.6474,-2.6665,-2.6518,-2.5942,-2.5016,-2.4304,-2.3694,-2.3306,-2.356,-2.3817,-2.413,-2.4524,-2.478,-2.4945,-2.4993,-2.5062,-2.5041,-2.4615,-2.4935,-2.5443,-2.5506,-2.5506,-2.5399,-2.4821,-2.4004,-2.3259,-2.2995,-2.1852,-2.0618,-2.0058,-1.8394,-1.6692,-1.5647,-1.446,-1.3429,-1.2775,-1.2058,-1.1496,-1.1152,-1.0494,-0.9743,-0.9023,-0.8018,-0.6699,-0.4927,-0.3712,-0.2688,-0.1847,-0.1327,-0.1052,-0.107,-0.1345,-0.1801,-0.2381,-0.2696,-0.2772,-0.2601,-0.2493,-0.2296,-0.2014,-0.1933,-0.1871,-0.1816,-0.3027,-0.4466,-0.61,-0.7433,-0.9311,-1.1635,-1.4248,-1.6524,-1.8554,-2.0469,-2.1912,-2.2986,-2.4053,-2.5423,-2.6918,-2.8668,-3.0119,-3.1389,-2.2726,-2.2479,-2.2482,-2.2975,-2.3488,-2.4163,-2.5159,-2.6386,-2.7707,-2.9125,-2.9943,-3.0653,-3.1276,-3.0598,-2.9348,-2.7556,-2.6385,-2.5246,-2.4123,-2.3231,-2.2831,-2.3043,-2.2538,-2.2216,-2.2164,-2.1895,-2.1528,-2.0962,-2.1684,-2.2526,-2.3501,-2.4839,-2.5629,-2.6028,-2.6865,-2.6907,-2.637,-2.6373,-2.5671,-2.4469,-2.4114,-2.3589,-2.3058,-2.305,-2.3036,-2.3029,-2.3515,-2.3563,-2.3489,-2.3888,-2.4178,-2.4315,-2.3841,-2.3884,-2.4143,-2.4658,-2.4807,-2.4724,-2.4388,-2.3371,-2.2413,-2.2308,-2.1185,-1.9705,-1.829,-1.7095,-1.5999,-1.5155,-1.3966,-1.306,-1.2868,-1.2177,-1.1489,-1.1151,-1.058,-0.9809,-0.8714,-0.728,-0.5784,-0.4233,-0.279,-0.1713,-0.1258,-0.0662,-0.049,-0.0936,-0.0722,-0.0705,-0.1008,-0.1658,-0.1804,-0.1311,-0.1732,-0.1618,-0.0892,-0.0865,-0.1051,-0.144,-0.2609,-0.3779,-0.4938,-0.6312,-0.8226,-1.0663,-1.3429,-1.5655,-1.7473,-1.983,-2.1212,-2.1978,-2.3246,-2.4751,-2.6406,-2.764,-2.9314,-3.1128,-2.1934,-2.1777,-2.1846,-2.2586,-2.3492,-2.4587,-2.6048,-2.7512,-2.8904,-3.0112,-3.0824,-3.1331,-3.1655,-3.0742,-2.9635,-2.8454,-2.7483,-2.6522,-2.5656,-2.5352,-2.5126,-2.4807,-2.4647,-2.4293,-2.3612,-2.3636,-2.3568,-2.3447,-2.4095,-2.4572,-2.4935,-2.6356,-2.6948,-2.6897,-2.74,-2.7341,-2.6955,-2.639,-2.5527,-2.4443,-2.3884,-2.3221,-2.2639,-2.2537,-2.2488,-2.2622,-2.326,-2.3261,-2.3002,-2.3248,-2.3284,-2.3144,-2.2838,-2.2794,-2.2969,-2.3624,-2.382,-2.3737,-2.3311,-2.2591,-2.1838,-2.1288,-1.9982,-1.8487,-1.7237,-1.6412,-1.5643,-1.458,-1.3688,-1.2917,-1.2382,-1.1994,-1.1612,-1.1151,-1.0419,-0.9495,-0.8313,-0.6877,-0.5357,-0.3744,-0.2683,-0.1813,-0.1267,-0.0649,-0.0444,-0.0747,-0.0478,-0.0333,-0.0421,-0.0994,-0.1336,-0.1296,-0.1456,-0.1225,-0.0595,-0.0585,-0.0667,-0.0822,-0.1365,-0.2433,-0.3967,-0.5542,-0.7785,-1.0629,-1.2981,-1.5243,-1.7439,-1.9069,-2.0375,-2.1491,-2.2586,-2.4294,-2.6208,-2.7436,-2.9333,-3.1343,-2.1447,-2.1431,-2.1659,-2.2439,-2.3463,-2.4669,-2.6355,-2.7909,-2.9215,-3.0126,-3.0839,-3.1196,-3.0978,-3.034,-2.9446,-2.8328,-2.7677,-2.697,-2.6234,-2.6206,-2.6171,-2.6038,-2.6035,-2.5865,-2.544,-2.5517,-2.5454,-2.5317,-2.5854,-2.6129,-2.6145,-2.6972,-2.7313,-2.7273,-2.7064,-2.6765,-2.6317,-2.5568,-2.4792,-2.4004,-2.33,-2.2799,-2.2418,-2.2241,-2.2067,-2.2045,-2.2947,-2.2961,-2.2571,-2.2852,-2.275,-2.2378,-2.1891,-2.1629,-2.1607,-2.1924,-2.2334,-2.258,-2.2113,-2.1429,-2.0625,-1.9817,-1.8417,-1.7083,-1.6353,-1.5579,-1.4747,-1.3734,-1.3063,-1.2485,-1.1809,-1.1562,-1.1252,-1.0581,-0.9584,-0.8515,-0.7472,-0.586,-0.4343,-0.3138,-0.2304,-0.163,-0.1141,-0.0688,-0.0502,-0.0692,-0.0385,-0.0205,-0.0205,-0.0723,-0.096,-0.0901,-0.1075,-0.087,-0.0285,0.0052,0.024,0.0225,-0.0343,-0.1427,-0.3017,-0.4721,-0.7118,-1.0031,-1.2409,-1.4631,-1.6757,-1.8404,-1.9643,-2.057,-2.175,-2.358,-2.565,-2.6626,-2.8721,-3.1031,-2.0942,-2.1017,-2.1354,-2.2195,-2.3179,-2.4466,-2.6298,-2.7767,-2.8925,-2.9669,-3.0344,-3.0549,-3.0027,-2.9606,-2.8931,-2.7858,-2.7416,-2.6939,-2.6342,-2.634,-2.6474,-2.6794,-2.682,-2.6873,-2.7003,-2.7029,-2.6896,-2.663,-2.7049,-2.7145,-2.6976,-2.7118,-2.7179,-2.7171,-2.6334,-2.5716,-2.5329,-2.4529,-2.3978,-2.3543,-2.2787,-2.2423,-2.2278,-2.2049,-2.1702,-2.1523,-2.2627,-2.2554,-2.2038,-2.2409,-2.2196,-2.1603,-2.0953,-2.0501,-2.0202,-2.0058,-2.0497,-2.0953,-2.0827,-2.0038,-1.9087,-1.8095,-1.675,-1.5675,-1.5458,-1.4668,-1.37,-1.2891,-1.2385,-1.1924,-1.1324,-1.1045,-1.0595,-0.9654,-0.8426,-0.7248,-0.6304,-0.4629,-0.3232,-0.253,-0.1958,-0.1499,-0.1221,-0.0933,-0.0745,-0.0751,-0.0436,-0.0218,-0.0187,-0.0574,-0.0672,-0.0368,-0.0676,-0.0527,0.0131,0.0838,0.1197,0.1215,0.0477,-0.0642,-0.2164,-0.4102,-0.6534,-0.9337,-1.1921,-1.4103,-1.596,-1.7783,-1.8981,-1.9766,-2.102,-2.2949,-2.5101,-2.5882,-2.7989,-3.0551,-1.9659,-1.9616,-2.0008,-2.0976,-2.2272,-2.3913,-2.6099,-2.706,-2.8042,-2.9451,-2.9627,-2.9711,-2.9807,-2.9002,-2.8323,-2.8154,-2.72,-2.6533,-2.6313,-2.6392,-2.6551,-2.6794,-2.682,-2.6873,-2.7003,-2.7237,-2.7258,-2.7104,-2.7401,-2.7283,-2.6805,-2.6984,-2.6776,-2.6246,-2.5629,-2.5312,-2.518,-2.4442,-2.3979,-2.3725,-2.3065,-2.2431,-2.1884,-2.1788,-2.1489,-2.1263,-2.223,-2.1825,-2.0816,-2.1286,-2.0851,-2.0016,-1.9768,-1.9318,-1.8929,-1.8755,-1.8338,-1.8197,-1.941,-1.8649,-1.7277,-1.6495,-1.5457,-1.4645,-1.433,-1.3699,-1.31,-1.2845,-1.2144,-1.1532,-1.1267,-1.0541,-0.9681,-0.8759,-0.7438,-0.61,-0.4824,-0.3691,-0.2804,-0.2302,-0.2158,-0.2059,-0.2026,-0.1657,-0.1326,-0.1061,-0.0683,-0.0321,-0.0032,-0.0218,-0.0272,-0.0234,-0.0455,-0.0125,0.0751,0.1326,0.1521,0.1375,0.0945,-0.011,-0.1773,-0.4228,-0.6733,-0.9337,-1.1935,-1.4227,-1.6141,-1.7232,-1.8557,-2.0034,-2.1138,-2.2975,-2.5142,-2.6396,-2.8267,-3.0275,-1.9401,-1.9336,-1.9674,-2.0502,-2.1804,-2.3434,-2.561,-2.658,-2.748,-2.8537,-2.8596,-2.8476,-2.8386,-2.785,-2.7463,-2.7384,-2.6936,-2.6633,-2.658,-2.6525,-2.6578,-2.6794,-2.6873,-2.7003,-2.7211,-2.7339,-2.7487,-2.7682,-2.7227,-2.6999,-2.6996,-2.6318,-2.5789,-2.5328,-2.4632,-2.4101,-2.3702,-2.324,-2.2967,-2.285,-2.2461,-2.1998,-2.1592,-2.18,-2.1388,-2.0818,-2.1648,-2.1205,-2.0194,-2.0425,-1.9704,-1.8617,-1.8441,-1.783,-1.7195,-1.7143,-1.6965,-1.6921,-1.7674,-1.6728,-1.5502,-1.5461,-1.4307,-1.3207,-1.3118,-1.2608,-1.2069,-1.1803,-1.1414,-1.0966,-1.0234,-0.9514,-0.8673,-0.7522,-0.5916,-0.4565,-0.3911,-0.2918,-0.2256,-0.2262,-0.2489,-0.2516,-0.2276,-0.2073,-0.1716,-0.1143,-0.0731,-0.0363,-0.0033,0.0064,0.0125,0.0121,0.0,0.0319,0.1152,0.1727,0.1906,0.1665,0.1472,0.0405,-0.1524,-0.4111,-0.6661,-0.9198,-1.1914,-1.4047,-1.5697,-1.6874,-1.7985,-1.9149,-2.081,-2.25,-2.4287,-2.5854,-2.7741,-2.9614,-1.9373,-1.9181,-1.9401,-2.0234,-2.1448,-2.2927,-2.4869,-2.5872,-2.6609,-2.7151,-2.7151,-2.7002,-2.685,-2.6762,-2.6743,-2.6785,-2.6922,-2.7,-2.7026,-2.6841,-2.6788,-2.6846,-2.7003,-2.7211,-2.7416,-2.7386,-2.7547,-2.7892,-2.6968,-2.6605,-2.6823,-2.5598,-2.4834,-2.4425,-2.3748,-2.3137,-2.2643,-2.241,-2.2317,-2.2288,-2.2115,-2.1789,-2.1421,-2.1846,-2.1293,-2.0416,-2.1211,-2.0692,-1.9602,-1.9686,-1.8709,-1.7479,-1.7246,-1.6515,-1.5763,-1.579,-1.5804,-1.5833,-1.6142,-1.5277,-1.4348,-1.4612,-1.341,-1.2147,-1.2147,-1.1617,-1.1053,-1.0773,-1.0545,-1.0125,-0.9263,-0.8473,-0.7558,-0.6413,0.0,-0.3421,-0.3275,-0.2501,-0.2068,-0.2385,-0.2798,-0.2887,-0.2532,-0.2345,-0.1939,-0.1213,-0.074,-0.0303,0.0168,0.0425,0.0662,0.0873,0.0699,0.0902,0.1614,0.2178,0.2294,0.195,0.187,0.0713,-0.1506,-0.4215,-0.6793,-0.9302,-1.2122,-1.4104,-1.5507,-1.671,-1.762,-1.8446,-2.0432,-2.2086,-2.3569,-2.5353,-2.7212,-2.904,-1.9202,-1.8686,-1.885,-1.9995,-2.1019,-2.2213,-2.3878,-2.4589,-2.5023,-2.5177,-2.5226,-2.5329,-2.5686,-2.5991,-2.6428,-2.7097,-2.7382,-2.7615,-2.7715,-2.7615,-2.7361,-2.7003,-2.7237,-2.7391,-2.7386,-2.7386,-2.7365,-2.7266,-2.6765,-2.626,-2.58,-2.4962,-2.4218,-2.365,-2.3175,-2.3005,-2.3045,-2.3045,-2.2955,-2.2859,-2.2829,-2.2187,-2.1261,-2.1778,-2.1167,-2.0163,-2.1133,-2.0301,-1.8803,-1.8988,-1.7987,-1.6649,-1.6392,-1.582,-1.5203,-1.5057,-1.4478,-1.4127,-1.5127,-1.504,-1.45,-1.3812,-1.2805,-1.1992,-1.1778,-1.0995,-1.0324,-1.0512,-0.9585,-0.8794,-0.8836,-0.7566,-0.6342,-0.5774,0.0,0.0,-0.2895,-0.2771,-0.2729,-0.2764,-0.301,-0.3139,-0.3054,-0.2417,-0.1803,-0.1314,-0.0807,-0.0134,0.0706,0.0883,0.1392,0.2313,0.1728,0.1676,0.2223,0.2705,0.266,0.2089,0.2017,0.0678,-0.1874,-0.4789,-0.7513,-1.0065,-1.2842,-1.4808,-1.6097,-1.6897,-1.7828,-1.8891,-2.035,-2.2001,-2.3807,-2.561,-2.7263,-2.8782,-2.0611,-1.9913,-1.9653,-2.0076,-2.1169,-2.2127,-2.2613,-2.3428,-2.4011,-2.4058,-2.3924,-2.4194,-2.5133,-2.5549,-2.609,-2.6808,-2.7331,-2.7665,-2.779,-2.7765,-2.7615,-2.7386,-2.7386,-2.7386,-2.7386,-2.7386,-2.7414,-2.7372,-2.6619,-2.5879,-2.5188,-2.4276,-2.3311,-2.2318,-2.2355,-2.2184,-2.1803,-2.2061,-2.2119,-2.2084,-2.1874,-2.1547,-2.1238,-2.1397,-2.093,-2.0262,-2.0554,-1.9808,-1.8692,-1.8429,-1.7236,-1.5836,-1.5752,-1.5163,-1.4455,-1.4071,-1.3681,-1.3386,-1.3597,-1.348,-1.3156,-1.2733,-1.1892,-1.1068,-1.0506,-1.0014,-0.9456,-0.8768,-0.8371,-0.7861,-0.7072,-0.628,-0.5499,-0.4886,0.0,-0.3052,-0.3157,-0.3015,-0.3013,-0.3196,-0.3053,-0.2931,-0.2844,-0.2154,-0.134,-0.0539,-0.0201,0.037,0.1244,0.1894,0.2681,0.3657,0.3634,0.3414,0.2996,0.3286,0.3129,0.253,0.2083,0.0572,-0.1896,-0.4858,-0.7474,-0.9811,-1.2799,-1.4496,-1.5271,-1.681,-1.7572,-1.8029,-2.0401,-2.2001,-2.3213,-2.5237,-2.6995,-2.8521,-2.222,-2.1356,-2.0878,-2.1118,-2.1772,-2.2405,-2.2711,-2.3303,-2.3633,-2.3606,-2.3499,-2.3822,-2.4871,-2.5343,-2.5962,-2.6834,-2.7408,-2.7815,-2.8039,-2.8088,-2.7965,-2.769,-2.7488,-2.7386,-2.7386,-2.7207,-2.7153,-2.7187,-2.6098,-2.5245,-2.4553,-2.3517,-2.2407,-2.1381,-2.1523,-2.1369,-2.1083,-2.1271,-2.1536,-2.1765,-2.1408,-2.1253,-2.1183,-2.1041,-2.0711,-2.0237,-1.9905,-1.9257,-1.8479,-1.7894,-1.666,-1.5394,-1.5394,-1.4699,-1.3786,-1.3307,-1.3047,-1.2766,-1.2287,-1.2112,-1.206,-1.2013,-1.1228,-1.0289,-0.9733,-0.9078,-0.8388,-0.7527,-0.7204,-0.6803,-0.5851,-0.533,-0.4854,-0.4367,-0.3566,-0.3122,-0.3405,-0.3121,-0.2985,-0.3209,-0.2641,-0.2192,-0.2122,-0.1384,-0.0571,0.0202,0.0604,0.1204,0.2156,0.2998,0.3841,0.4716,0.5039,0.4961,0.4503,0.4338,0.3972,0.3375,0.2534,0.0819,-0.164,-0.4659,-0.7274,-0.9638,-1.2477,-1.4093,-1.4824,-1.6399,-1.7136,-1.7532,-2.0015,-2.1716,-2.2948,-2.4868,-2.6706,-2.839,-2.3836,-2.2827,-2.2405,-2.3252,-2.2928,-2.305,-2.4472,-2.4311,-2.4014,-2.3932,-2.4041,-2.4313,-2.4954,-2.5369,-2.609,-2.7276,-2.7771,-2.8162,-2.8573,-2.8637,-2.8422,-2.784,-2.7539,-2.7386,-2.7386,-2.6814,-2.6496,-2.6496,-2.5101,-2.4232,-2.3851,-2.2501,-2.1582,-2.1075,-2.0615,-2.0699,-2.12,-2.099,-2.1419,-2.2166,-2.1831,-2.1494,-2.1152,-2.0875,-2.0469,-1.9889,-1.9258,-1.871,-1.8204,-1.735,-1.6348,-1.5394,-1.5394,-1.4475,-1.3307,-1.2839,-1.2583,-1.2198,-1.1262,-1.1165,-1.137,-1.1628,-1.0809,-0.9854,-0.9646,-0.8281,-0.7092,-0.7098,-0.6243,-0.547,-0.5393,-0.4849,-0.439,-0.4322,-0.3852,-0.3499,-0.3499,-0.3016,-0.2684,-0.2684,-0.1621,-0.0884,-0.0878,-0.0036,0.0606,0.081,0.151,0.2384,0.3471,0.4089,0.4747,0.5497,0.5703,0.6154,0.6906,0.598,0.5242,0.4677,0.3399,0.1474,-0.1107,-0.4198,-0.7107,-0.9823,-1.1952,-1.3659,-1.4935,-1.5548,-1.6468,-1.763,-1.9119,-2.0987,-2.3061,-2.4543,-2.6415,-2.837,-2.6594,-2.5625,-2.4842,-2.4686,-2.5202,-2.5485,-2.5052,-2.5058,-2.5012,-2.4661,-2.4377,-2.4626,-2.5564,-2.5975,-2.654,-2.7479,-2.7915,-2.8308,-2.8723,-2.8668,-2.8549,-2.8381,-2.8014,-2.7505,-2.6852,-2.6293,-2.5577,-2.4739,-2.4003,-2.3097,-2.2062,-2.1479,-2.069,-1.9778,-2.0165,-2.0363,-2.0464,-2.0919,-2.1189,-2.1265,-2.0914,-2.0635,-2.0377,-2.0074,-1.9881,-1.969,-1.8986,-1.8545,-1.8174,-1.7383,-1.6565,-1.5782,-1.5117,-1.4097,-1.3137,-1.3009,-1.2454,-1.1823,-1.1338,-1.1165,-1.1046,-1.0766,-1.0138,-0.9334,-0.8511,-0.7621,-0.6703,-0.5791,-0.5383,-0.502,-0.4622,-0.4327,-0.4005,-0.3671,-0.3342,-0.3067,-0.2769,-0.2181,-0.1776,-0.1776,-0.0798,0.0,0.0255,0.1002,0.1779,0.2421,0.3184,0.3931,0.4726,0.5016,0.552,0.6257,0.6645,0.7047,0.7461,0.6385,0.5583,0.5038,0.3339,0.1283,-0.1107,-0.3914,-0.6713,-0.9468,-1.1837,-1.3351,-1.4327,-1.5739,-1.648,-1.6873,-1.9079,-2.0694,-2.2083,-2.4429,-2.6231,-2.7753,-2.8856,-2.8101,-2.7433,-2.7053,-2.7294,-2.7343,-2.6695,-2.6494,-2.6314,-2.6006,-2.5806,-2.5933,-2.6599,-2.6852,-2.718,-2.7705,-2.8088,-2.8288,-2.8248,-2.852,-2.8568,-2.8342,-2.7957,-2.7364,-2.6553,-2.5592,-2.4668,-2.3819,-2.3061,-2.2141,-2.1145,-2.0678,-1.9953,-1.9049,-1.9582,-1.9848,-1.9942,-2.0473,-2.0773,-2.086,-2.0529,-2.0302,-2.0031,-1.9627,-1.9557,-1.9589,-1.8684,-1.8395,-1.8246,-1.7293,-1.6469,-1.5658,-1.4741,-1.3857,-1.3094,-1.3094,-1.2509,-1.1736,-1.1295,-1.1079,-1.0862,-1.0342,-0.9675,-0.8948,-0.7946,-0.7064,-0.62,-0.5437,-0.4964,-0.4537,-0.4011,-0.3867,-0.3623,-0.3102,-0.2698,-0.2366,-0.2113,-0.1149,-0.0498,-0.0498,0.0569,0.1382,0.1604,0.2202,0.2968,0.3956,0.4649,0.5281,0.585,0.6074,0.6401,0.6869,0.7262,0.7503,0.7622,0.6709,0.5971,0.543,0.3604,0.1468,-0.1011,-0.3605,-0.6302,-0.9124,-1.1175,-1.2604,-1.3634,-1.4888,-1.5615,-1.6185,-1.8324,-2.0056,-2.159,-2.3956,-2.584,-2.7442,-3.095,-3.0508,-3.0167,-3.0029,-2.9431,-2.9024,-2.9195,-2.8554,-2.8004,-2.793,-2.7936,-2.7905,-2.7868,-2.7887,-2.7911,-2.7947,-2.8198,-2.8066,-2.7466,-2.821,-2.8443,-2.7901,-2.7434,-2.6876,-2.6247,-2.4776,-2.3837,-2.345,-2.224,-2.1329,-2.0777,-2.0089,-1.9396,-1.8783,-1.9044,-1.9304,-1.9565,-1.9809,-2.0263,-2.0764,-2.0432,-2.015,-1.9901,-1.9396,-1.9367,-1.941,-1.8347,-1.8193,-1.8344,-1.717,-1.6162,-1.5228,-1.4419,-1.3659,-1.3094,-1.3094,-1.2595,-1.1909,-1.1198,-1.1025,-1.0809,-1.0096,-0.941,-0.8713,-0.7826,-0.6623,-0.5692,-0.5669,-0.4964,-0.4186,-0.3627,-0.3523,-0.33,-0.2586,-0.1952,-0.1489,-0.1376,0.0,0.1057,0.1096,0.2297,0.3101,0.3136,0.3542,0.4267,0.5385,0.5906,0.6406,0.6911,0.7161,0.7328,0.7381,0.7607,0.7645,0.7468,0.6867,0.6285,0.5727,0.4029,0.1813,-0.0892,-0.328,-0.5916,-0.8731,-1.0231,-1.1644,-1.2936,-1.3459,-1.4332,-1.5498,-1.7246,-1.9223,-2.1385,-2.3299,-2.5295,-2.7282,-3.4336,-3.3935,-3.3337,-3.2282,-3.2774,-3.2863,-3.1746,-3.1103,-3.0697,-3.0526,-2.9658,-2.9057,-2.9011,-2.834,-2.7875,-2.7791,-2.7651,-2.7596,-2.7581,-2.7752,-2.7806,-2.7673,-2.6214,-2.5274,-2.4993,-2.4388,-2.3455,-2.218,-2.1507,-2.0754,-2.0039,-1.9679,-1.921,-1.8649,-1.9223,-1.9392,-1.9254,-1.9689,-1.9901,-1.9857,-1.9648,-1.9264,-1.8831,-1.8717,-1.8542,-1.8287,-1.7812,-1.7734,-1.7774,-1.699,-1.6011,-1.5075,-1.4699,-1.3899,-1.3094,-1.3094,-1.2711,-1.2155,-1.1413,-1.1111,-1.0725,-0.953,-0.9225,-0.8982,-0.7964,-0.6804,-0.5795,-0.524,-0.5008,-0.4603,-0.3742,-0.3513,-0.3099,-0.1844,-0.1355,-0.0765,0.0236,0.1254,0.2155,0.2774,0.356,0.4254,0.4798,0.5274,0.5911,0.6728,0.6883,0.7226,0.7865,0.804,0.816,0.8168,0.8026,0.7706,0.7259,0.6614,0.5973,0.5311,0.3456,0.1415,-0.0889,-0.3078,-0.5612,-0.8337,-1.0084,-1.1292,-1.2171,-1.3621,-1.4539,-1.5219,-1.7103,-1.8794,-2.0526,-2.3047,-2.4861,-2.6507,-3.6149,-3.5869,-3.5394,-3.4495,-3.4725,-3.4712,-3.3638,-3.3259,-3.276,-3.188,-3.1141,-3.0402,-2.9694,-2.8698,-2.7677,-2.6598,-2.6688,-2.6704,-2.6486,-2.6809,-2.684,-2.6456,-2.5243,-2.4252,-2.3604,-2.3341,-2.2608,-2.1379,-2.0713,-2.0082,-1.946,-1.9427,-1.9158,-1.8726,-1.931,-1.9417,-1.9134,-1.9693,-1.978,-1.9583,-1.9218,-1.8852,-1.8482,-1.8313,-1.8213,-1.81,-1.7859,-1.7594,-1.7327,-1.6766,-1.576,-1.4641,-1.4196,-1.3387,-1.2542,-1.2462,-1.2186,-1.1757,-1.1111,-1.0895,-1.0605,-0.968,-0.9318,-0.8897,-0.7938,-0.7096,-0.6307,-0.5515,-0.5142,-0.4652,-0.3496,-0.3216,-0.2715,-0.1309,-0.0453,0.0442,0.1492,0.2738,0.3752,0.4375,0.486,0.531,0.5747,0.6165,0.673,0.7521,0.7739,0.8101,0.8722,0.8819,0.8639,0.8217,0.8097,0.7551,0.6507,0.5888,0.5044,0.3939,0.2698,0.0945,-0.1283,-0.3303,-0.5679,-0.8263,-0.9476,-1.0605,-1.1721,-1.2635,-1.3521,-1.4477,-1.6484,-1.8145,-1.9738,-2.2371,-2.4575,-2.664,-3.733,-3.718,-3.6933,-3.6391,-3.6178,-3.5879,-3.519,-3.487,-3.424,-3.2832,-3.2286,-3.1428,-2.9987,-2.8716,-2.7251,-2.5456,-2.5746,-2.5816,-2.5234,-2.5843,-2.5927,-2.5234,-2.4438,-2.3578,-2.2578,-2.206,-2.1499,-2.0882,-2.0247,-1.9673,-1.9257,-1.9354,-1.9184,-1.886,-1.9367,-1.9417,-1.9164,-1.9661,-1.9714,-1.9483,-1.8985,-1.8583,-1.8313,-1.8008,-1.7981,-1.8048,-1.7935,-1.7575,-1.7,-1.6365,-1.5268,-1.4035,-1.3355,-1.2541,-1.182,-1.1634,-1.1456,-1.1251,-1.0733,-1.0623,-1.0556,-1.0091,-0.9518,-0.8836,-0.7982,-0.7462,-0.6889,-0.5891,-0.5408,-0.4652,-0.3179,-0.2774,-0.2241,-0.0844,0.0454,0.1608,0.2538,0.4094,0.5306,0.5822,0.6211,0.6449,0.6414,0.6708,0.7254,0.8123,0.8484,0.8897,0.9426,0.9309,0.8842,0.7973,0.7847,0.7041,0.554,0.498,0.3934,0.2423,0.1743,0.029,-0.1875,-0.3744,-0.5919,-0.8198,-0.8884,-1.0016,-1.1313,-1.154,-1.2375,-1.3768,-1.5884,-1.7637,-1.9272,-2.2067,-2.4684,-2.7036,-3.8988,-3.8856,-3.8493,-3.7536,-3.7723,-3.7624,-3.6432,-3.5421,-3.4619,-3.4156,-3.2616,-3.1162,-3.0075,-2.7938,-2.6322,-2.5675,-2.5481,-2.5382,-2.529,-2.5404,-2.5404,-2.529,-2.3779,-2.2855,-2.2682,-2.1003,-2.0344,-2.0809,-2.0812,-2.0492,-1.9864,-1.9527,-1.9237,-1.8994,-1.9396,-1.9529,-1.9358,-1.9565,-1.9462,-1.9131,-1.8717,-1.8178,-1.7632,-1.7564,-1.7361,-1.7127,-1.744,-1.7359,-1.6887,-1.5615,-1.4469,-1.3383,-1.2475,-1.1694,-1.1119,-1.1109,-1.1316,-1.142,-1.0773,-1.0787,-1.08,-1.0173,-0.9628,-0.9131,-0.8599,-0.7982,-0.7196,-0.5963,-0.563,-0.5053,-0.3224,-0.2554,-0.1809,-0.0422,0.0907,0.2119,0.3206,0.4591,0.5886,0.685,0.7488,0.7684,0.7367,0.7635,0.8131,0.8797,0.9158,0.9435,0.9561,0.9248,0.8599,0.7677,0.6871,0.5935,0.4835,0.4235,0.3201,0.1738,0.0533,-0.0832,-0.2366,-0.4197,-0.6008,-0.7753,-0.9057,-0.9921,-1.0458,-1.1633,-1.2606,-1.3545,-1.5812,-1.7738,-1.9704,-2.3579,-2.5623,-2.6774,-3.9205,-3.9096,-3.8882,-3.8302,-3.8324,-3.8158,-3.7445,-3.6468,-3.5492,-3.4558,-3.3247,-3.177,-3.0123,-2.7937,-2.6383,-2.5926,-2.5445,-2.53,-2.5549,-2.5175,-2.4853,-2.4748,-2.3173,-2.2194,-2.1992,-2.0604,-1.9998,-2.021,-2.0225,-2.0102,-1.9833,-1.9762,-1.9525,-1.9129,-1.9539,-1.9595,-1.9388,-1.9404,-1.9351,-1.9152,-1.8482,-1.7906,-1.7426,-1.7116,-1.6827,-1.6579,-1.6839,-1.6569,-1.5969,-1.5131,-1.3881,-1.258,-1.173,-1.0807,-1.0029,-0.9856,-0.9805,-0.9696,-0.954,-0.9569,-0.9535,-0.8911,-0.8632,-0.8281,-0.7533,-0.7125,-0.6705,-0.5885,-0.5497,-0.4741,-0.2864,-0.2091,-0.1232,0.0421,0.171,0.2904,0.4015,0.5613,0.6988,0.7932,0.8083,0.8047,0.7866,0.7664,0.7822,0.8513,0.8624,0.8773,0.8977,0.8418,0.7701,0.6786,0.5877,0.4919,0.3881,0.3301,0.2248,0.0706,-0.0569,-0.1653,-0.2573,-0.4556,-0.6158,-0.7471,-0.8409,-0.9288,-1.01,-1.0712,-1.1742,-1.3121,-1.5455,-1.8229,-2.1253,-2.3899,-2.5377,-2.633]},{"header":{"parameterUnit":"m.s-1","parameterCategory":1,"la1":30.6,"la2":28.766,"lo1":-90.7593,"lo2":-88.6598,"dy":0.0162,"dx":0.0183,"nx":116,"ny":114,"refTime":"2024-02-09T06:00:00:Z","depth":0,"parameterNumber":3,"parameterNumberName":"V-component_of_WINDS"},"data":[0.0,0.0,0.0,0.0,0.0,0.0,0.0,0.0,0.0,0.0,0.0,0.0,0.0,0.0,0.0,0.0,0.0,0.0,0.0,0.0,0.0,0.0,0.0,0.0,0.0,0.0,0.0,0.0,0.0,0.0,0.0,0.0,0.0,0.0,0.0,0.0,0.0,0.0,0.0,0.0,0.0,0.0,0.0,0.0,0.0,0.0,0.0,0.0,0.0,0.0,0.0,0.0,0.0,0.0,0.0,0.0,0.0,0.0,0.0,0.0,0.0,0.0,0.0,0.0,0.0,0.0,0.0,0.0,0.0,0.0,0.0,0.0,0.0,0.0,0.0,0.0,0.0,0.0,0.0,0.0,0.0,0.0,0.0,0.0,0.0,0.0,0.0,0.0,0.0,0.0,0.0,0.0,0.0,0.0,0.0,0.0,0.0,0.0,0.0,0.0,0.0,0.0,0.0,0.0,0.0,0.0,0.0,0.0,0.0,0.0,0.0,0.0,0.0,0.0,0.0,0.0,0.0,0.0,0.0,0.0,0.0,0.0,0.0,0.0,0.0,0.0,0.0,0.0,0.0,0.0,0.0,0.0,0.0,0.0,0.0,0.0,0.0,0.0,0.0,0.0,0.0,0.0,0.0,0.0,0.0,0.0,0.0,0.0,0.0,0.0,0.0,0.0,0.0,0.0,0.0,0.0,0.0,0.0,0.0,0.0,0.0,0.0,0.0,0.0,0.0,0.0,0.0,0.0,0.0,0.0,0.0,0.0,0.0,0.0,0.0,0.0,0.0,0.0,0.0,0.0,0.0,0.0,0.0,0.0,0.0,0.0,0.0,0.0,0.0,0.0,0.0,0.0,0.0,0.0,0.0,0.0,0.0,0.0,0.0,0.0,0.0,0.0,0.0,0.0,0.0,0.0,0.0,0.0,0.0,0.0,0.0,0.0,0.0,0.0,0.0,0.0,0.0,0.0,0.0,0.0,0.0,0.0,0.0,0.0,0.0,0.0,0.0,0.0,0.0,0.0,0.0,0.0,0.0,0.0,0.0,0.0,0.0,0.0,0.0,0.0,0.0,0.0,0.0,0.0,0.0,0.0,0.0,0.0,0.0,0.0,0.0,0.0,0.0,0.0,0.0,0.0,0.0,0.0,0.0,0.0,0.0,0.0,0.0,0.0,0.0,0.0,0.0,0.0,0.0,0.0,0.0,0.0,0.0,0.0,0.0,0.0,0.0,0.0,0.0,0.0,0.0,0.0,0.0,0.0,0.0,0.0,0.0,0.0,0.0,0.0,0.0,0.0,0.0,0.0,0.0,0.0,0.0,0.0,0.0,0.0,0.0,0.0,0.0,0.0,0.0,0.0,0.0,0.0,0.0,0.0,0.0,0.0,0.0,0.0,0.0,0.0,0.0,0.0,0.0,0.0,0.0,0.0,0.0,0.0,0.0,0.0,0.0,0.0,0.0,0.0,0.0,0.0,0.0,0.0,0.0,0.0,0.0,0.0,0.0,0.0,0.0,0.0,0.0,0.0,0.0,0.0,0.0,0.0,0.0,0.0,0.0,0.0,0.0,0.0,0.0,0.0,0.0,0.0,0.0,0.0,0.0,0.0,0.0,0.0,0.0,0.0,0.0,0.0,0.0,0.0,0.0,0.0,0.0,0.0,0.0,0.0,0.0,0.0,0.0,0.0,0.0,0.0,0.0,0.0,0.0,0.0,0.0,0.0,0.0,0.0,0.0,0.0,0.0,0.0,0.0,0.0,0.0,0.0,0.0,0.0,0.0,0.0,0.0,0.0,0.0,0.0,0.0,0.0,0.0,0.0,0.0,0.0,0.0,0.0,0.0,0.0,0.0,0.0,0.0,0.0,0.0,0.0,0.0,0.0,0.0,0.0,0.0,0.0,0.0,0.0,0.0,0.0,0.0,0.0,0.0,0.0,0.0,0.0,0.0,0.0,0.0,0.0,0.0,0.0,0.0,0.0,0.0,0.0,0.0,0.0,0.0,0.0,0.0,0.0,0.0,0.0,0.0,0.0,0.0,0.0,0.0,0.0,0.0,0.0,0.0,0.0,0.0,0.0,0.0,0.0,0.0,0.0,0.0,0.0,0.0,0.0,0.0,0.0,0.0,0.0,0.0,0.0,0.0,0.0,0.0,0.0,0.0,0.0,0.0,0.0,0.0,0.0,0.0,0.0,0.0,0.0,0.0,0.0,0.0,0.0,0.0,0.0,0.0,0.0,0.0,0.0,0.0,0.0,0.0,0.0,0.0,0.0,0.0,0.0,0.0,0.0,0.0,0.0,0.0,0.0,0.0,0.0,0.0,0.0,0.0,0.0,0.0,0.0,0.0,0.0,0.0,0.0,0.0,0.0,0.0,0.0,0.0,0.0,0.0,0.0,0.0,0.0,0.0,0.0,0.0,0.0,0.0,0.0,0.0,0.0,0.0,0.0,0.0,0.0,0.0,0.0,0.0,0.0,0.0,0.0,0.0,0.0,0.0,0.0,0.0,0.0,0.0,0.0,0.0,0.0,0.0,0.0,0.0,0.0,0.0,0.0,0.0,0.0,0.0,0.0,0.0,0.0,0.0,0.0,0.0,0.0,0.0,0.0,0.0,0.0,0.0,0.0,0.0,0.0,0.0,0.0,0.0,0.0,0.0,0.0,0.0,0.0,0.0,0.0,0.0,0.0,0.0,0.0,0.0,0.0,0.0,0.0,0.0,0.0,0.0,0.0,0.0,0.0,0.0,0.0,0.0,0.0,0.0,0.0,0.0,0.0,0.0,0.0,0.0,0.0,0.0,0.0,0.0,0.0,0.0,0.0,0.0,0.0,0.0,0.0,0.0,0.0,0.0,0.0,0.0,0.0,0.0,0.0,0.0,0.0,0.0,0.0,0.0,0.0,0.0,0.0,0.0,0.0,0.0,0.0,0.0,0.0,0.0,0.0,0.0,0.0,0.0,0.0,0.0,0.0,0.0,0.0,0.0,0.0,0.0,0.0,0.0,0.0,0.0,0.0,0.0,0.0,0.0,0.0,0.0,0.0,0.0,0.0,0.0,0.0,0.0,0.0,0.0,0.0,0.0,0.0,0.0,0.0,0.0,0.0,0.0,0.0,0.0,0.0,0.0,0.0,0.0,0.0,0.0,0.0,0.0,0.0,0.0,0.0,0.0,0.0,0.0,0.0,0.0,0.0,0.0,0.0,0.0,0.0,0.0,0.0,0.0,0.0,0.0,0.0,0.0,0.0,0.0,0.0,0.0,0.0,0.0,0.0,0.0,0.0,0.0,0.0,0.0,0.0,0.0,0.0,0.0,0.0,0.0,0.0,0.0,0.0,0.0,0.0,0.0,0.0,0.0,0.0,0.0,0.0,0.0,0.0,0.0,0.0,0.0,0.0,0.0,0.0,0.0,0.0,0.0,0.0,0.0,0.0,0.0,0.0,0.0,0.0,0.0,0.0,0.0,0.0,0.0,0.0,0.0,0.0,0.0,0.0,0.0,0.0,0.0,0.0,0.0,0.0,0.0,0.0,0.0,0.0,0.0,0.0,0.0,0.0,0.0,0.0,0.0,0.0,0.0,0.0,0.0,0.0,0.0,0.0,0.0,0.0,0.0,0.0,0.0,0.0,0.0,0.0,0.0,0.0,0.0,0.0,0.0,0.0,0.0,0.0,0.0,0.0,0.0,0.0,0.0,0.0,0.0,0.0,0.0,0.0,0.0,0.0,0.0,0.0,0.0,0.0,0.0,0.0,0.0,0.0,0.0,0.0,0.0,0.0,0.0,0.0,0.0,0.0,0.0,0.0,0.0,0.0,0.0,0.0,0.0,0.0,0.0,0.0,0.0,0.0,0.0,0.0,0.0,0.0,0.0,0.0,0.0,0.0,0.0,0.0,0.0,0.0,0.0,0.0,0.0,0.0,0.0,0.0,0.0,0.0,0.0,0.0,0.0,0.0,0.0,0.0,0.0,0.0,0.0,0.0,0.0,0.0,0.0,0.0,0.0,0.0,0.0,0.0,0.0,0.0,0.0,0.0,0.0,0.0,0.0,0.0,0.0,0.0,0.0,0.0,0.0,0.0,0.0,0.0,0.0,0.0,0.0,0.0,0.0,0.0,0.0,0.0,0.0,0.0,0.0,0.0,0.0,0.0,0.0,0.0,0.0,0.0,0.0,0.0,0.0,0.0,0.0,0.0,0.0,0.0,0.0,0.0,0.0,0.0,0.0,0.0,0.0,0.0,0.0,0.0,0.0,0.0,0.0,0.0,0.0,0.0,0.0,0.0,0.0,0.0,0.0,0.0,0.0,0.0,0.0,0.0,0.0,0.0,0.0,0.0,0.0,0.0,0.0,0.0,0.0,0.0,0.0,0.0,0.0,0.0,0.0,0.0,0.0,0.0,0.0,0.0,0.0,0.0,0.0,0.0,0.0,0.0,0.0,0.0,0.0,0.0,0.0,0.0,0.0,0.0,0.0,0.0,0.0,0.0,0.0,0.0,0.0,0.0,0.0,0.0,0.0,0.0,0.0,0.0,0.0,0.0,0.0,0.0,0.0,0.0,0.0,0.0,0.0,0.0,0.0,0.0,0.0,0.0,0.0,0.0,0.0,0.0,0.0,0.0,0.0,0.0,0.0,0.0,0.0,0.0,0.0,0.0,0.0,0.0,0.0,0.0,0.0,0.0,0.0,0.0,0.0,0.0,0.0,0.0,0.0,0.0,0.0,0.0,0.0,0.0,0.0,0.0,0.0,0.0,0.0,0.0,0.0,0.0,0.0,0.0,0.0,0.0,0.0,0.0,0.0,0.0,0.0,0.0,0.0,0.0,0.0,0.0,0.0,0.0,0.0,0.0,0.0,0.0,0.0,0.0,0.0,0.0,0.0,0.0,0.0,0.0,0.0,0.0,0.0,0.0,0.0,0.0,0.0,0.0,0.0,0.0,0.0,0.0,0.0,0.0,0.0,0.0,0.0,0.0,0.0,0.0,0.0,0.0,0.0,0.0,0.0,0.0,0.0,0.0,0.0,0.0,0.0,0.0,0.0,0.0,0.0,0.0,0.0,0.0,0.0,0.0,0.0,0.0,0.0,0.0,0.0,0.0,0.0,0.0,0.0,0.0,0.0,0.0,0.0,0.0,0.0,0.0,0.0,0.0,0.0,0.0,0.0,0.0,0.0,0.0,0.0,0.0,0.0,0.0,0.0,0.0,0.0,0.0,0.0,0.0,0.0,0.0,0.0,0.0,0.0,0.0,0.0,0.0,0.0,0.0,0.0,0.0,0.0,0.0,0.0,0.0,0.0,0.0,0.0,0.0,0.0,0.0,0.0,0.0,0.0,0.0,0.0,0.0,0.0,0.0,0.0,0.0,0.0,0.0,0.0,0.0,0.0,0.0,0.0,0.0,0.0,0.0,0.0,0.0,0.0,0.0,0.0,0.0,0.0,0.0,0.0,0.0,0.0,0.0,0.0,0.0,0.0,0.0,0.0,0.0,0.0,0.0,0.0,0.0,0.0,0.0,0.0,0.0,0.0,0.0,0.0,0.0,0.0,0.0,0.0,0.0,0.0,0.0,0.0,0.0,0.0,0.0,0.0,0.0,0.0,0.0,0.0,0.0,0.0,0.0,0.0,0.0,0.0,0.0,0.0,0.0,0.0,0.0,0.0,0.0,0.0,0.0,0.0,0.0,0.0,0.0,0.0,0.0,0.0,0.0,0.0,0.0,0.0,0.0,0.0,0.0,0.0,0.0,0.0,0.0,0.0,0.0,0.0,0.0,0.0,0.0,0.0,0.0,0.0,0.0,0.0,0.0,0.0,0.0,0.0,0.0,0.0,0.0,0.0,0.0,0.0,0.0,0.0,0.0,0.0,0.0,0.0,0.0,0.0,0.0,0.0,0.0,0.0,0.0,0.0,0.0,0.0,0.0,0.0,0.0,0.0,0.0,0.0,0.0,0.0,0.0,0.0,0.0,0.0,0.0,0.0,0.0,0.0,0.0,0.0,0.0,0.0,0.0,0.0,0.0,0.0,0.0,0.0,0.0,0.0,0.0,0.0,0.0,0.0,0.0,0.0,0.0,0.0,0.0,0.0,0.0,0.0,0.0,0.0,0.0,0.0,0.0,3.4689,3.301,0.0,0.0,0.0,0.0,0.0,0.0,0.0,0.0,0.0,0.0,0.0,0.0,0.0,0.0,0.0,0.0,0.0,0.0,0.0,0.0,0.0,0.0,0.0,0.0,0.0,0.0,0.9462,0.9078,0.8563,0.8738,0.0,0.0,0.0,0.0,0.8604,0.8854,0.9808,1.1557,1.2233,1.3834,1.6297,1.6122,1.4975,1.3065,0.0,0.0,0.0,0.0,0.0,0.0,0.0,0.0,0.0,0.0,0.0,0.0,0.0,0.0,0.0,0.0,0.0,0.0,0.0,0.0,0.0,0.0,0.0,0.0,0.0,0.0,0.0,0.0,0.0,0.0,0.0,0.0,0.0,0.0,0.0,0.0,0.0,0.0,0.0,0.0,0.0,0.0,0.0,0.0,0.0,0.0,0.0,0.0,0.0,0.0,0.0,0.0,0.0,0.0,0.0,0.0,0.0,0.0,0.0,0.0,0.0,0.0,0.0,0.0,0.0,0.0,0.0,0.0,0.0,0.0,3.7735,3.6043,0.0,0.0,0.0,0.0,0.0,0.0,0.0,0.0,0.0,0.0,0.0,0.0,0.0,0.0,0.0,0.0,0.0,0.0,0.0,0.0,0.0,0.0,0.0,0.8454,0.7946,0.8613,0.8202,0.7774,0.7467,0.8063,0.8355,0.8187,0.8606,0.8848,0.8886,0.9597,1.0976,1.303,1.4544,1.6987,2.0319,2.1649,2.0894,1.8417,1.6752,0.0,0.0,0.0,0.0,0.0,0.0,0.0,0.0,0.0,0.0,0.0,0.0,0.0,0.0,0.0,0.0,0.0,0.0,0.0,0.0,0.0,0.0,0.0,0.0,0.0,0.0,0.0,0.0,0.0,0.0,0.0,0.0,0.0,0.0,0.0,0.0,0.0,0.0,0.0,0.0,0.0,0.0,0.0,0.0,0.0,0.0,0.0,0.0,0.0,0.0,0.0,0.0,0.0,0.0,0.0,0.0,0.0,0.0,0.0,0.0,0.0,0.0,0.0,4.2214,4.272,4.336,4.3178,4.319,4.3385,4.1142,3.9941,3.9502,3.795,0.0,0.0,0.0,0.0,0.0,0.0,0.0,0.0,0.0,0.0,0.0,0.0,0.0,0.0,0.0,0.0,0.0,0.0,0.0,0.0,0.0,0.8801,0.8736,0.8857,0.9453,0.9195,0.7685,0.8274,0.8595,0.8452,0.8259,0.8457,0.9144,1.0361,1.172,1.316,1.7967,2.1661,2.4196,2.5715,2.6552,2.6605,2.1837,1.9793,1.9753,0.0,0.0,0.0,0.0,0.0,0.0,0.0,0.0,0.0,0.0,0.0,0.0,0.0,0.0,0.0,0.0,0.0,0.0,0.0,0.0,0.0,0.0,0.0,0.0,0.0,0.0,0.0,0.0,0.0,0.0,0.0,0.0,0.0,0.0,0.0,0.0,0.0,0.0,0.0,0.0,0.0,1.6714,2.0031,0.0,0.0,0.0,0.0,0.0,0.0,0.0,0.0,0.0,0.0,0.0,0.0,0.0,3.9823,4.0531,4.1861,4.2721,4.313,4.4825,4.5789,4.5974,4.6025,4.5997,4.5913,4.5107,0.0,4.1209,4.011,0.0,0.0,0.0,0.0,0.0,0.0,0.0,0.0,0.0,0.0,0.0,0.0,0.0,0.0,0.0,0.0,0.0,0.0,0.0,0.0,0.0,0.8605,0.8938,0.8945,0.9716,0.947,0.7754,0.839,0.8517,0.7903,0.8187,0.8837,0.9953,1.1435,1.3833,1.7143,2.103,2.405,2.6297,2.7514,2.8941,3.0384,2.7752,2.529,2.2858,1.9895,0.0,0.0,0.0,0.0,0.0,0.0,0.0,0.0,0.0,0.0,0.0,0.0,0.0,0.0,0.0,0.0,0.0,0.0,0.0,0.0,0.0,0.0,0.0,0.0,0.0,0.0,0.0,0.0,0.0,0.0,0.0,0.0,0.0,0.0,0.0,0.0,0.0,0.0,0.0,1.5691,1.86,2.1774,2.456,2.7087,0.0,0.0,0.0,0.0,0.0,0.0,0.0,0.0,0.0,4.191,4.2594,4.3174,4.3703,4.4838,4.5315,4.51,4.6135,4.6575,4.6431,4.6451,4.6587,4.6841,4.6013,4.5044,4.3903,4.2248,4.1262,4.0758,0.0,0.0,0.0,0.0,4.252,4.2697,0.0,0.0,0.0,0.0,0.0,0.0,0.0,0.0,0.0,0.0,0.0,0.0,0.795,0.8784,0.9492,0.9922,1.0308,0.9985,0.8722,0.8805,0.8649,0.8043,0.8577,0.9584,1.0969,1.3503,1.693,2.1285,2.3682,2.5866,2.78,2.8874,3.039,3.2136,3.2175,3.0207,2.6626,2.3791,2.1323,1.9105,0.0,0.0,0.0,0.0,0.0,0.0,0.0,0.0,0.0,0.0,0.0,0.0,0.0,0.0,0.0,0.0,0.0,0.0,0.0,0.0,0.0,0.0,0.0,0.0,0.0,0.0,0.0,0.0,0.0,0.0,0.0,0.0,0.0,0.0,0.0,0.0,0.0,1.7584,2.0391,2.3717,2.6841,2.9641,0.0,0.0,0.0,0.0,0.0,0.0,4.1133,4.2229,4.3257,4.4278,4.5096,4.5595,4.5875,4.6517,4.6629,4.6233,4.651,4.6517,4.6328,4.6556,4.6895,4.7273,4.6629,4.6342,4.6177,4.4151,4.317,4.3012,4.2412,4.2711,4.3541,4.4425,4.4606,4.4595,0.0,0.0,0.0,0.0,0.0,0.0,0.0,0.0,0.0,0.0,0.0,0.794,0.8828,0.9722,1.0892,1.246,1.1903,1.1324,1.1149,0.9722,0.9152,0.9641,0.9701,1.0479,1.2096,1.7125,2.1212,2.4176,2.5932,2.7521,2.903,3.036,3.1459,3.2341,3.3739,3.3683,3.2305,2.81,2.6025,2.5179,2.1159,0.0,0.0,0.0,0.0,0.0,0.0,0.0,0.0,0.0,0.0,0.0,0.0,0.0,0.0,0.0,0.0,0.0,0.0,0.0,0.0,0.0,0.0,0.0,0.0,0.0,0.0,0.0,0.0,0.0,0.0,0.0,0.0,0.0,0.0,0.0,0.0,0.0,0.0,2.5911,2.958,0.0,0.0,0.0,0.0,3.8303,4.0333,4.1956,4.2892,4.4755,4.5702,4.5451,4.5999,4.6087,4.5545,4.5571,4.5571,4.5545,4.5804,4.5969,4.6079,4.7132,4.7514,4.735,4.7839,4.7893,4.7459,4.5557,4.4979,4.5264,4.5213,4.61,4.7343,4.6587,4.6776,4.7284,0.0,0.0,0.0,0.0,0.0,0.0,0.0,0.0,0.5427,0.5135,0.6584,0.7991,0.8852,1.1184,1.3121,1.4233,1.4535,1.4116,1.2812,1.1236,1.0682,1.1336,1.0936,1.2689,1.6944,2.0209,2.2963,2.5289,2.6589,2.7904,2.9263,3.0871,3.2199,3.3321,3.5074,3.5497,3.4744,3.1508,2.9177,2.7416,2.4401,2.1683,0.0,0.0,0.0,0.0,0.0,0.0,0.0,0.0,0.0,0.0,0.0,0.0,0.0,0.0,0.0,0.0,0.0,0.0,0.0,0.0,0.0,0.0,0.0,0.0,0.0,0.0,0.0,0.0,0.0,0.0,0.0,0.0,0.0,0.0,0.0,0.0,0.0,2.9422,3.2259,0.0,3.662,3.8466,3.988,4.0747,4.2604,4.4225,4.5465,4.6576,4.7061,4.6944,4.7094,4.6934,4.6348,4.6499,4.632,4.573,4.5846,4.5975,4.6197,4.6607,4.6979,4.7245,4.7288,4.7223,4.7083,4.6556,4.6502,4.6651,4.6807,4.6994,4.713,4.6807,4.6649,4.6517,0.0,0.0,0.0,0.0,0.0,0.0,0.0,0.0,0.5213,0.5594,0.7077,0.8585,0.9907,1.2554,1.4643,1.5731,1.5746,1.5261,1.4251,1.2519,1.1832,1.2526,1.3032,1.5574,2.0388,2.2621,2.4606,2.6321,2.7522,2.8545,2.9558,3.1404,3.2757,3.374,3.5934,3.6671,3.6167,3.4904,3.278,3.0171,2.7842,2.5632,2.3501,0.0,0.0,0.0,0.0,0.0,0.0,0.0,0.0,0.0,0.0,0.0,0.0,0.0,0.0,0.0,0.0,0.0,0.0,0.0,0.0,0.0,0.0,0.0,0.0,0.0,0.0,0.0,0.0,0.0,0.0,0.0,0.0,0.0,0.0,2.5619,2.856,3.2177,3.4678,3.685,3.8696,4.0508,4.181,4.2435,4.4288,4.5818,4.6768,4.7424,4.7717,4.7666,4.7274,4.6934,4.6626,4.6576,4.6415,4.6144,4.6024,4.6119,4.6417,4.6654,4.6985,4.7302,4.7449,4.7468,4.7519,4.7726,4.7774,4.7853,4.769,4.7592,4.7314,4.6373,4.5961,4.577,0.0,0.0,0.0,0.0,0.0,0.0,0.0,0.4994,0.5444,0.6543,0.7914,0.9661,1.1992,1.3712,1.5306,1.6801,1.5397,1.4723,1.5475,1.3444,1.2539,1.3304,1.6068,1.9067,2.2137,2.45,2.627,2.7453,2.8788,2.958,2.9962,3.2053,3.3147,3.3436,3.6329,3.736,3.6924,3.8214,3.6915,3.3814,3.1536,3.0262,2.9335,0.0,0.0,0.0,0.0,0.0,0.0,0.0,0.0,0.0,0.0,0.0,0.0,0.0,0.0,0.0,0.0,0.0,0.0,0.0,0.0,0.0,0.0,0.0,0.0,0.0,0.0,0.0,0.0,0.0,0.0,0.0,0.0,0.0,2.5602,2.7926,3.0589,3.4051,3.6772,3.8776,3.9892,4.2238,4.3604,4.3375,4.5456,4.6686,4.6686,4.7253,4.7592,4.7592,4.642,4.5963,4.6266,4.5685,4.5773,4.66,4.6291,4.6291,4.6539,4.7408,4.7693,4.7572,4.8472,4.8825,4.8912,4.8887,4.8887,4.8835,4.7943,4.7956,4.812,4.5598,4.5023,4.5232,0.0,0.0,0.0,0.0,0.0,0.0,0.1522,0.2808,0.4498,0.6321,0.7684,0.911,1.076,1.2853,1.4526,1.5516,1.5182,1.5231,1.5946,1.3928,1.371,1.5923,1.9835,2.2905,2.4881,2.6526,2.7733,2.8551,2.971,3.0267,3.0329,3.279,3.3952,3.408,3.693,3.8103,3.8031,3.9377,3.9362,3.8192,3.5131,3.308,3.1658,0.0,0.0,0.0,0.0,0.0,0.0,0.0,0.0,0.0,0.0,0.0,0.0,0.0,0.0,0.0,0.0,0.0,0.0,0.0,0.0,0.0,0.0,0.0,0.0,0.0,0.0,0.0,0.0,0.0,0.0,0.0,2.049,2.3698,2.6355,2.9316,3.238,3.5563,3.7562,3.9557,4.1725,4.3251,4.4487,4.5269,4.6513,4.7171,4.7171,4.7255,4.7129,4.6884,4.655,4.6168,4.5797,4.6252,4.6333,4.6075,4.6265,4.6548,4.7042,4.7253,4.7706,4.8273,4.8807,4.8985,4.8985,4.8901,4.885,4.88,4.8342,4.7694,4.6737,4.5666,4.4468,4.3231,0.0,0.0,0.0,0.0,0.0,0.0,0.0155,0.2191,0.4469,0.6296,0.7968,0.9511,1.096,1.2515,1.3868,1.4951,1.4978,1.4997,1.5227,1.4636,1.544,1.8067,2.1299,2.3955,2.5879,2.6963,2.8007,2.8975,3.0232,3.0722,3.0513,3.3318,3.4485,3.4376,3.7137,3.8425,3.8696,3.9905,4.0342,4.0064,3.7962,3.6483,3.5268,3.3164,3.1627,3.0309,2.8301,2.7364,2.6873,2.5856,0.0,0.0,0.0,0.0,0.0,0.0,0.0,0.0,0.0,0.0,0.0,0.0,0.0,0.0,0.0,0.0,0.0,0.0,0.0,0.0,0.0,0.0,0.0,0.0,2.155,2.4646,2.7752,3.0653,3.3639,3.6732,3.8562,4.0445,4.256,4.3663,4.465,4.5492,4.66,4.7198,4.7106,4.7199,4.7178,4.7082,4.6396,4.6022,4.592,4.6238,4.6343,4.6323,4.6627,4.6957,4.7443,4.7443,4.7877,4.8607,4.8649,4.8812,4.8983,4.8693,4.8509,4.836,0.0,0.0,0.0,0.0,4.3094,4.1728,0.0,0.0,0.0,0.0,0.0,0.0,0.0452,0.276,0.5009,0.6392,0.8379,1.0212,1.1611,1.2254,1.3089,1.4431,1.4484,1.4372,1.4252,1.5757,1.7602,1.9792,2.1458,2.3444,2.5735,2.6609,2.7625,2.8817,3.0452,3.0989,3.0612,3.3588,3.4782,3.4501,3.7064,3.852,3.9097,3.9989,4.0391,4.0383,3.9997,3.9648,3.8979,3.6039,3.5111,3.4959,3.1399,3.0207,3.0004,2.831,0.0,0.0,0.0,0.0,0.0,0.0,0.0,0.0,0.0,0.0,0.0,0.0,0.0,0.0,0.0,0.0,0.0,0.0,0.0,0.0,0.0,0.0,0.0,0.0,2.2492,2.5573,2.947,3.1958,3.4529,3.7698,3.9628,4.1294,4.291,4.3873,4.4584,4.5076,4.6205,4.6936,4.6861,4.7311,0.0,0.0,0.0,4.5821,4.6263,4.593,4.6119,4.6883,4.7085,4.7365,4.7705,4.7634,4.804,4.8737,4.8269,4.842,4.8893,4.8441,4.7996,4.7568,4.6736,4.6066,4.52,4.2777,4.1325,4.0629,0.0,0.0,0.0,0.0,0.0,0.0,0.3192,0.4257,0.5461,0.639,0.7858,0.9056,0.9606,1.0519,1.1288,1.1736,1.2704,1.4192,1.6336,1.8174,1.9749,2.1024,2.2866,2.4447,2.5686,2.713,2.8012,2.8326,3.0332,3.1167,3.1021,3.3208,3.4513,3.5084,3.6748,3.8383,3.9893,4.0133,4.0659,4.1218,4.0441,3.9567,3.8677,3.7733,3.6884,3.6,3.4598,3.399,3.3716,3.3024,3.1388,2.9607,2.9335,2.7234,0.0,0.0,0.0,0.0,0.0,0.0,0.0,0.0,0.0,0.0,0.0,0.0,0.0,0.0,0.0,0.0,0.0,0.0,0.0,2.1662,2.3825,2.6607,3.0704,3.317,3.5734,3.8922,4.0415,4.2156,4.4566,4.49,4.5495,4.6795,4.7045,4.7273,4.7648,4.7637,4.7369,4.6689,4.6661,4.6267,4.538,4.6385,4.6834,4.6746,4.7045,0.0,4.7682,4.7322,4.7614,4.8401,4.8492,4.851,4.8583,4.7996,4.6999,4.5915,4.547,4.4522,4.329,4.1581,4.0666,4.0281,0.0,0.0,0.0,0.0,0.0,0.0,0.3959,0.5012,0.6047,0.6704,0.7824,0.8739,0.9254,0.9335,0.9716,1.0567,1.2,1.4228,1.7448,1.8929,2.0372,2.2042,2.3464,2.4709,2.5767,2.7017,2.7848,2.8306,3.0108,3.1077,3.1309,3.2994,3.4197,3.4934,3.6449,3.7864,3.9246,3.9642,4.0146,4.0595,4.0178,3.9193,3.7983,3.7671,3.7064,3.6261,3.5182,3.4432,3.3916,3.3972,3.2683,3.0933,3.0396,2.8645,2.6298,0.0,0.0,0.0,0.0,0.0,0.0,0.0,0.0,0.0,0.0,0.0,0.0,0.0,0.0,2.0773,2.0225,0.0,2.067,2.2996,2.5076,2.7678,3.1248,3.3918,3.6472,3.9233,4.0688,4.2412,4.5095,4.5347,4.5852,4.7074,4.7306,4.7446,4.7633,4.7842,4.7815,4.7501,4.7038,4.6643,4.616,4.6725,4.6982,4.6797,4.7377,4.7701,4.7787,4.7471,4.7714,4.831,4.8002,4.7816,4.7656,4.6738,4.5748,4.4871,4.4691,4.4003,4.2938,4.148,4.0629,4.0199,0.0,0.0,0.0,0.0,0.0,0.0,0.0,0.5208,0.6246,0.6726,0.7645,0.8436,0.8827,0.8309,0.8601,1.0288,1.1937,1.4452,1.8163,1.9234,2.0707,2.29,2.3709,2.4672,2.5855,2.6735,2.7604,2.8469,3.019,3.1181,3.1601,3.3029,3.4055,3.4702,3.5939,3.7148,3.838,3.8875,3.939,3.9837,3.9574,3.8655,3.7441,3.6659,3.6284,3.5993,3.4685,3.3587,3.2762,3.3257,3.2373,3.086,3.0061,2.8971,2.7442,2.4535,2.3743,0.0,0.0,0.0,0.0,0.0,0.0,0.0,0.0,2.3114,2.3527,2.4062,2.3555,2.2944,2.257,2.194,2.2187,2.4105,2.6118,2.8539,3.1572,3.4214,3.6761,3.9382,4.0822,4.2593,4.521,4.5622,4.6192,4.7252,4.7505,4.7622,4.7746,4.8096,4.8309,4.8308,4.7375,4.691,4.7,4.6936,4.6864,4.6887,4.7632,4.7959,4.7885,4.7709,4.7762,4.793,4.7142,4.6665,4.6328,4.5397,4.4769,4.4372,4.4286,4.3866,4.3248,4.1801,4.0884,4.021,0.0,0.0,0.0,0.0,0.0,0.0,0.0,0.0,0.5384,0.5569,0.6721,0.7315,0.6715,0.7246,0.8534,1.0739,1.2485,1.508,1.8833,2.0177,2.1697,2.3588,2.3933,2.4635,2.5801,2.6722,2.7673,2.8676,3.0999,3.2165,3.2232,3.3534,3.4525,3.5177,3.4958,3.6234,3.8533,3.7848,3.8521,3.9948,3.8707,3.8042,3.7553,3.5096,3.463,3.512,3.4047,3.2744,3.1561,3.2037,3.0771,2.9084,2.9872,2.9042,2.7455,2.5973,2.4664,2.3343,2.1594,2.0202,1.9565,2.1029,2.1424,2.2655,0.0,2.7371,2.6764,2.7508,2.6811,2.5587,2.3843,2.3493,2.3785,2.5014,2.6646,2.8877,3.1993,3.4039,3.6398,3.9696,4.1234,4.2994,4.5346,4.5874,4.6815,4.8722,4.8102,4.7987,4.8887,4.8879,4.8511,4.7716,4.7468,4.6982,4.6266,4.6542,4.6704,4.6704,4.7095,4.7438,4.7685,4.7566,4.7263,4.68,4.589,4.5136,4.4503,4.4699,4.4712,4.4609,4.4142,4.3866,4.3644,4.2142,4.1148,4.0558,0.0,0.0,0.0,0.0,0.0,0.0,0.0,0.0,0.0,0.5949,0.654,0.6946,0.6991,0.7508,0.8206,0.9155,1.1841,1.4552,1.7097,1.9718,2.1827,2.328,2.4016,2.4662,2.5217,2.6638,2.7547,2.7941,3.0021,3.1193,3.1563,3.2616,3.3446,3.4102,3.4659,3.549,3.6544,3.6589,3.7044,3.7735,3.7313,3.6461,3.5302,3.385,3.2739,3.195,3.1504,3.0414,0.0,2.9508,2.8886,2.8027,2.8406,2.7574,2.6221,2.5245,2.4385,2.3641,2.3011,2.2234,2.1876,2.3128,2.4615,2.6375,2.8813,2.9325,2.931,2.9459,2.8425,2.7041,2.5341,2.4632,2.4772,2.61,2.7677,2.9785,3.2929,3.4719,3.6626,3.9029,4.1119,4.3235,4.5302,4.6081,4.7027,4.8561,4.8803,4.8895,4.9089,4.9075,4.8875,4.8462,4.7582,4.7051,4.6843,4.6773,4.6703,4.6703,4.7228,4.7569,4.7682,4.7738,4.7394,4.6606,4.5527,4.4634,4.3992,4.4138,4.4134,4.3958,4.3874,4.3764,4.3462,4.2312,4.1412,4.0676,0.0,0.0,0.0,0.0,0.0,0.0,0.0,0.0,0.0,0.0,0.658,0.6879,0.7147,0.7475,0.7761,0.804,1.1088,1.3823,1.5793,1.8941,2.145,2.3004,2.3846,2.4534,2.5099,2.6397,2.7236,2.7579,2.923,3.0335,3.0941,3.1817,3.2548,3.3131,3.3978,3.4541,3.5004,3.5433,3.5753,3.5966,3.5907,3.4979,3.3502,3.2291,3.0664,2.9005,2.8896,2.8093,2.708,2.6988,2.6815,2.663,2.6451,2.5779,2.4905,2.4262,2.3801,2.3421,2.3257,2.3335,2.3687,2.475,2.6948,2.9053,2.9803,3.0583,3.097,3.0584,2.9408,2.8038,2.672,2.5846,2.5775,2.7137,2.8718,3.0704,3.3455,3.5409,3.7297,3.9236,4.1283,4.3314,4.5321,4.6403,4.7444,4.8638,4.9222,4.9476,4.9319,4.9181,4.9029,4.8858,4.7697,4.7073,4.7283,4.6865,4.6607,4.6607,4.7221,4.7559,4.7647,4.7575,4.7106,4.6339,4.5161,4.4303,4.3595,4.3721,4.373,4.3635,4.3827,4.366,4.3299,4.2591,4.1695,4.0675,0.0,0.0,0.0,0.0,0.0,0.0,0.0,0.0,0.0,0.0,0.0,0.0,0.0,0.6632,0.7203,0.8099,1.0492,1.3091,1.5809,1.8125,2.0537,2.3169,2.3371,2.4242,2.5935,2.5963,2.6667,2.8081,2.9228,3.013,3.0742,3.1664,3.2377,3.2904,3.2546,3.3231,3.4615,3.4439,3.4826,3.5535,3.463,3.3976,3.3187,3.0248,2.8208,2.6951,2.6767,2.6184,2.5366,2.4812,2.4559,2.4463,2.4259,2.4035,2.3816,2.3602,2.3081,2.2488,2.17,2.2478,2.3837,2.5222,2.741,2.9489,3.0606,3.1203,3.1396,3.0884,2.9848,2.8794,2.7921,2.7276,2.7155,2.7971,2.9553,3.1385,3.3223,3.5725,3.8326,4.0813,4.1891,4.3337,4.568,4.6911,4.8154,4.9557,4.9333,4.9342,4.9847,4.9388,4.8882,4.84,4.7745,4.7213,4.6955,4.6561,4.6429,4.6429,4.6855,4.7189,4.7497,4.6763,4.6238,4.5743,4.4674,4.3754,4.3067,4.3295,4.3711,4.4136,4.3878,4.3594,4.3251,4.2988,4.2013,4.0731,0.0,0.0,0.0,0.0,0.0,0.0,0.0,0.0,0.0,0.0,0.0,0.0,0.0,0.0,0.0,0.0,1.0191,1.2295,1.3722,1.6595,1.9015,2.0779,2.1346,2.2069,2.2979,2.3879,2.4428,2.4668,2.626,2.7306,2.7949,2.9002,3.0137,3.1266,3.1419,3.1765,3.2227,3.2335,3.1934,3.1184,3.1027,3.0446,2.9567,2.8362,2.6882,2.5478,0.0,2.4439,2.3521,2.2476,2.27,2.3348,2.3006,2.2476,2.2031,2.2259,2.2,2.197,2.3281,2.4261,2.5326,2.702,2.89,3.0633,3.1681,3.1762,3.1484,3.097,2.9921,2.882,2.7857,2.7676,2.8026,2.8964,3.0455,3.2136,3.3993,3.6237,3.8509,4.0585,4.2848,4.4576,4.5458,4.6656,4.7865,4.9218,4.973,5.0146,5.0352,4.9916,4.9411,4.8882,4.7907,4.7353,4.7213,4.6946,4.6831,4.6831,4.7165,4.7654,4.8223,4.6996,4.6214,4.5718,4.465,4.3614,4.2681,4.3184,4.3487,4.3619,4.3733,4.3472,4.2963,4.2504,4.1279,3.9788,0.0,0.0,0.0,0.0,0.0,0.0,0.0,0.0,0.0,0.0,0.0,0.0,0.0,0.0,0.0,0.0,0.0,1.1171,1.2026,1.4695,1.6915,1.8421,1.903,1.964,2.0359,2.0948,2.144,2.1926,2.3102,2.4238,2.5308,2.6212,2.7409,2.8798,2.9148,2.9522,2.9988,3.0017,2.9435,2.8446,2.8319,2.7782,2.7018,2.6281,2.5273,0.0,2.3507,2.2934,2.2306,2.1375,2.1879,2.2788,2.2035,2.1611,2.1423,2.1664,2.1833,2.237,2.4486,2.5466,2.6302,2.8145,2.9668,3.0965,3.1708,3.1549,3.1062,3.0469,2.9497,2.8557,2.7761,2.7492,2.7943,2.9573,3.0963,3.2598,3.4981,3.7388,3.9672,4.1756,4.4345,4.6232,4.705,4.8099,4.8896,4.9094,5.0151,5.0758,5.0605,5.0168,4.9646,4.9006,4.812,4.747,4.7306,4.7123,4.7032,4.7165,4.7497,4.7984,4.8551,4.7189,4.6214,4.5536,4.459,4.3556,4.2513,4.3073,4.3288,4.3333,4.3415,4.3061,4.2356,4.1955,4.0728,3.9275,0.0,0.0,0.0,0.0,0.0,0.0,0.0,0.0,0.0,0.0,0.0,0.0,0.0,0.0,0.0,0.0,0.0,0.0,1.0818,1.2516,1.431,1.6203,1.6518,1.7108,1.814,1.742,1.7968,1.9909,2.005,2.1038,2.2833,2.332,2.4313,2.5658,2.5809,2.6619,2.7844,2.7564,2.7377,2.7203,2.6449,2.5944,2.5477,2.4136,2.34,2.2986,2.2034,2.1727,2.1687,2.141,2.2044,2.2739,2.1466,2.155,2.2091,2.2023,2.2682,2.3784,2.5354,2.6133,2.6953,2.8698,2.9899,3.06,3.0815,3.0619,3.0205,2.9423,2.8644,2.8006,2.7584,2.682,2.7175,2.9824,3.1067,3.2845,3.6067,3.9015,4.1739,4.4263,4.6244,4.8094,4.9961,5.1151,5.1043,4.9375,5.0521,5.1152,5.0673,5.0191,4.9605,4.8954,4.824,4.7653,4.7228,4.7116,4.7165,4.7497,4.7828,4.8248,4.8551,4.7381,4.6301,4.522,4.4497,4.3556,4.2538,4.2849,4.3119,4.3275,4.2988,4.2414,4.1598,4.1286,4.0306,3.903,0.0,0.0,0.0,0.0,0.0,0.0,0.0,0.0,0.0,0.0,0.0,0.0,0.0,0.0,0.0,0.0,0.0,0.0,0.9194,1.08,1.2256,1.3405,1.4112,1.4678,1.5116,1.5801,1.6108,1.6022,1.699,1.7949,1.8868,1.9635,2.0946,2.268,2.3677,2.4338,2.4699,2.516,2.4724,2.3674,2.3336,2.3129,2.3013,2.28,2.2385,2.1957,2.2669,2.211,2.102,2.1419,2.2392,2.35,2.3614,2.4191,2.4772,2.4719,2.5594,2.6766,2.7841,2.8908,3.0005,3.1249,3.1374,3.1325,3.1558,3.0596,2.9411,2.8704,2.7712,2.6797,2.609,2.6902,2.7997,2.9215,3.1772,3.4449,3.6763,3.9558,4.232,4.4731,4.7045,4.8897,4.9961,5.1704,5.2271,5.1236,5.1618,5.1685,5.1224,5.0375,4.9766,4.9464,4.8427,4.7791,4.7569,4.7428,4.7563,4.7894,4.796,4.8248,4.8551,4.7189,4.5963,4.4951,4.4175,4.321,4.2256,4.2961,4.3456,4.3651,4.3112,4.2476,4.1767,4.0686,3.9235,3.7737,0.0,0.0,0.0,0.0,0.0,0.0,0.0,0.0,0.0,0.0,0.0,0.0,0.0,0.0,0.0,0.0,0.0,0.0,0.0,0.9503,1.051,1.1203,1.1662,1.228,1.2988,1.3231,1.3533,1.3796,1.4518,1.5221,1.6027,1.697,1.8271,1.9794,2.0934,2.1758,2.2286,2.255,2.2328,0.0,0.0,2.127,2.1272,2.127,2.1147,2.1114,2.2069,2.2272,2.2179,2.2791,2.3611,2.452,2.5485,2.641,2.7194,2.7653,2.8322,2.9147,3.0397,3.0927,3.1338,3.2234,3.1859,3.1286,3.1127,2.9901,2.8624,2.7823,2.6763,2.5879,2.5343,2.6102,2.7343,2.9131,3.1561,3.437,3.7632,4.0627,4.3353,4.5815,4.8401,5.0294,5.0962,5.2664,5.3429,5.2514,5.2295,5.2077,5.1716,5.0543,4.9794,4.964,4.8521,4.788,4.782,4.7931,4.8158,4.8486,4.8486,4.8428,4.8182,4.713,4.5841,4.4488,4.3629,4.2988,4.2513,4.2876,4.3174,4.3402,4.2654,4.1839,4.093,3.9546,3.8185,3.682,0.0,0.0,0.0,0.0,0.0,0.0,0.0,0.0,0.0,0.0,0.0,0.0,0.0,0.0,0.0,0.0,0.0,0.0,0.0,0.0,0.9107,0.9386,0.9634,1.0319,1.1475,1.0816,1.1186,1.2679,1.2594,1.3052,1.401,1.4966,1.6023,1.7209,1.8169,1.9274,2.0363,2.017,2.032,2.0721,2.0195,2.0016,2.0066,0.0,1.9998,2.0483,2.099,2.2193,2.3699,2.4519,2.5154,2.5793,2.7195,2.8353,2.9393,3.0321,3.0745,3.1295,3.2674,3.2524,3.21,3.2741,3.2053,3.1093,3.0359,2.9116,2.7903,2.6913,2.5888,2.5039,2.4846,2.5056,2.6319,2.9389,3.1172,3.3842,3.8701,4.1905,4.4641,4.7045,4.9794,5.1706,5.2162,5.363,5.4175,5.3267,5.2769,5.2442,5.1984,5.0648,4.9684,4.932,4.838,4.7937,4.796,4.8379,4.8772,4.9072,4.9137,4.871,4.7844,4.7291,4.5908,4.4025,4.3149,4.2797,4.2891,4.2667,4.2659,4.28,4.1945,4.0949,3.9752,3.8415,3.7263,3.6189,0.0,0.0,0.0,0.0,0.0,0.0,0.0,0.0,0.0,0.0,0.5386,0.5683,0.0,0.0,0.0,0.0,0.0,0.0,0.0,0.0,0.0,0.7897,0.9269,1.0187,1.0542,1.0978,1.1492,1.2062,1.1869,1.2148,1.2868,1.3121,1.4061,1.5582,1.6904,1.797,1.8809,1.9231,1.9427,1.9475,1.9054,1.9105,1.9456,1.9262,0.0,0.0,2.0765,2.1632,2.2655,2.4376,2.5961,2.7435,2.8892,3.0248,3.1331,3.1519,3.2797,3.408,3.3817,3.4339,3.4933,3.4804,3.345,3.2096,3.1487,2.927,2.716,2.6406,2.5102,2.3951,2.3404,2.4913,2.7043,2.9581,3.223,3.5521,4.0127,4.2794,4.5027,4.7237,4.996,5.1725,5.1796,5.307,5.3692,5.3243,5.2763,5.2277,5.1902,5.059,4.9337,4.824,4.8045,4.8022,4.8026,4.8379,4.8772,4.9072,4.9396,4.9057,4.8189,4.7396,4.6091,4.4326,4.3103,4.242,4.2258,4.2245,4.2265,4.2216,4.1618,4.0618,3.9406,3.8635,3.7289,3.5762,0.0,0.0,0.0,0.0,0.0,0.0,0.0,0.3519,0.4167,0.5309,0.5782,0.6211,0.6716,0.6972,0.0,0.0,0.0,0.0,0.0,0.0,0.0,0.0,0.8764,0.9619,1.0605,1.0873,1.1328,1.2007,0.0,1.2065,1.2254,1.3018,1.3914,1.4948,1.6188,1.7128,1.7847,1.8207,1.8526,1.8806,1.903,1.9333,1.9684,0.0,0.0,0.0,2.1225,2.18,2.2499,2.3608,2.4954,2.6594,2.9005,3.0635,3.1913,3.2973,3.4255,3.5427,3.6058,3.6185,3.6054,3.5799,3.4103,3.2295,3.1201,2.8948,2.6774,2.5948,2.4785,2.3829,2.369,2.5026,2.6892,2.9133,3.1529,3.4774,3.9455,4.2326,4.4914,4.7422,5.0317,5.204,5.204,5.3147,5.3627,5.3162,5.2675,5.2234,5.1859,5.0223,4.8871,4.8085,4.8415,4.8682,4.8812,4.9227,4.9486,4.959,4.9481,4.8925,4.8058,4.7241,4.5959,4.4286,4.3025,4.2562,4.2516,4.1983,4.1876,4.1963,4.0777,3.9853,3.8978,3.7644,3.6373,3.5298,0.0,0.0,0.0,0.0,0.0,0.0,0.0,0.3603,0.4317,0.5618,0.6313,0.6837,0.7162,0.7562,0.7406,0.0,0.0,0.0,0.0,0.0,0.0,0.0,0.0,0.0,1.0816,0.0,0.0,1.2297,1.2414,0.0,0.0,0.0,0.0,0.0,1.6031,1.6882,1.7569,1.79,1.834,0.0,0.0,1.9908,2.0241,0.0,0.0,0.0,0.0,2.2006,2.2414,2.2787,2.3536,2.4815,2.7759,2.9929,3.1794,3.3759,3.51,3.6313,3.7672,3.7545,3.6884,3.6415,3.4682,3.2642,3.0874,2.8666,2.6642,2.5697,2.4621,2.3935,2.4172,2.5083,2.6532,2.8991,3.0906,3.3824,3.887,4.1965,4.4815,4.7584,5.0437,5.2211,5.2259,5.3199,5.356,5.3101,5.2297,5.1663,5.1366,4.9628,4.8513,4.8358,4.8821,4.9332,4.9719,5.0001,5.0053,4.999,4.9596,4.8872,4.7839,4.7154,4.5955,4.4214,4.2856,4.2442,4.2604,4.1322,4.1041,4.1261,3.9833,3.8971,3.8374,3.6716,3.5723,3.5068,0.0,0.0,0.0,0.0,0.0,0.0,0.0,0.3647,0.4571,0.6196,0.6378,0.6728,0.7714,0.7804,0.7536,0.0,0.0,0.0,0.0,0.0,0.0,0.0,0.0,0.0,0.0,0.0,0.0,1.3025,1.3078,0.0,0.0,0.0,0.0,0.0,0.0,1.7528,1.8413,1.9113,0.0,0.0,0.0,0.0,0.0,0.0,0.0,0.0,0.0,2.1476,2.1623,2.2369,2.2552,2.2784,2.466,2.786,3.1183,3.2832,3.5079,3.7018,3.7187,3.7974,3.842,3.7014,3.5613,3.3923,3.1422,2.8864,2.671,2.5697,2.4551,2.3739,2.3924,2.4839,2.6731,3.0071,3.184,3.4656,3.9902,4.2965,4.5364,4.7284,5.0221,5.2066,5.2187,5.3082,5.3471,5.3053,5.1054,4.9839,4.9695,4.8841,4.8455,4.8761,4.8953,4.9396,5.0065,5.004,5.0003,4.9808,5.0043,4.9203,4.7596,4.7386,4.6334,4.4559,4.2367,4.1544,4.1574,3.9912,3.919,3.9159,3.8901,3.8221,3.7414,3.6972,3.6182,3.5317,0.0,0.0,0.0,0.0,0.0,0.0,0.3447,0.3946,0.4845,0.6524,0.6721,0.7036,0.7854,0.8116,0.7915,0.0,0.0,0.0,0.0,0.0,0.0,0.0,0.0,0.0,0.0,0.0,1.208,1.3092,1.3821,0.0,0.0,0.0,0.0,0.0,0.0,1.7833,1.8569,1.943,0.0,0.0,0.0,0.0,0.0,0.0,0.0,0.0,0.0,0.0,2.2213,2.2,2.215,2.2469,2.304,2.5194,2.8161,3.1308,3.3849,3.5982,3.7668,3.8285,3.8236,3.7374,3.5794,3.3934,3.1785,2.931,2.7212,2.6548,2.5551,2.4789,2.485,2.5635,2.6949,2.9084,3.0368,3.2762,3.732,3.9943,4.2725,4.6375,4.9241,5.1321,5.2304,5.3274,5.3227,5.2018,5.0002,4.8765,4.8591,4.7877,4.7774,4.8469,4.8957,4.971,5.0677,5.0533,5.0256,4.9809,4.9591,4.8936,4.7885,4.7152,4.5902,4.4332,4.2671,4.1709,4.1185,3.96,3.9195,3.942,3.8124,3.74,3.6956,3.6248,3.5654,3.5089,0.0,0.0,0.0,0.0,0.0,0.2991,0.3875,0.4342,0.5145,0.6722,0.703,0.7367,0.8078,0.8438,0.8423,0.7848,0.0,0.0,0.0,0.0,0.0,0.0,0.0,0.0,0.0,0.0,1.2404,1.3412,1.4718,1.547,0.0,0.0,1.7519,1.7781,0.0,0.0,0.0,0.0,0.0,0.0,0.0,0.0,0.0,0.0,0.0,0.0,0.0,0.0,0.0,0.0,0.0,2.2717,2.2592,2.3783,2.5889,2.9529,3.2169,3.4419,3.6975,3.7649,3.7449,3.7068,3.5703,3.3975,3.1949,2.9762,2.792,2.7128,2.6221,2.5637,2.5662,2.613,2.6983,2.843,2.9704,3.1954,3.6107,3.8549,4.142,4.5627,4.7962,4.9998,5.1976,5.3222,5.318,5.1495,4.9455,4.8203,4.7962,4.693,4.7029,4.8258,4.8888,4.9717,5.0851,5.0646,5.0193,4.9613,4.908,4.8439,4.767,4.6755,4.5551,4.409,4.289,4.1721,4.0604,3.922,3.8842,3.8944,3.7565,3.6877,3.6624,3.5881,3.5411,3.5102,0.0,0.0,0.0,0.0,0.0,0.0,0.4315,0.4767,0.5475,0.6827,0.7223,0.7687,0.841,0.8799,0.9058,0.9169,0.0,0.0,0.0,0.0,0.0,0.0,0.0,0.0,0.0,0.0,1.3271,1.411,1.5772,1.6657,1.6797,1.8093,1.8501,1.8242,0.0,0.0,0.0,0.0,0.0,0.0,0.0,0.0,0.0,0.0,0.0,0.0,0.0,0.0,0.0,0.0,0.0,0.0,0.0,2.3975,2.5128,2.7574,3.0089,3.2471,3.455,3.5736,3.627,3.6049,3.5461,3.4285,3.185,3.0191,2.8764,2.7228,2.6283,2.5886,2.6059,2.6091,2.6723,2.8676,3.0527,3.3182,3.7503,4.0232,4.2772,4.5518,4.6549,4.8134,5.093,5.2754,5.3133,5.1915,4.9616,4.8167,4.7749,4.6153,4.6192,4.8317,4.8738,4.9377,5.0432,5.0104,4.962,4.9068,4.8682,4.7892,4.669,4.6448,4.5481,4.3926,4.2791,4.1343,3.9618,3.8571,3.7648,3.6989,3.7192,3.6882,3.6306,3.6049,3.5809,3.5517,0.0,0.0,0.0,0.0,0.0,0.0,0.0,0.4848,0.553,0.6292,0.6902,0.7541,0.8288,0.9038,0.9683,1.0251,0.0,0.0,0.0,0.0,0.0,0.0,0.0,0.0,0.0,0.0,1.4001,1.5008,1.6625,1.7902,1.8866,1.9452,2.0002,2.0496,2.0479,2.0902,0.0,0.0,0.0,0.0,0.0,0.0,2.3799,0.0,0.0,0.0,0.0,0.0,0.0,0.0,0.0,0.0,0.0,0.0,0.0,2.6651,2.8661,3.0817,3.2873,3.3892,3.4264,3.4042,3.3886,3.3242,3.129,3.0346,2.9585,2.843,2.773,2.7243,2.7173,2.7431,2.8428,3.0629,3.171,3.366,3.7567,3.9779,4.2282,4.5759,4.8989,5.1241,5.19,5.1993,5.1597,5.0578,4.8903,4.7596,4.6958,4.6099,4.6345,4.7821,4.8215,4.9053,5.0405,4.9882,4.9244,4.843,4.808,4.7371,4.6339,4.5717,4.48,4.3602,4.2384,4.0952,3.9418,3.8405,3.7814,3.7473,3.656,3.608,3.5858,3.5518,3.527,3.51,0.0,0.0,0.0,0.0,0.0,0.0,0.0,0.4971,0.5612,0.6251,0.7047,0.7863,0.873,0.9593,1.0362,1.0927,0.0,0.0,0.0,0.0,0.0,0.0,0.0,0.0,0.0,1.3297,1.44,1.5882,1.7282,1.8596,1.9862,2.0314,2.0833,2.1371,2.135,2.1809,0.0,0.0,0.0,0.0,0.0,0.0,2.4502,0.0,0.0,0.0,0.0,0.0,0.0,0.0,0.0,0.0,0.0,0.0,0.0,0.0,2.784,2.9312,3.1322,3.206,3.236,3.2621,3.2642,3.2303,3.0989,3.0493,2.9973,2.9014,2.8466,2.8045,2.7809,2.8113,2.8938,3.065,3.1951,3.3891,3.7278,3.9546,4.2287,4.6025,4.9548,5.1598,5.1407,5.1532,5.1119,5.0037,4.8685,4.7555,4.6695,4.5986,4.6035,4.7077,4.7528,4.8232,4.9261,4.9117,4.8514,4.7621,4.715,4.6482,4.5731,4.4904,4.4036,4.3158,4.2092,4.0632,0.0,3.8131,3.7727,3.7456,3.6368,3.5873,3.5791,3.5703,3.5501,3.5318,0.0,0.0,0.0,0.0,0.0,0.0,0.0,0.0,0.5801,0.6621,0.7605,0.8599,0.9621,1.0431,1.1043,1.1392,0.0,0.0,0.0,0.0,0.0,0.0,0.0,0.0,1.3363,1.3535,1.4635,1.6769,1.7809,1.8893,2.0075,2.0905,2.1251,2.1225,2.1804,2.2517,2.337,0.0,0.0,0.0,2.5261,2.5089,0.0,0.0,0.0,0.0,0.0,0.0,0.0,0.0,0.0,0.0,0.0,0.0,0.0,0.0,0.0,0.0,0.0,3.0435,3.055,3.1488,3.1661,3.1435,3.0893,3.0538,0.0,2.9042,2.865,2.8438,2.8228,2.8412,2.8852,2.9698,3.1684,3.4142,3.706,3.9927,4.2947,4.623,4.8655,5.0018,5.001,5.1367,5.1676,5.0193,4.8987,4.7808,4.6721,4.5588,4.5329,4.6208,4.6573,4.6959,4.7422,4.7838,4.7647,4.6816,4.6057,4.5416,4.4932,4.3989,4.3229,4.2653,4.1933,4.043,3.8531,3.7876,3.7354,3.6905,3.6448,3.6122,3.5978,3.6399,3.63,3.603,0.0,0.0,0.0,0.0,0.0,0.0,0.0,0.0,0.0,0.0,0.8488,0.9646,1.0036,1.1107,1.2005,0.0,0.0,0.0,0.0,0.0,0.0,0.0,0.0,0.0,1.3538,1.4121,1.5367,1.7313,1.869,2.0075,2.1464,2.2616,2.3062,2.288,2.3609,2.4064,2.4255,2.4862,0.0,0.0,2.5118,2.5028,0.0,0.0,0.0,0.0,2.4928,2.5605,0.0,0.0,0.0,0.0,0.0,0.0,0.0,0.0,2.8826,2.915,3.0054,0.0,2.8844,2.8922,2.9736,3.0352,0.0,3.0054,3.0557,2.9551,2.9449,2.9714,3.0186,3.0501,3.1488,3.3869,3.5059,3.6597,3.9336,4.2786,4.5764,4.7916,4.9861,5.0957,5.0899,5.1413,5.1224,4.9962,4.8804,4.7561,4.6138,4.5047,4.4439,4.4379,4.4679,4.5847,4.8001,4.6968,4.6641,4.6997,4.5468,4.4705,4.4637,4.3444,4.2825,4.2624,4.1334,4.0101,3.8968,3.7997,3.7181,3.6486,3.6012,3.5604,3.5344,3.5868,3.5991,3.603,0.0,0.0,0.0,0.0,0.0,0.0,0.0,0.0,0.0,0.0,0.0,0.0,0.0,0.0,0.0,0.0,0.0,0.0,0.0,0.0,0.0,0.0,0.0,1.3476,1.4172,1.4685,1.5904,1.7971,1.8805,2.027,2.2184,2.2658,2.3203,2.3853,2.4474,2.494,2.5171,2.5641,2.611,2.6576,2.5754,0.0,0.0,0.0,0.0,0.0,2.5173,2.5841,0.0,2.8332,2.9235,2.9569,0.0,0.0,0.0,0.0,2.9348,2.946,2.9569,2.9819,3.0055,3.007,3.0643,3.108,3.043,3.0442,3.0423,2.9783,2.9963,3.0435,3.1066,3.1575,3.2603,3.4655,3.5844,3.7693,4.1181,4.4175,4.6675,4.8252,4.9798,5.0874,5.123,5.1118,5.0681,4.9878,4.8756,4.7501,4.6225,4.52,4.4463,4.3992,4.3731,4.4516,4.6538,4.6076,4.5995,4.6259,4.4734,4.4123,4.4239,4.2839,4.2263,4.2318,4.1254,4.0192,3.9159,3.8267,3.7399,3.6475,3.5894,3.5554,3.5386,3.6094,3.6419,3.667,0.0,0.0,0.0,0.0,0.0,0.0,0.0,0.0,0.0,0.0,0.0,0.0,0.0,0.0,0.0,0.0,0.0,0.0,0.0,0.0,0.0,0.0,0.0,1.4043,1.5103,1.5183,1.6301,1.8563,1.8898,2.0248,2.2459,2.2425,2.3112,2.4438,2.481,2.5311,2.5822,2.6217,2.681,2.743,2.6596,0.0,0.0,0.0,0.0,0.0,0.0,0.0,0.0,2.8937,2.9725,3.0001,3.0433,0.0,0.0,0.0,0.0,0.0,2.9282,3.0826,3.2402,3.2075,3.224,3.2398,3.1879,3.1018,3.0258,2.9927,3.0399,3.1018,3.1599,3.2324,3.322,3.422,3.5791,3.8287,4.2315,4.446,4.6191,4.7812,4.8952,5.0032,5.0986,5.0644,5.0221,4.9947,4.8813,4.7628,4.6556,4.5415,4.4572,4.4151,4.3133,4.3139,4.4244,4.5044,4.5468,4.5439,4.4068,4.3588,4.3849,4.2363,4.1785,4.1964,4.1326,4.0366,3.9171,3.8462,3.7528,3.6482,3.5861,3.5552,3.5546,3.6586,3.7055,3.7402,0.0,0.0,0.0,0.0,0.0,0.0,0.0,0.0,0.0,0.0,0.0,0.0,0.0,0.0,0.0,0.0,0.0,0.0,0.0,0.0,0.0,1.4488,1.401,1.4506,1.6138,1.5537,1.6419,1.8929,2.0151,2.1265,2.2383,2.4129,2.4925,2.4908,2.4992,2.5164,2.545,2.6111,2.681,2.743,2.6873,0.0,0.0,0.0,0.0,0.0,0.0,0.0,0.0,2.7181,2.869,3.0149,2.867,0.0,0.0,0.0,0.0,0.0,3.0524,3.2431,3.3544,3.0337,3.1187,3.2309,3.0561,3.0652,3.093,3.0258,3.0904,3.1853,3.2838,3.3625,3.4462,3.5544,3.7326,3.9532,4.2045,4.332,4.4727,4.6742,4.7643,4.86,5.0062,5.0282,5.0286,4.9993,4.8846,4.7778,4.6892,4.4626,4.3443,4.3755,4.2392,4.1993,4.2831,4.35,4.4648,4.6193,4.4027,4.3338,4.395,4.2222,4.1689,4.2063,4.1203,4.0325,3.9356,3.8214,3.6949,3.5825,3.5517,3.5027,3.4792,3.6507,3.7089,3.7251,0.0,0.0,0.0,0.0,0.0,0.0,0.0,0.0,0.0,0.0,0.0,0.0,0.0,0.0,0.0,0.0,0.0,0.0,0.0,0.0,1.5795,1.5482,1.5132,1.557,1.6944,1.7149,1.8232,2.0224,2.1264,2.2482,2.3889,2.5397,2.5611,2.4717,2.496,2.5286,2.5669,2.6289,2.7059,2.7788,0.0,0.0,0.0,0.0,0.0,0.0,0.0,0.0,0.0,0.0,2.9252,3.0417,2.976,0.0,0.0,0.0,0.0,0.0,3.0058,3.1746,3.2975,3.1407,3.2838,3.4364,3.3216,3.2585,3.2079,3.1666,3.1926,3.2623,3.372,3.4252,3.5189,3.7047,3.8865,4.0595,4.2187,4.3175,4.4096,4.5182,4.6279,4.7503,4.887,4.9434,4.9724,4.9787,4.8969,4.7998,4.6969,4.5119,4.3859,4.3259,4.2031,4.1562,4.1859,4.2744,4.3913,4.5417,4.3869,4.3428,4.395,4.2307,4.1773,4.2092,4.1691,4.0804,3.9624,3.8783,3.746,3.5827,3.5513,3.5049,3.4772,3.6792,3.7925,3.8715,0.0,0.0,0.0,0.0,0.0,0.0,0.0,0.0,0.0,0.0,0.0,0.0,0.0,0.0,0.0,0.0,0.0,0.0,0.0,0.0,1.5858,1.6068,1.6154,1.6845,1.8161,1.8705,1.9845,2.1578,2.23,2.3575,2.5307,2.6007,2.5613,2.4406,2.4802,2.5236,2.5764,2.6414,2.7196,2.8046,0.0,0.0,0.0,0.0,0.0,0.0,0.0,0.0,0.0,0.0,0.0,0.0,0.0,0.0,0.0,2.982,2.9374,2.9196,2.9545,3.0843,3.2254,3.2696,3.4286,3.5651,3.536,3.4202,3.3122,3.3043,3.3157,3.3506,3.4334,3.4771,3.5763,3.8051,3.9607,4.0948,4.2134,4.2934,4.3511,4.3817,4.4983,4.6228,4.7539,4.8219,4.8816,4.9324,4.8845,4.8054,4.6974,4.5578,4.4206,4.3024,4.1941,4.1434,4.1485,4.2547,4.3605,4.4598,4.3788,4.3559,4.395,4.2405,4.1856,4.2092,4.2092,4.1244,3.9773,3.9228,3.7763,3.5877,3.5375,3.5263,3.561,3.7298,3.9017,4.0518,0.0,0.0,0.0,0.0,0.0,0.0,0.0,0.0,0.0,0.0,0.0,0.0,0.0,0.0,0.0,0.0,0.0,0.0,0.0,0.0,1.578,1.5914,1.6749,1.8161,2.023,1.943,2.0131,2.24,2.3332,2.4421,2.5661,2.5476,2.4902,2.4041,2.4402,2.4761,2.5205,2.6259,2.7131,2.7888,2.8514,0.0,0.0,0.0,0.0,0.0,0.0,0.0,0.0,0.0,0.0,0.0,0.0,0.0,3.0125,3.0012,2.9474,2.9109,2.9845,3.097,3.2125,3.2878,3.3719,3.4273,3.4059,3.384,3.37,3.3953,3.431,3.458,3.4675,3.5366,3.6401,3.7878,3.8891,4.0003,4.1456,4.1925,4.2449,4.3356,4.3899,4.465,4.5919,4.6657,4.7505,4.8654,4.8215,4.7585,4.6931,4.4979,4.3699,4.319,4.2035,4.1608,4.2053,4.2968,4.3851,4.4598,4.3891,4.3733,4.395,4.2405,4.1856,4.2092,4.2092,4.1244,3.9715,3.8668,3.7255,3.5632,3.4813,3.5671,3.7484,3.8179,4.0022,4.2129,0.0,0.0,0.0,0.0,0.0,0.0,0.0,0.0,0.0,0.0,0.0,0.0,0.0,0.0,0.0,0.0,0.0,0.0,0.0,1.5204,1.581,1.6423,1.7083,1.8171,1.9834,2.0876,2.2258,2.3937,2.4832,2.5481,2.59,2.5503,2.5247,2.5169,2.4616,2.5086,2.6312,2.6453,2.7098,2.796,2.7916,2.7759,0.0,0.0,0.0,0.0,0.0,0.0,0.0,0.0,2.9383,2.9992,2.9958,2.9768,2.9536,2.9627,2.8898,2.8225,2.9136,3.0405,3.1631,3.2509,3.3514,3.442,3.5086,3.4929,3.4713,3.5099,3.4845,3.4513,3.4513,3.5526,3.6737,3.781,3.9287,4.0422,4.0583,4.1067,4.1445,4.159,4.2322,4.3488,4.5176,4.6298,4.7229,4.8051,4.8073,4.7713,4.6928,4.5786,4.4698,4.3617,4.2773,4.2125,4.1682,4.2721,4.3469,4.3925,4.37,4.3531,4.334,4.2386,4.198,4.2063,4.1657,4.092,3.9855,3.8281,3.699,3.5985,3.5148,3.6057,3.7887,3.8774,4.0205,4.1888,0.0,0.0,0.0,0.0,0.0,0.0,0.0,0.0,0.0,0.0,0.0,0.0,0.0,0.0,0.0,0.0,0.0,0.0,1.4452,1.5041,1.5781,1.6602,1.7052,1.802,1.9639,2.1594,2.3182,2.4384,2.5356,2.5844,2.5835,2.548,2.5573,2.6001,2.5197,2.5836,2.7412,2.6937,2.7328,2.8232,2.769,2.7375,0.0,0.0,0.0,0.0,0.0,0.0,0.0,0.0,2.9778,3.037,3.0403,2.9998,2.9464,2.9592,2.8871,2.826,2.9147,3.0249,3.1371,3.2125,3.3543,3.5026,3.5878,3.5604,3.5444,3.6361,3.5702,3.4941,3.4839,3.579,3.6917,3.7844,3.9206,4.0025,3.9798,4.0122,4.0321,4.0231,4.1227,4.2611,4.437,4.5637,4.6679,4.7606,4.7713,4.7491,4.6782,4.6165,4.5247,4.3845,4.3389,4.278,4.1887,4.2785,4.3269,4.3406,4.3434,4.3373,4.3155,4.2428,4.2092,4.2063,4.1395,4.0688,3.9855,3.8176,3.7069,3.636,3.6014,3.6851,3.8406,3.9624,4.0798,4.2081,0.0,0.0,0.0,0.0,0.0,0.0,0.0,0.0,0.0,0.0,0.0,0.0,0.0,0.0,0.0,0.0,0.0,0.0,1.4172,1.4913,1.5671,1.6296,1.6641,1.7832,2.0053,2.1363,2.2444,2.3376,2.4648,2.5379,2.547,2.5326,2.5695,2.6384,2.6202,2.6937,2.8359,2.7747,2.7938,2.863,2.7948,2.7682,2.7631,0.0,0.0,0.0,0.0,0.0,0.0,0.0,2.9445,3.0391,2.9838,2.9805,3.0009,3.0072,2.9701,2.9422,3.0034,3.0779,3.1486,3.1817,3.3899,3.5863,3.6,3.5714,3.5875,3.7562,3.7016,3.6168,3.5778,3.6175,3.6961,3.8023,3.8302,3.8597,3.9089,3.9073,3.9143,3.9539,4.0697,4.2032,4.3476,4.4502,4.571,4.7205,4.7029,4.6782,4.6431,4.5895,4.5044,4.3823,4.3769,4.3497,4.29,4.3375,4.3405,4.3101,4.3166,4.3341,4.3574,4.2547,4.2092,4.2063,4.1366,4.0607,3.9715,3.8409,3.7404,3.6693,3.7329,3.8211,3.926,4.0756,4.1967,4.3028,0.0,0.0,0.0,0.0,0.0,0.0,0.0,0.0,0.0,0.0,0.0,0.0,0.0,0.0,0.0,0.0,0.0,0.0,1.4633,1.5502,1.6181,1.6495,1.7832,1.8951,1.9796,2.134,2.2664,2.3667,2.4565,2.4837,2.4457,2.4555,2.5252,2.6384,2.6514,2.7147,2.8167,2.7842,2.7556,2.7262,2.6915,2.6148,2.5216,0.0,0.0,0.0,0.0,0.0,0.0,0.0,0.0,0.0,2.9387,2.9501,2.9468,2.9199,2.8886,2.8611,2.8737,3.0103,3.1669,3.2454,3.4753,3.6864,3.7263,3.7374,3.7206,3.6409,3.5464,3.4757,3.4477,3.5166,3.5994,3.6693,3.7545,3.8031,3.7844,3.8322,3.8686,3.8639,3.9959,4.1513,4.3136,4.4404,4.571,4.7205,4.7029,4.687,4.673,4.6184,4.5331,4.4145,4.4091,4.3805,4.319,4.3471,4.3405,4.3129,4.3031,4.298,4.2912,4.2315,4.2092,4.2034,4.0873,4.0173,3.9686,3.7987,3.7336,3.7519,3.7386,3.819,3.9605,4.0364,4.1135,4.202,0.0,0.0,0.0,0.0,0.0,0.0,0.0,0.0,0.0,0.0,1.2638,1.3451,0.0,0.0,0.0,1.5177,1.5395,0.0,1.506,1.5697,1.6455,1.7234,1.8251,1.9267,2.025,2.2013,2.2863,2.2732,2.3644,2.3995,2.3807,2.4647,2.5744,2.7065,2.7779,2.8311,2.864,2.8418,2.7841,2.7007,2.6407,2.5569,2.4666,0.0,0.0,0.0,0.0,0.0,0.0,0.0,0.0,0.0,2.8886,2.8914,2.8797,2.8906,2.8964,2.914,2.9803,3.1464,3.3176,3.4044,3.6552,3.8963,3.9409,3.8605,3.7316,3.5675,3.4765,3.4251,3.4251,3.4827,3.5585,3.6606,3.7104,3.7513,3.7966,3.7986,3.8175,3.8706,3.9845,4.1318,4.3183,4.4086,4.5363,4.7177,4.6837,4.6596,4.6699,4.6372,4.5518,4.4115,4.4151,4.3895,4.3335,4.3642,4.3526,4.3101,4.3166,4.291,4.2453,4.1926,4.1686,4.1628,4.0242,3.9401,3.8956,3.7988,3.7911,3.8396,3.8229,3.8917,4.004,4.0554,4.0984,4.1546,0.0,0.0,0.5991,0.6929,0.0,0.0,0.0,0.0,0.0,1.1233,1.2067,1.2964,0.0,0.0,0.0,1.4966,1.5329,1.5489,1.5416,1.5749,1.6648,1.8213,1.8386,1.9373,2.1394,2.3034,2.2982,2.1141,2.2328,2.3069,2.3432,2.5178,2.669,2.793,2.9386,2.9767,2.934,2.9019,2.8315,2.7275,2.6138,2.5517,2.5154,2.3482,0.0,0.0,0.0,0.0,0.0,0.0,0.0,0.0,2.8194,2.7997,2.7968,2.8799,2.9492,3.0357,3.2044,3.3757,3.5248,3.6105,3.8769,4.1275,4.1602,3.9254,3.6618,3.5413,3.4659,3.4276,3.4538,3.4734,3.541,3.7092,3.6778,3.6967,3.8777,3.8022,3.7843,3.9404,4.024,4.1463,4.3421,4.3758,4.4775,4.7011,4.6476,4.6123,4.627,4.628,4.556,4.3823,4.401,4.3891,4.3335,4.3784,4.3686,4.3092,4.3361,4.3084,4.2196,4.1451,4.1047,4.0873,3.9448,3.8534,3.8035,3.8349,3.8808,3.9288,3.9577,3.9984,4.0455,4.0968,4.119,4.1318,0.0,0.0,0.741,0.7732,0.0,0.0,0.0,0.0,1.0713,1.1368,1.2067,1.2817,1.3625,1.4278,0.0,1.5165,1.5631,1.5738,1.534,1.6417,1.731,1.789,2.0503,2.2336,2.3212,2.321,2.2608,2.1339,2.2551,2.2925,2.2536,2.4436,2.5913,2.7005,2.8138,2.8456,2.8114,2.7105,2.6238,2.5515,2.4978,2.418,2.3321,2.3276,2.302,0.0,0.0,0.0,0.0,0.0,0.0,0.0,2.5802,2.6182,2.653,2.674,2.7856,2.9285,3.0659,3.2329,3.4295,3.6786,3.8967,4.0318,3.9607,3.7991,3.6431,3.5593,3.4265,3.319,3.2791,3.3009,3.3681,3.5153,3.5607,3.6241,3.7593,3.8245,3.8841,3.9516,4.0604,4.1909,4.3468,4.3904,4.4645,4.6045,4.6233,4.6031,4.5335,4.5578,4.5023,4.3525,4.3679,4.3726,4.3519,4.4068,4.377,4.2722,4.2939,4.2551,4.1567,4.1249,4.0554,3.9557,3.8956,3.8609,3.8611,3.8364,3.8904,3.9882,3.9606,3.9842,4.0383,4.0145,4.0129,4.0431,0.0,0.0,0.0,0.0,0.0,0.0,0.0,0.0,1.0464,1.1233,1.1706,1.2301,1.3266,1.3847,0.0,0.0,1.5307,1.5649,1.5818,1.6552,1.7424,1.8382,2.0969,2.2377,2.2369,2.244,2.1972,2.0959,2.1933,2.2273,2.2049,2.3894,2.5188,2.6144,2.7389,2.7276,2.6135,2.6054,2.5236,2.3979,2.3802,2.3354,2.276,2.2441,2.2012,2.1689,2.2168,0.0,0.0,0.0,0.0,0.0,0.0,0.0,2.5504,2.6199,2.7225,2.8604,3.0613,3.2625,3.5045,3.8558,4.0044,4.0578,4.02,3.8747,3.7169,3.6129,3.4112,3.2442,3.1981,3.2181,3.2822,3.4072,3.4883,3.6009,3.7937,3.842,3.9156,4.0516,4.1213,4.2122,4.3637,4.387,4.4498,4.5874,4.5937,4.5678,4.517,4.5453,4.4957,4.3557,4.3754,4.3861,4.3784,4.4209,4.3825,4.2749,4.2988,4.2453,4.1241,4.081,4.0168,3.9343,3.889,3.8695,3.8685,3.8996,3.9486,4.0067,3.9801,3.9963,4.0356,3.9876,3.9804,4.0122,0.0,0.0,0.0,0.0,0.0,0.0,0.0,0.0,0.0,1.1065,1.1319,1.1823,1.287,1.3468,1.3923,0.0,0.0,0.0,1.6173,1.6616,1.7563,1.9253,2.0774,2.137,2.0986,2.1418,2.1316,2.0584,2.1203,2.1724,2.2189,2.361,2.4701,2.5503,2.6705,2.6191,2.4448,2.497,2.4291,2.2773,2.2508,2.2403,2.2328,2.1268,2.0783,2.0733,2.1117,2.1649,2.2229,2.292,0.0,0.0,0.0,0.0,2.4178,2.5515,2.6495,2.7733,3.017,3.2926,3.6038,3.9912,4.0945,4.1088,4.1426,3.9934,3.8112,3.6787,3.4269,3.2173,3.1673,3.1766,3.23,3.3445,3.444,3.6034,3.8568,3.8706,3.9383,4.155,4.181,4.2368,4.3761,4.3665,4.4129,4.5641,4.5248,4.4911,4.4752,4.528,4.4899,4.3504,4.3912,4.4118,4.4096,4.4303,4.3973,4.3069,4.3107,4.2438,4.1181,4.0583,3.9974,3.9466,3.89,3.8674,3.8717,3.9599,4.0054,4.0195,4.0062,4.0198,4.0399,3.9876,3.9848,4.0194,0.0,0.0,0.0,0.0,0.0,0.0,0.0,0.0,0.0,0.0,1.1633,1.2137,1.2523,1.3305,1.3805,1.3784,1.4451,1.4994,1.5428,0.0,0.0,2.018,2.0715,2.1212,2.1663,2.1015,2.0758,2.0928,2.1034,2.1948,2.3624,2.4029,2.4714,2.5652,2.5458,2.5197,2.4842,2.2564,2.193,2.232,2.0806,2.0346,2.0527,2.0116,1.9534,1.8911,1.877,1.9411,2.0324,2.0082,2.0617,0.0,0.0,0.0,2.1348,2.2396,2.4051,2.5777,2.6945,3.0896,3.5391,3.8442,3.9913,4.0666,4.1088,3.9982,3.8499,3.7114,3.4839,3.2818,3.18,3.1368,3.1628,3.3111,3.4379,3.5943,3.7999,3.9352,4.0419,4.1293,4.2136,4.2874,4.3508,4.3333,4.3343,4.3863,4.3778,4.3406,4.2646,4.3845,4.4059,4.2849,4.3826,4.4368,4.4378,4.4612,4.4429,4.3766,4.2836,4.2152,4.16,4.1169,4.044,3.9428,3.8656,3.8695,3.9373,3.9438,3.9928,4.0575,4.0142,4.0257,4.0587,3.9963,3.9963,4.0396,0.0,0.0,0.0,0.0,0.0,0.0,0.0,0.0,0.0,0.0,0.0,1.2143,1.2315,1.2888,1.3228,1.3266,1.3709,1.4467,1.5512,1.6669,1.7799,1.8779,1.9034,1.925,1.946,1.9347,1.9533,2.0092,2.0105,2.1289,2.3607,2.3822,2.4548,2.5703,2.5344,2.4679,2.3566,2.1768,2.0902,2.0604,1.9506,1.9943,2.1111,1.9791,1.9634,1.9975,1.9002,1.8757,1.9001,1.9261,1.9809,2.0423,2.0443,0.0,0.0,0.0,2.2813,2.4643,2.7725,3.1322,3.4723,3.7039,3.8577,3.9566,3.994,3.9565,3.8827,3.7938,3.6014,3.3779,3.1387,3.0886,3.093,3.128,3.2861,3.4723,3.6764,3.8475,4.0134,4.1822,4.2638,4.3243,4.3641,4.3698,4.3556,4.3217,4.3324,4.3211,4.2838,4.3437,4.3704,4.3561,4.4026,4.4447,4.4815,4.4769,4.4486,4.3834,4.291,4.2466,4.2402,4.1377,4.0665,4.0195,3.9676,3.9325,3.9203,3.9494,3.9845,4.0139,3.9799,3.9713,3.9756,3.9455,3.944,3.9609,0.0,0.0,0.0,0.0,0.0,0.0,0.0,0.0,0.0,0.0,0.0,1.2144,1.2141,0.0,0.0,0.0,1.3114,1.3914,1.5305,1.6197,1.6916,1.738,1.7504,1.7578,1.7624,1.7608,1.8083,1.9102,1.9212,2.0797,2.3719,2.4014,2.4937,2.6239,2.5688,2.445,2.2724,2.1626,2.0707,1.9943,1.9456,2.0216,2.1582,2.0362,2.057,2.127,1.9702,1.8983,1.8785,1.8891,1.9249,1.97,1.9698,1.9961,0.0,0.0,0.0,2.3354,2.7807,3.0442,3.2478,3.4999,3.6692,3.7939,3.8744,3.9056,3.9082,3.8576,3.7046,3.4854,3.1806,3.0902,3.0539,3.0269,3.1778,3.3754,3.5856,3.782,3.9834,4.2147,4.2883,4.3341,4.3657,4.3662,4.3377,4.2745,4.2564,4.2495,4.2495,4.2768,4.3126,4.3453,4.4072,4.4559,4.4881,4.4851,4.4411,4.3743,4.318,4.2941,4.294,4.1862,4.1303,4.113,4.0567,3.9795,3.8999,3.9494,3.9662,3.9535,3.9313,3.9117,3.9032,3.8948,3.9016,3.9195,0.0,0.0,0.0,0.0,0.0,0.0,0.0,0.0,0.0,0.0,0.0,1.2207,1.2014,1.2254,1.2445,1.2511,1.2894,1.3453,1.4233,1.5568,1.6504,1.6923,1.6876,0.0,1.767,1.6346,1.6532,1.838,1.8671,2.0796,2.4533,2.5207,2.6312,2.7719,2.6188,2.4695,2.3275,2.1876,2.141,2.1564,2.1332,2.0983,2.0732,2.2094,2.2352,2.175,2.006,1.9993,2.0378,1.8528,1.8316,1.8782,1.8276,1.8079,1.8205,0.0,0.0,0.0,2.513,2.6355,2.7593,3.1855,3.4073,3.5707,3.7709,3.8708,3.9091,3.8769,3.7545,3.5921,3.3905,3.1834,3.0627,3.1291,3.2191,3.3655,3.607,3.8156,4.0081,4.1819,4.2602,4.3069,4.3297,4.2593,4.2092,4.2064,4.0916,4.0264,4.0264,4.1389,4.1901,4.1439,4.3647,4.4671,4.4224,4.4624,4.4394,4.3543,4.3687,4.3454,4.2887,4.3006,4.2752,4.2124,4.0716,3.9782,3.9203,3.9369,3.9215,3.8917,3.8671,3.8712,3.8876,3.8629,3.9033,3.9831,0.0,0.0,0.0,0.0,0.0,0.0,0.0,0.0,0.0,0.0,0.0,0.0,0.0,1.2215,1.2216,1.2417,1.2931,1.3408,1.379,1.4606,1.52,1.5482,1.5643,0.0,1.585,1.5704,1.6277,1.7587,1.7612,1.9473,2.2984,2.3335,2.4026,2.5034,2.5584,2.5379,2.4475,2.2441,2.1544,2.1526,2.153,2.21,2.2948,2.2618,2.3034,2.3491,2.1216,1.9867,1.9053,1.828,1.7712,1.7357,1.7166,1.7405,1.8003,1.9128,2.0531,2.2144,2.4176,2.5333,2.6619,2.9377,3.135,3.308,3.4766,3.6593,3.7903,3.7868,3.7116,3.6089,3.4796,3.2263,3.0481,3.0732,3.1165,3.2368,3.4911,3.7287,3.9469,4.1394,4.2561,4.3206,4.3282,4.2549,4.182,4.1222,4.0392,3.9824,3.9703,4.0297,4.0826,4.1367,4.2478,4.3517,4.4464,4.4424,4.4442,4.4521,4.3867,4.3602,4.3718,4.3336,4.2779,4.2066,4.1255,4.0275,3.9175,3.9114,3.8723,3.8243,3.8162,3.8081,3.8081,3.8081,3.8221,3.8501,0.0,0.0,0.0,0.0,0.0,0.9714,0.983,0.0,0.0,0.0,0.0,0.0,0.0,0.0,1.2533,1.2598,1.2923,1.3166,1.3344,1.395,1.4398,1.4582,1.4752,0.0,1.4922,1.5016,1.5548,1.6511,1.6855,1.8385,2.108,2.1664,2.2413,2.325,2.4139,2.4692,2.4787,2.3198,2.2438,2.2325,2.2813,2.362,2.4505,2.4279,2.4663,2.5039,2.2783,2.1012,1.9594,1.8642,1.7952,1.738,1.6701,1.7044,1.7922,1.9169,2.0714,2.2214,2.2959,2.3934,2.5307,2.7477,2.8758,3.0109,3.2418,3.4408,3.5939,3.6507,3.6364,3.5926,3.5049,3.2647,3.0712,3.0603,3.0705,3.1632,3.4079,3.6483,3.8931,4.1213,4.232,4.3025,4.3395,4.2485,4.157,4.0891,4.0054,3.9485,3.9287,3.9485,4.0216,4.159,4.1843,4.2823,4.4598,4.424,4.4374,4.5,4.416,4.3917,4.4283,4.3901,4.3203,4.2291,4.1882,4.0756,3.9159,3.8533,3.803,3.7687,3.749,3.7439,3.7517,3.7636,3.7709,3.791,0.0,1.1778,1.1362,0.9882,1.0168,1.0403,0.9724,1.1282,1.2573,1.2615,0.0,0.0,0.0,0.0,0.0,1.3069,1.2878,1.278,1.2878,1.362,1.4138,1.4354,1.4372,1.4637,1.5158,1.4289,1.4263,1.5184,1.6376,1.7636,1.8996,2.045,2.1755,2.2778,2.2032,2.2547,2.4013,2.4024,2.4022,2.4112,2.5236,2.537,2.5079,2.7103,2.7225,2.6182,2.4724,2.3505,2.2177,1.9646,1.9014,1.8927,1.6985,1.6951,1.7845,1.8768,2.0185,2.1396,0.0,0.0,0.0,2.6084,2.6325,2.6922,3.0829,3.2284,3.3215,3.4698,3.5304,3.5374,3.4747,3.2905,3.1354,3.0948,3.0914,3.1668,3.3688,3.6031,3.8554,4.1293,4.1844,4.2416,4.3525,4.228,4.1277,4.1087,3.9828,3.8987,3.8726,3.8987,4.0041,4.1901,4.1798,4.2595,4.4511,4.4048,4.4117,4.4769,4.4537,4.4425,4.4425,4.4705,4.4089,4.2871,4.2437,4.1127,3.9102,3.7631,3.7134,3.7204,3.6609,3.675,3.7289,3.7289,3.7685,3.8241,1.2398,1.234,1.1984,1.0433,1.0577,1.078,1.0457,1.1043,1.1897,0.0,0.0,0.0,1.4342,1.4485,1.4384,1.4043,1.3849,1.3467,1.2938,1.3113,1.3258,1.3311,1.3835,1.4166,1.4317,1.4177,1.4356,1.4903,1.5725,1.6701,1.779,1.9182,2.0217,2.0959,2.1104,2.1537,2.217,2.214,2.2874,2.4002,2.4002,2.478,2.6031,2.6539,2.6415,2.599,2.6139,2.4226,2.1603,2.1321,2.0183,1.8748,1.812,1.8223,1.8829,1.9888,2.1038,2.1971,2.2232,0.0,0.0,0.0,0.0,0.0,2.7303,2.8897,3.0571,3.2362,3.2556,3.2613,3.3155,3.2022,3.0833,3.0344,3.0179,3.0926,3.3253,3.5267,3.7339,3.9565,4.0976,4.1844,4.2028,4.14,4.0715,4.0206,3.871,3.7647,3.7309,3.7625,3.8265,3.9247,4.0561,4.186,4.3015,4.3574,4.4135,4.4571,4.4478,4.4425,4.4425,4.4705,4.4026,4.2648,4.211,4.0907,3.9304,3.7827,3.7072,3.6798,3.6363,3.6429,3.6883,3.7031,3.7363,3.787,1.3303,1.3279,1.3008,1.1782,1.205,1.2283,1.189,1.2227,1.2972,0.0,0.0,0.0,1.5393,1.5537,1.5312,1.4765,1.4518,1.4052,1.3181,1.3173,1.3273,1.3488,1.3824,1.4125,1.4275,1.4246,1.4297,1.4424,1.5406,1.5955,1.6134,1.7631,1.8428,1.8679,1.9271,1.9798,2.0268,2.0231,2.1497,2.3652,2.4265,2.5227,2.6336,2.7034,2.6929,2.6425,2.6877,2.5322,2.2981,2.2802,2.1197,1.9245,1.9246,1.9286,1.9451,2.0104,2.1203,2.2243,2.2102,2.2366,2.2723,2.289,0.0,0.0,2.5863,2.7146,2.8458,3.0088,3.0598,3.0866,3.1271,3.0575,2.9704,2.8983,2.8706,2.9568,3.2498,3.4282,3.6241,3.87,4.0062,4.1024,4.1498,4.104,4.0472,3.9706,3.826,3.7084,3.6319,3.6919,3.7528,3.8052,3.9528,4.0993,4.2392,4.2873,4.3473,4.4238,4.4407,4.4401,4.4355,4.484,4.4271,4.2842,4.2151,4.097,3.9367,3.7529,3.6768,3.6765,3.6285,3.6379,3.6908,3.7567,3.7776,3.793,0.0,1.4436,1.4283,1.3497,1.3983,1.4308,1.3755,1.4239,1.4953,0.0,1.579,1.6024,1.6849,1.6708,1.6264,1.551,1.5138,1.4576,1.3693,1.359,1.3788,1.4264,1.4272,1.4425,1.475,1.4613,1.4354,1.3921,1.5267,1.5406,1.4439,1.6185,1.6839,1.6539,1.7263,1.796,1.8548,1.8531,2.0062,2.2719,2.4742,2.5735,2.6199,2.7792,2.7875,2.7196,2.723,2.6472,2.5316,2.4124,2.2252,2.043,2.0544,2.0369,2.0134,2.0037,2.1247,2.2392,2.1709,2.1858,2.2428,2.3324,2.294,0.0,2.5444,2.6158,2.6678,2.79,2.8851,2.9372,2.9175,2.8737,2.8096,2.7268,2.6886,2.7927,3.1405,3.2976,3.4917,3.8024,3.9068,4.0022,4.1264,4.0939,4.0227,3.9349,3.8132,3.6823,3.5611,3.6541,3.7279,3.7699,3.8649,4.01,4.2122,4.2024,4.2569,4.3761,4.4167,4.4292,4.4199,4.4998,4.455,4.3169,4.236,4.1035,3.935,3.7049,3.6497,3.6958,3.6259,3.6439,3.7226,3.8419,3.8573,3.8342,1.5274,1.5195,1.502,1.4445,1.477,1.5184,0.0,1.5221,1.5684,1.7316,1.7609,1.7713,1.7909,1.7686,1.7362,1.6937,1.6208,1.5417,1.4594,1.3856,1.3667,1.4192,1.4909,1.5236,1.5114,1.5786,1.5455,1.4058,1.5082,1.5131,1.4279,1.6249,1.6922,1.6557,1.7648,1.7981,1.7763,1.836,1.9013,1.9807,2.1033,2.3136,2.56,2.6093,2.6665,2.7279,2.7926,2.7293,2.5996,2.53,2.4083,2.2815,2.2357,2.2235,2.2195,2.2133,2.2435,2.2918,2.3335,2.3204,2.2879,2.2766,2.3407,0.0,2.3574,2.4054,2.4857,2.5808,2.5704,2.5761,2.682,2.6746,2.6385,2.5994,2.6012,2.6963,2.943,3.066,3.2413,3.5406,3.7372,3.8756,3.945,3.9773,3.9535,3.8667,3.7009,3.5618,3.4703,3.5352,3.6025,3.6592,3.7973,3.9325,4.052,4.1352,4.2225,4.3083,4.3387,4.3673,4.395,4.411,4.3676,4.2653,4.1707,4.0602,3.9379,3.7717,3.7113,3.7134,3.615,3.6548,3.7813,3.8429,3.8987,3.9534,1.5895,1.5969,1.6061,1.5805,0.0,0.0,0.0,1.6662,1.6961,1.8622,1.8785,1.8575,1.8098,1.8095,1.7946,1.7432,1.6729,1.5927,1.5006,1.4164,1.3814,1.4102,1.4781,1.5339,1.5736,1.5574,1.5262,1.4813,1.4752,1.4399,1.374,1.5273,1.5991,1.6031,1.6792,1.7223,1.7357,1.7545,1.7684,1.8017,2.035,2.2419,2.4195,2.5588,2.6614,2.7435,2.8123,2.7952,2.7182,2.5749,2.5279,2.497,2.2903,2.3172,2.4009,2.2915,2.3067,2.358,2.3474,2.3203,2.296,2.298,2.3611,0.0,0.0,2.4568,2.52,2.6773,2.5795,2.5102,2.6604,2.6055,2.5239,2.4873,2.4803,2.5163,2.6154,2.8168,3.0583,3.3472,3.5248,3.6716,3.7883,3.8584,3.8504,3.7499,3.6238,3.5255,3.4563,3.5146,3.5711,3.6102,3.7139,3.8325,3.9594,4.0323,4.1164,4.2118,4.2674,4.3123,4.3453,4.3734,4.3445,4.2594,4.1674,4.0554,3.9225,3.7895,3.7513,3.782,3.6968,3.7194,3.8208,3.9304,3.9886,4.0285,1.6197,1.6574,1.6973,1.6973,0.0,0.0,0.0,0.0,1.8013,1.9386,1.9586,1.9293,1.8549,1.8795,1.8851,1.8426,1.7524,1.6633,1.5862,1.4745,1.4184,1.4272,1.4562,1.5166,1.6093,1.5127,1.4763,1.5069,1.4331,1.3717,1.3207,1.4289,1.5065,1.5586,1.5986,1.6576,1.7223,1.6806,1.6666,1.6985,2.0141,2.1657,2.2319,2.4885,2.6336,2.7191,2.8185,2.8593,2.8345,2.6611,2.6631,2.6819,2.3838,2.442,2.5824,2.3904,2.4088,2.4756,2.3923,2.3627,2.3643,2.3978,2.4325,2.4837,0.0,0.0,0.0,2.762,2.6317,2.5246,2.6426,2.5428,2.4264,2.3712,2.3635,2.3518,2.3096,2.5577,2.8475,3.1148,3.2635,3.4203,3.6064,3.6711,3.6736,3.5977,3.5105,3.4644,3.4629,3.5129,3.5579,3.5912,3.6296,3.7292,3.8847,3.9048,3.9853,4.1227,4.1874,4.2423,4.2852,4.3309,4.3119,4.2375,4.1508,4.0422,3.9102,3.8007,3.7965,3.8506,3.7857,3.8033,3.8785,4.0253,4.0822,4.1048,1.5971,1.6628,1.7178,1.7178,0.0,0.0,0.0,0.0,1.8038,1.9045,1.9957,2.0562,2.0546,2.0764,2.1062,2.1532,1.9627,1.8341,1.8285,1.5992,1.4812,1.522,1.4955,1.4968,1.5379,1.5402,1.4763,1.3464,1.3754,1.3652,1.3112,1.4193,1.5083,1.5785,1.6502,1.706,1.7427,1.6917,1.6713,1.6879,1.8023,1.8924,1.9888,2.255,2.432,2.5749,2.8549,2.9286,2.8971,2.9278,2.885,2.8123,2.723,2.7382,2.7704,2.6701,2.676,2.7051,2.6701,2.645,2.6242,2.6105,2.664,2.6903,2.5798,0.0,2.6438,2.5149,0.0,2.4357,2.4096,0.0,0.0,2.2418,2.3011,2.3093,2.188,2.2912,2.4674,2.7008,2.9167,3.1305,3.333,3.3142,3.3236,3.4122,3.2458,3.2284,3.4345,3.4683,3.519,3.6056,3.574,3.6364,3.8024,3.7482,3.8449,4.0859,4.0777,4.1275,4.2315,4.2152,4.1806,4.1249,4.0558,3.9833,3.9131,3.8593,3.8568,3.8765,3.7923,3.8627,4.0182,4.066,4.1397,4.2225,1.5582,1.631,1.6823,1.6702,0.0,0.0,0.0,0.0,2.0691,1.9873,2.1381,2.2342,2.1758,2.1645,2.2022,2.299,2.1063,1.9591,1.9242,1.7205,1.5729,1.514,1.498,1.5042,1.5302,1.467,1.4201,1.39,1.3474,1.3305,1.3404,1.4255,1.5246,1.6327,1.6451,1.6849,1.7338,1.6466,1.6173,1.6349,1.7067,1.7924,1.9074,2.209,2.4817,2.7264,2.9594,3.0241,2.9925,2.9458,2.9555,2.9675,2.8535,2.8637,2.8988,2.8366,2.8036,2.7758,2.7244,2.7446,2.763,2.6879,2.7613,2.8209,2.6994,2.6627,2.6665,2.7003,0.0,0.0,0.0,0.0,0.0,0.0,2.2482,2.2064,2.0909,2.0877,2.2028,2.4742,2.6352,2.8379,3.1324,3.1321,3.1719,3.3038,3.1913,3.1954,3.3666,3.4152,3.4546,3.4996,3.4879,3.5489,3.6892,3.703,3.793,3.9572,3.9804,4.0419,4.1304,4.1234,4.1091,4.0972,4.0479,3.978,3.8919,3.8767,3.8881,3.9246,3.8956,3.9732,4.1065,4.1525,4.2147,4.2783,1.5023,1.5868,1.6474,1.6316,1.7009,0.0,0.0,2.0945,2.2149,2.0962,2.2515,2.3606,2.3357,2.3171,2.357,2.4829,2.3047,2.1463,2.0575,1.8607,1.6923,1.5717,1.5248,1.5099,1.524,1.4079,1.3717,1.4177,1.3329,1.3411,1.4367,1.4577,1.5664,1.7377,1.6556,1.6734,1.7577,1.6541,1.617,1.6314,1.7273,1.8699,2.0487,2.2918,2.5917,2.8981,3.0522,3.1114,3.1065,3.0193,3.0509,3.107,2.9921,3.007,3.0602,3.022,2.9836,2.9361,2.8603,2.8968,2.9262,2.7705,2.8238,2.8792,2.7597,2.7156,2.7201,2.8032,2.672,0.0,0.0,0.0,2.3818,2.2974,0.0,2.1835,2.0486,2.0079,2.0677,2.279,2.4215,2.6136,2.9024,2.8859,2.9422,3.1472,3.0505,3.0829,3.3054,3.3611,3.4044,3.4415,3.4349,3.484,3.5952,3.6308,3.7177,3.856,3.8965,3.9629,4.0493,4.0647,4.0523,4.0168,4.0311,3.9702,3.8604,3.8782,3.9194,3.9768,3.9858,4.0645,4.1792,4.2129,4.2682,4.325,1.4338,1.5406,1.6297,1.6297,1.713,1.8288,1.9726,2.0226,2.0882,2.2248,2.2889,2.3948,2.5795,2.6031,2.6527,2.7765,2.6141,2.4411,2.2875,2.0322,1.8481,1.7639,1.599,1.5095,1.5121,1.398,1.3468,1.3617,1.3336,1.4257,1.6293,1.5347,1.6453,1.9146,1.7109,1.7034,1.8419,1.7518,1.7115,1.7225,1.8925,2.1683,2.4826,2.5131,2.7203,3.0071,3.0894,3.1748,3.2457,3.2399,3.2269,3.2137,3.2112,3.2463,3.2869,3.2713,3.2901,3.2909,3.1924,3.1899,3.1574,2.9068,2.8673,2.8495,2.691,2.7673,2.8255,2.6545,2.7317,2.7721,2.5966,2.547,2.4804,2.3174,2.3473,0.0,0.0,2.0879,2.1002,2.0652,2.2919,2.4988,2.6134,2.4815,2.5373,2.8857,2.7105,2.7921,3.2578,3.3096,3.3779,3.493,3.4394,3.4509,3.5313,3.4841,3.5787,3.8123,3.8266,3.8891,3.9939,4.0515,3.9876,3.8333,3.9646,3.941,3.8163,3.8816,3.9601,4.0344,4.0157,4.1142,4.264,4.2159,4.2722,4.3675,1.43,1.4891,1.5377,1.5377,1.6418,1.7722,1.9065,2.128,2.3117,2.3902,2.5498,2.7176,2.8769,2.8511,2.8713,2.9887,2.8645,2.7264,2.6025,2.3531,2.1721,2.0903,1.8612,1.7173,1.6837,1.5754,1.492,1.4379,1.4833,1.5571,1.6543,1.6832,1.7406,1.823,1.7419,1.7324,1.7746,1.7166,1.7339,1.8187,2.0928,2.3571,2.6078,2.7478,2.8857,3.0329,3.2521,3.3351,3.3571,3.4645,3.4254,3.3446,3.4086,3.3463,3.2571,3.32,3.3184,3.2958,3.291,3.3485,3.3397,3.0631,3.0399,3.0119,2.751,2.7779,2.8144,2.6449,2.7141,2.7587,2.5937,2.5291,2.4655,2.361,2.278,2.1826,0.0,1.9987,1.9576,1.9161,2.13,2.3096,2.3954,2.3531,2.4472,2.7579,2.684,2.7753,3.1221,3.2079,3.2784,3.3403,3.2844,3.3061,3.416,3.4148,3.478,3.6131,3.6826,3.7773,3.8853,3.9023,3.9053,3.8996,3.9168,3.8974,3.8632,3.8802,3.9384,4.017,4.0114,4.0982,4.2248,4.2276,4.2869,4.3714,1.4327,1.4728,1.5075,1.4936,1.6236,1.7814,1.9289,2.2191,2.4521,2.5329,2.7261,2.9111,3.0624,3.0302,3.0335,3.1256,3.0371,2.9,2.7105,2.537,2.3782,2.2355,2.0461,1.914,1.8438,1.7261,1.6321,1.5627,1.6086,1.6614,1.7257,1.7697,1.8042,1.8269,1.7502,1.7216,1.7328,1.7206,1.7671,1.885,2.2512,2.5379,2.7664,2.9503,3.0456,3.1085,3.3541,3.4369,3.4507,3.5761,3.5373,3.4456,3.5102,3.4303,3.3235,3.3908,3.3956,3.3794,3.3904,3.4453,3.4395,3.2018,3.184,3.1367,2.8008,2.8196,2.8532,2.6462,2.6704,2.7104,2.6506,2.5385,2.433,2.3653,2.2404,2.1151,0.0,1.9391,1.8916,1.8812,2.032,2.1504,2.1892,2.2163,2.328,2.5535,2.5862,2.7185,3.0054,3.1133,3.1962,3.2611,3.2237,3.2432,3.3274,3.3656,3.4292,3.516,3.6082,3.7044,3.8008,3.8307,3.8466,3.8548,3.8811,3.8822,3.875,3.8685,3.9307,4.0174,3.9936,4.0769,4.2147,4.2342,4.3102,4.4065,1.4452,1.5026,1.55,1.5138,1.6645,1.8525,2.0388,2.28,2.4968,2.651,2.8144,2.9816,3.1462,3.1434,3.1489,3.1925,3.1455,2.9796,2.6603,2.61,2.4812,2.2325,2.169,2.0879,1.9876,1.8518,1.7603,1.7167,1.6973,1.7361,1.8338,1.792,1.8247,1.9144,1.7286,1.6707,1.7192,1.7598,1.824,1.9333,2.3747,2.7094,2.9572,3.1095,3.1866,3.2295,3.3859,3.4761,3.5257,3.5834,3.5661,3.5142,3.5148,3.4922,3.4731,3.4868,3.5195,3.5402,3.4903,3.4909,3.4729,3.3225,3.3016,3.2254,2.865,2.9144,2.9621,2.6817,2.6351,2.6696,2.7514,2.5765,2.3993,2.3354,2.2356,2.1106,1.9583,1.906,1.9038,1.9445,2.0022,2.0303,2.0018,2.0788,2.1772,2.2933,2.4199,2.6165,2.9052,3.0222,3.1386,3.2586,3.2564,3.2597,3.2663,3.3381,3.416,3.5124,3.5927,3.6697,3.7385,3.8348,3.8128,3.7122,3.849,3.8839,3.8413,3.8611,3.9354,4.0284,3.9679,4.0673,4.2449,4.2479,4.3372,4.461,1.5046,1.6076,1.7084,1.7376,1.7747,1.8782,2.1138,2.3362,2.5613,2.7925,3.0153,3.2047,3.3437,3.3276,3.3061,3.3103,3.2972,3.2257,3.088,2.9742,2.8409,2.685,2.4823,2.3134,2.187,2.0251,1.8946,1.7982,1.7891,1.7726,1.7514,1.7734,1.7488,1.6837,1.637,1.6304,1.6642,1.7393,1.9524,2.2641,2.5266,2.7537,2.9572,3.116,3.2319,3.3285,3.449,3.5293,3.5834,3.6293,3.6235,3.5932,3.5578,3.5025,3.4534,3.4835,3.5067,3.5332,3.5602,3.5951,3.6045,3.5172,3.4707,3.4085,3.2473,3.2676,3.2548,3.0082,2.9873,2.9508,2.7487,2.613,2.4757,2.2854,2.1008,1.9537,1.8755,1.8577,1.8782,1.9418,2.0035,2.0272,1.9887,2.0679,2.1754,2.3048,2.4188,2.581,2.8052,2.9204,3.0345,3.1557,3.1598,3.1847,3.2316,3.239,3.2945,3.402,3.4677,3.5723,3.7009,3.7105,3.7369,3.782,3.7629,3.7882,3.8435,3.851,3.8872,3.941,4.0293,4.1613,4.316,4.3647,4.4152,4.461,1.6221,1.7898,1.9537,2.0488,2.0552,2.095,2.2318,2.3876,2.574,2.807,3.0309,3.2,3.2745,3.3451,3.3771,3.3513,3.3414,3.2719,3.1266,3.076,2.9841,2.8296,2.6348,2.4704,2.3407,2.156,2.0014,1.8799,1.8332,1.7737,1.6995,1.7152,1.6751,1.5867,1.5795,1.5966,1.6414,1.8121,2.0909,2.436,2.6129,2.8281,0.0,3.1586,3.2836,3.4126,3.469,3.5392,3.6015,3.6517,3.643,3.6102,3.5893,3.5301,3.4802,3.5166,3.5394,3.5621,3.6005,3.6445,3.6691,3.6154,3.6278,3.6064,3.4153,3.4044,3.3768,3.1456,3.0258,2.9334,2.8354,2.6364,2.4101,2.1759,2.0194,1.9061,1.8391,1.8398,1.8728,1.9454,1.9891,2.0176,2.0396,2.1312,2.2121,2.263,2.3853,2.5181,2.6607,2.7948,2.9123,3.009,3.0469,3.0847,3.1186,3.1302,3.192,3.2999,3.3516,3.4493,3.5813,3.6106,3.6542,3.7002,3.7301,3.7717,3.8259,3.8717,3.9009,3.9402,4.1051,4.2414,4.3536,4.4394,4.4792,4.4905,1.7859,2.0128,2.2271,2.3524,2.3887,2.4055,2.4105,2.4815,2.5989,2.7819,2.9853,3.1172,3.118,3.2935,3.3924,3.3565,3.3335,3.2322,3.0252,3.0798,3.0294,2.818,2.717,2.5959,2.4425,2.2509,2.0821,1.9397,1.85,1.7523,1.6563,1.636,1.594,1.5379,1.5404,1.5849,1.6783,1.9425,2.23,2.5237,2.6617,2.8982,3.1724,3.2073,3.3238,3.4614,3.4769,3.531,3.6001,3.6473,3.636,3.6014,3.603,3.571,3.5329,3.5591,3.5816,3.6037,3.6133,3.6508,3.6779,3.6447,3.7359,3.7541,3.4796,3.4498,3.4223,3.2196,2.9676,2.8225,2.9459,2.6393,2.2936,2.0806,1.9934,1.9335,1.8717,1.8663,1.8998,1.9891,2.0032,0.0,2.1458,2.2259,2.255,2.2083,2.34,2.4491,2.5141,2.6697,2.7903,2.8644,2.9453,2.991,2.9999,3.047,3.1185,3.2144,3.2556,3.3319,3.4345,3.5291,3.5693,3.579,3.7102,3.7793,3.808,3.8988,3.9563,4.0023,4.1903,4.3044,4.3797,4.488,4.5241,4.5241,1.9813,2.2188,2.4043,2.397,2.4946,2.6147,2.7201,2.7545,2.8078,2.9148,3.1525,3.2984,3.2691,3.3419,3.3899,3.3822,3.3745,3.3431,3.2875,3.3259,3.2247,2.9366,2.9143,2.7598,2.44,2.2932,2.128,1.9402,1.8557,1.7387,1.5853,1.5737,1.4941,1.3656,1.4479,1.6314,1.8968,2.0868,2.3482,2.6382,2.7308,2.9003,3.1094,3.2089,3.3141,3.4227,3.5083,3.5647,3.6022,3.5803,3.6118,3.649,3.5952,3.5681,3.5623,3.5688,3.5816,3.6005,3.6037,3.6045,3.6154,3.629,3.6478,3.6613,3.6663,3.6491,3.5926,3.463,3.2753,3.0853,2.9323,2.593,2.3023,2.2011,2.0612,1.9972,2.0886,2.0221,2.0269,2.1972,2.2011,2.2303,2.3335,2.2797,2.2405,2.2425,2.324,2.4074,2.4931,2.5804,2.7038,2.8582,2.9296,2.9904,3.0469,3.0627,3.1052,3.1714,3.2327,3.3036,3.3829,3.4412,3.5238,3.6241,3.6095,3.6759,3.8044,3.8785,4.0072,4.1731,4.2554,4.3299,4.4164,4.5285,4.5604,4.5426,2.3113,2.4524,2.5567,2.5545,2.6388,2.7207,2.7668,2.8295,2.8712,2.8741,3.0337,3.1348,3.1021,3.2606,3.372,3.3797,3.3822,3.3841,3.3993,3.4075,3.2756,2.9747,2.8994,2.7666,2.5482,2.3944,2.2234,2.0323,1.8923,1.737,1.5706,1.5471,1.4801,1.3908,1.5608,1.7557,1.9721,2.2011,2.4505,2.7032,2.8109,2.9565,3.1243,3.197,3.3015,3.4184,3.4831,3.5563,3.611,3.5838,3.6023,3.6302,3.6064,3.5943,3.5975,3.607,3.6226,3.6259,3.5799,3.5888,3.5898,3.5291,3.5605,3.6161,3.6371,3.6224,3.5825,3.5095,3.3137,3.0693,2.7725,2.5725,2.4029,2.2495,2.1646,2.1237,2.1422,2.103,2.1172,2.2442,2.252,2.286,2.3906,2.35,2.32,2.3267,2.3717,2.4121,2.4517,2.5287,2.6118,2.708,2.7754,2.826,2.8639,2.8555,2.9049,3.0165,3.0808,3.1724,3.2894,3.3808,3.448,3.5028,3.5773,3.6525,3.7361,3.8947,4.0514,4.2021,4.2645,4.3521,4.4499,4.5239,4.5687,4.5823,2.6008,2.6551,2.6934,2.7181,2.762,2.7875,2.7542,2.8288,2.8726,2.8382,2.914,2.9673,2.9643,3.1729,3.3212,3.3419,3.3751,3.3989,3.4158,3.34,3.1894,2.9556,2.8333,2.7337,2.6533,2.4922,2.3232,2.1438,1.9499,1.7761,1.623,1.5753,1.5342,1.5064,1.7282,1.9045,2.0477,2.3193,2.5631,2.7791,2.8886,3.0127,3.1384,3.1896,3.2878,3.4105,3.46,3.5366,3.6196,3.6163,3.6132,3.6132,3.6226,3.6258,3.6321,3.6507,3.6662,3.663,3.5735,3.5784,3.5786,3.4439,3.4872,3.559,3.5447,3.5291,3.5059,3.4732,3.2621,2.9776,2.6277,2.5712,2.5111,2.3002,2.2618,2.2399,2.1987,2.1824,2.2023,2.2787,2.2819,2.3105,2.3906,2.4035,2.4043,2.3943,2.4155,2.433,2.4329,2.4912,2.5319,2.5502,2.6199,2.6591,2.6619,2.6673,2.7379,2.8705,2.9332,3.0436,3.1992,3.3117,3.3687,3.3913,3.5279,3.6199,3.6908,3.942,4.0981,4.1853,4.2747,4.3697,4.4668,4.5144,4.5652,4.604,2.6765,2.7575,2.813,2.7874,2.8021,2.8167,2.8143,2.81,2.8479,2.9579,3.0129,3.067,3.1295,3.1706,3.2123,3.2501,3.3712,3.4083,3.3184,3.0609,2.8999,2.8737,2.813,2.7387,2.6619,2.536,2.393,2.2283,2.0418,1.8969,1.7948,1.7062,1.6719,1.692,1.8727,2.0552,2.2384,2.4804,2.7003,2.8958,2.9463,3.0133,3.0982,3.19,3.2824,3.3695,3.4636,3.549,3.6227,3.6538,3.6538,3.6445,3.6445,3.6569,3.6662,3.6693,3.6907,3.6963,3.6065,3.5846,3.56,3.4673,3.4458,3.4545,3.4717,3.4582,3.4317,3.398,3.202,2.944,2.6343,2.5948,2.5574,2.4155,2.3211,2.2975,2.3887,2.3133,2.2883,2.3989,2.3968,2.3777,2.3564,2.4057,2.419,2.3757,2.4065,2.4431,2.4738,2.4642,2.4712,2.4957,2.5672,2.6038,2.5997,2.6871,2.7667,2.8344,2.9038,3.0106,3.1568,3.2124,3.3036,3.4223,3.402,3.5327,3.7672,4.0232,4.1468,4.1835,4.3136,4.3877,4.4379,4.5225,4.5687,4.5864,2.8362,2.8253,2.8137,2.789,2.7557,2.7382,2.758,2.7488,2.7876,2.9128,2.9569,2.9991,3.0571,3.0879,3.1255,3.1805,3.1783,3.1528,3.1006,2.9244,2.8178,2.8025,2.7947,2.7777,2.7466,2.6542,2.5211,2.355,2.1649,1.9802,1.7966,1.7655,1.7985,1.8921,2.114,2.2846,2.4204,2.6415,2.8379,2.9967,3.0179,3.0826,3.1683,3.2013,3.2883,3.4,3.4514,3.5462,3.6538,3.6785,3.6754,3.6631,3.6754,3.6847,3.6877,3.6877,3.7089,3.7016,3.577,3.5665,3.5604,3.4213,3.4092,3.4194,3.3868,3.3657,3.34,3.3093,3.1533,2.9475,2.6974,2.6185,2.5661,2.4871,2.4032,2.3624,2.4109,2.3823,2.3768,2.4292,2.381,2.3478,2.3549,2.3791,2.3681,2.3067,2.3997,2.4497,2.4219,2.4582,2.4661,2.4325,2.5144,2.5539,2.5469,2.5907,2.6727,2.7881,2.8571,2.9636,3.1033,3.1628,3.2479,3.3462,3.3882,3.5281,3.7418,3.9406,4.0673,4.1475,4.225,4.3136,4.3975,4.4683,4.5186,4.5578,2.9531,2.8742,2.81,2.7956,2.739,2.6996,2.7041,2.6922,2.7176,2.8281,2.8539,2.8999,3.0046,2.9953,3.0078,3.0865,2.988,2.9026,2.8674,2.7878,2.7315,2.7112,2.7502,2.771,2.7745,2.7,2.5889,2.4466,2.2832,2.0994,1.9029,1.919,1.9875,2.1075,2.3438,2.4862,2.5629,2.7853,2.9374,3.0308,3.0754,3.1336,3.1916,3.2074,3.2953,3.4137,3.4284,3.5326,3.6686,3.6837,3.6963,3.7028,3.7059,3.709,3.7121,3.7121,3.7359,3.7279,3.5657,3.5669,3.5781,3.3994,3.3864,3.399,3.3395,3.2982,3.2614,3.2119,3.1063,2.9637,2.7723,2.6744,2.6009,2.5345,2.4777,2.4361,2.4238,2.4275,2.4253,2.4137,2.3649,2.3225,2.3024,2.3198,2.3138,2.2722,2.3869,2.4385,2.3919,2.4398,2.4471,2.3957,2.4841,2.5149,2.4884,2.5173,2.6115,2.7679,2.8113,2.9246,3.0912,3.1427,3.1994,3.2706,3.3881,3.5302,3.6954,3.8899,4.0227,4.1182,4.1818,4.2635,4.3524,4.43,4.4839,4.5301,3.0051,2.9103,2.8196,2.8267,2.7902,2.7382,2.6814,2.6469,2.6521,2.7156,2.7113,2.7945,3.0333,2.9145,2.8509,2.9559,2.8336,2.7227,2.6482,2.6194,2.5974,2.5923,2.6622,2.7049,2.7125,2.6308,2.5541,2.4771,2.3788,2.279,2.1868,2.2111,2.2628,2.3352,2.5438,2.6377,2.6535,2.895,2.9883,2.979,3.0998,3.1373,3.1301,3.2081,3.3008,3.388,3.3907,3.5065,3.6575,3.6578,3.7199,3.7799,3.7328,3.7298,3.7387,3.7387,3.7772,3.7773,3.5915,3.5969,3.6118,3.4175,3.3746,3.372,3.3463,3.273,3.1867,3.1079,3.0599,2.986,2.8471,2.7671,2.6849,2.5527,2.5348,2.5169,2.4591,2.4551,2.4346,2.3599,2.367,2.3222,2.1788,2.2207,2.2674,2.2899,2.36,2.4049,2.4087,2.4043,2.4048,2.4115,2.4881,2.4919,2.4119,2.4977,2.6249,2.7884,2.7764,2.8989,3.1394,3.1485,3.1702,3.2098,3.3776,3.5223,3.6623,3.9232,4.0587,4.111,4.225,4.2726,4.2969,4.4237,4.4807,4.5094,2.9562,2.9088,2.8546,2.7944,2.7347,2.6841,2.6365,2.6189,2.6267,2.6797,2.6769,2.7269,2.8689,2.8014,2.7793,2.8509,2.713,2.6273,2.6466,2.6075,2.5748,2.5437,2.5825,2.5956,2.5733,2.5519,2.5107,2.4464,2.4131,2.361,2.2952,2.3569,2.4319,2.5218,2.7026,2.8037,2.8504,2.9462,3.0066,3.0416,3.0546,3.1155,3.193,3.1991,3.2958,3.4383,3.4885,3.578,3.6866,3.7689,3.8153,3.8371,3.8427,3.8173,3.7915,3.8062,3.8205,3.8125,3.71,3.6728,3.6319,3.5143,3.4325,3.3611,3.2807,3.2159,3.134,3.0196,3.0162,2.9899,2.8463,2.7681,2.7127,2.6774,2.586,2.5163,2.5124,2.4725,2.4489,2.4594,2.3638,2.3106,2.3428,2.3086,2.2676,2.221,2.2863,2.3579,2.4145,2.4664,2.4699,2.4173,2.5022,0.0,2.5059,2.5383,2.6414,2.8112,2.7988,2.8802,3.0426,3.018,3.0519,3.137,3.2516,3.4305,3.6519,3.8094,3.9738,4.1271,4.123,4.1716,4.2526,4.346,4.4031,4.4455,2.9383,2.8981,2.845,2.7725,2.7152,2.6575,2.6015,2.588,2.5929,2.6126,2.6263,2.6634,2.7411,2.7078,2.706,2.7706,2.6326,2.5592,2.5941,2.5575,2.5196,2.4837,2.5124,2.5213,2.4999,2.5092,2.486,2.4273,2.4476,2.4699,2.4911,2.5408,2.6138,2.7018,2.8222,2.8829,2.8972,2.958,2.9777,2.9747,3.008,3.081,3.1785,3.1986,3.3008,3.4462,3.5187,3.6055,3.6983,3.803,3.8592,3.8931,3.9202,3.8952,3.8623,3.8628,3.8628,3.8465,3.7769,3.7229,3.6686,3.5835,3.4802,3.3728,3.2651,3.1779,3.0985,3.03,3.0062,2.9724,2.8862,2.8151,2.7668,2.7429,2.6388,2.5549,2.5481,2.4954,2.4572,2.4629,2.3774,2.3361,2.3796,2.3361,2.2945,2.2787,2.3242,2.3877,2.4729,2.4618,2.4571,2.4746,2.5307,2.56,2.5585,2.563,2.634,2.7714,2.7922,2.8599,2.9652,2.9266,2.9871,3.1223,3.2097,3.388,3.6316,3.7602,3.9126,4.0628,4.0733,4.1183,4.195,4.2905,4.3619,4.4209,2.9484,2.8836,2.8137,2.7685,2.7199,2.6602,2.5826,2.5648,2.5501,2.5262,2.563,2.6122,2.6595,2.6306,2.6367,2.7021,2.5928,2.5191,2.5089,2.4804,2.4483,2.4176,2.4542,2.4728,2.467,2.4857,2.4711,2.422,2.4835,2.5914,2.7395,2.7465,2.7908,2.8654,2.8999,2.8854,2.834,2.929,2.9079,2.821,2.958,3.0397,3.0948,3.2019,3.313,3.4223,3.5026,3.6025,3.7048,3.7859,3.8692,3.9388,3.9677,3.9651,3.9494,3.9175,3.9034,3.8902,3.8097,3.7676,3.7209,3.6404,3.5258,3.4044,3.2827,3.1567,3.0733,3.1158,3.0209,2.9333,2.9418,2.895,2.8346,2.7514,2.6858,2.6234,2.5671,2.518,2.4683,2.4163,2.4254,2.4119,2.3521,2.335,2.3628,2.4513,2.4521,2.4834,2.5644,2.4084,2.3916,2.5552,2.5566,2.5535,2.5531,2.5571,2.6033,2.6915,2.7729,2.8461,2.9115,2.8769,2.9662,3.1527,3.2321,3.3861,3.6025,3.759,3.8665,3.9447,4.057,4.109,4.135,4.246,4.346,4.4249,2.891,2.8833,2.8535,2.7953,2.7144,2.6424,2.5991,2.5711,2.5516,2.5492,2.598,2.6348,2.6327,2.6198,2.6104,2.6074,2.5628,2.5224,2.4885,2.4805,2.4477,2.3852,2.3906,2.3821,2.351,2.343,2.3775,2.4493,2.517,2.6064,2.7272,2.814,2.8709,2.897,2.8873,2.8875,2.8969,2.88,2.8475,2.8181,2.891,2.9991,3.116,3.1522,3.2796,3.4587,3.5989,3.6777,3.7444,3.9076,3.9826,4.0087,4.0263,4.0288,4.0188,3.9807,3.9644,3.9603,3.9674,3.8738,3.7729,3.7819,3.5864,3.361,3.2333,3.1443,3.0785,3.0568,2.9864,2.9183,2.8735,2.8603,2.8296,2.7514,2.6879,2.6266,2.568,2.5778,2.5897,2.6021,2.6073,2.6344,2.7001,2.5851,2.5465,2.6317,2.5777,2.5467,2.57,2.5293,2.4964,2.4732,2.4684,2.4383,2.3703,2.4368,2.546,2.6901,2.7779,2.8529,2.9145,2.8847,2.97,3.1538,3.183,3.3448,3.5955,3.6534,3.792,3.9581,3.9417,4.0134,4.1337,4.1847,4.288,4.4145,2.8787,2.8897,2.8677,2.8021,2.717,2.6454,2.6069,2.5743,2.5397,2.5111,2.5535,2.5716,2.5367,2.5402,2.5429,2.534,2.5361,2.5205,2.4733,2.4706,2.4458,2.3912,2.3857,2.3753,2.3465,2.3382,2.3737,2.4449,2.5186,2.6186,2.7371,2.7931,2.847,2.8993,2.8707,2.8452,2.8283,2.8333,2.8084,2.7735,2.8328,2.9379,3.0644,3.1253,3.2563,3.4355,3.6282,3.7195,3.7751,3.958,4.0313,4.0476,4.0741,4.0571,4.0317,4.059,4.05,4.0319,4.0621,3.9881,3.8893,3.8478,3.6342,3.4171,3.3529,3.2298,3.1267,3.1213,3.0313,2.9413,2.9228,2.8527,2.7936,2.7654,2.7064,2.66,2.6384,2.6708,2.7036,2.7281,2.7364,2.7647,2.8258,2.7413,2.7066,2.7569,2.7146,2.6874,2.6874,2.6514,2.5881,2.5023,2.4625,2.4164,2.3709,2.3789,2.4452,2.5741,2.6209,2.7228,2.8709,2.8399,2.9505,3.1693,3.1806,3.3251,3.5631,3.6217,3.7335,3.8789,3.9037,3.9833,4.095,4.1395,4.2681,4.4317,2.8626,2.8861,2.8662,2.7966,2.7259,2.6642,2.6127,2.5724,2.5255,2.4621,2.4847,2.4904,2.437,2.4514,2.4709,2.481,2.5067,2.5066,2.4618,2.4563,2.4419,2.4125,2.4096,2.4037,2.3891,2.3861,2.3953,2.4189,2.5004,2.6042,2.7272,2.7296,2.7839,2.8821,2.8426,2.7881,2.7281,2.7847,2.7705,2.7203,2.789,2.883,2.997,3.1198,3.2479,3.3947,3.6299,3.7351,3.7884,3.9608,4.0353,4.0629,4.1012,4.0672,4.0298,4.124,4.1111,4.0793,4.1208,4.0858,4.0017,3.8585,3.6754,3.531,3.5235,3.3534,3.208,3.2413,3.1143,2.9982,3.0088,2.8773,2.7691,2.7743,2.7242,2.6932,2.7169,2.7662,2.8096,2.8207,2.8448,2.8594,2.8685,2.85,2.8467,2.8662,2.8551,2.8515,2.8515,2.7689,2.6788,2.5935,2.4795,2.4135,2.4023,2.3266,2.3329,2.4188,2.4292,2.5578,2.7885,2.7864,2.932,3.1904,3.1992,3.3224,3.5225,3.5961,3.6755,3.7668,3.8814,3.9749,4.0464,4.122,4.2792,4.4555,2.7625,2.8276,2.8574,2.7773,2.7504,2.7088,2.6271,2.5735,2.5249,2.4822,2.4915,2.4876,2.4516,2.4444,2.4458,2.4474,2.4491,2.4527,2.4591,2.445,2.4276,2.4125,2.4096,2.4037,2.3891,2.3624,2.3539,2.3717,2.4618,2.5442,2.6169,2.7043,2.7849,2.8455,2.7908,2.7563,2.7419,2.7086,2.6925,2.6993,2.761,2.8774,3.0259,3.1334,3.2621,3.4111,3.6543,3.733,3.7456,3.9203,4.0054,4.0478,4.0643,4.0729,4.0825,4.1034,4.0709,4.0515,4.1506,4.104,3.9854,3.8277,3.7316,3.6592,3.5919,3.4446,3.3255,3.3354,3.2158,3.0844,3.0235,2.946,2.8519,2.726,2.7164,2.7095,2.6677,2.8039,2.9123,2.9245,2.9922,3.0399,3.0401,2.9759,2.9619,3.0372,2.9797,2.9412,2.9414,2.8554,2.7694,2.6835,2.4527,2.2968,2.2214,2.207,2.2449,2.3319,2.4044,2.5312,2.7051,2.8082,2.9755,3.1904,3.2028,3.3214,3.5013,3.4751,3.5743,3.7482,3.8036,3.9101,4.053,4.1634,4.3217,4.4885,2.7137,2.7614,2.7902,2.7834,2.7228,2.678,2.6694,2.6063,2.5402,2.4807,2.4858,2.4699,2.4084,2.405,2.4137,2.4227,2.42,2.4245,2.4303,2.4305,2.4247,2.4125,2.4037,2.3891,2.3654,2.3505,2.3633,2.4064,2.4461,2.5288,2.6587,2.6549,2.7117,2.8129,2.7598,2.7182,2.6909,2.6794,2.6772,2.6872,2.7248,2.822,2.9651,3.1134,3.2313,3.356,3.6118,3.7102,3.7485,3.8822,3.9629,4.0152,4.0233,4.0165,4.0144,4.0633,4.0581,4.0599,4.1638,4.1017,3.9991,3.963,3.8523,3.7425,3.7043,3.6104,3.5175,3.477,3.3747,3.2538,3.1381,3.0176,2.9045,2.8072,2.8135,2.8227,2.8049,2.9622,3.0816,3.0894,3.1621,3.1971,3.1559,3.1103,3.0812,3.0799,3.046,3.0271,3.0312,2.9453,2.8554,2.7656,2.4687,2.2459,2.1101,2.1062,2.1517,2.2399,2.3235,2.4762,2.6832,2.8139,2.9892,3.1944,3.2078,3.2993,3.4443,3.4405,3.5203,3.6492,3.7638,3.8971,4.0321,4.1375,4.3232,4.5277,2.6241,2.6767,2.7137,2.7595,2.6963,2.6549,2.6962,2.6385,2.5529,2.4662,2.4662,2.4419,2.3651,2.3573,2.3713,2.3959,2.3923,2.3835,2.3806,2.3956,2.4015,2.4067,2.3891,2.3654,2.3416,2.339,2.3683,2.4299,2.4282,2.5137,2.6707,2.6106,2.6515,2.773,2.744,2.7089,2.6688,2.6885,2.7013,2.7037,2.7128,2.7888,2.9147,3.0911,3.2094,3.3073,3.5652,3.6854,3.7357,3.8326,3.9115,3.9723,3.9782,3.9626,3.9511,4.0214,4.025,4.0323,4.1377,4.0996,4.0378,4.0698,3.9505,3.8234,3.8234,3.7704,3.7018,3.6368,3.5457,3.4319,3.2982,3.1214,2.9758,2.9227,0.0,2.9175,2.931,3.0915,3.2082,3.2099,3.281,3.2999,3.2166,3.2024,3.1699,3.0875,3.0811,3.0819,3.0859,2.9997,2.8899,2.7603,2.4638,2.2326,2.0797,2.051,2.0733,2.1474,2.2501,2.4208,2.652,2.8202,3.0022,3.1914,3.2208,3.2927,3.3929,3.4355,3.4863,3.5625,3.7533,3.8938,4.0112,4.1272,4.3337,4.5693,2.4357,2.5485,2.6427,2.6654,2.6903,2.6947,2.6753,2.6369,2.5631,2.4313,2.4149,2.3984,2.3486,2.3147,2.3126,2.3607,2.3335,2.312,2.3,2.312,2.342,2.3891,2.3624,2.3445,2.339,2.339,2.3475,2.365,2.4099,2.4649,2.5353,2.5962,2.6604,2.7266,2.7619,2.766,2.7525,2.7525,2.76,2.773,2.7755,2.8271,2.9264,3.0959,3.2131,3.3228,3.5698,3.6625,3.6803,3.7672,3.8463,3.9103,3.9211,3.9404,3.9604,3.9743,3.9376,3.9212,4.0593,4.1042,4.0946,4.0399,3.9705,3.9223,3.9288,3.8825,3.8362,3.8229,3.7062,3.5771,3.4794,3.2771,3.0998,3.0235,0.0,0.0,2.9389,3.0892,3.1993,3.199,3.2753,3.2976,3.2081,3.2057,3.1746,3.087,3.081,3.0781,3.0812,2.9987,2.8325,2.5795,2.3961,2.2555,2.1605,2.0723,2.0374,2.0519,2.2213,2.3897,2.5595,2.8427,3.0414,3.1682,3.2601,3.3259,3.3653,3.4263,3.4801,3.5435,3.7578,3.8986,4.0016,4.1894,4.3949,4.5949,2.2493,2.3575,2.4597,2.5409,2.5681,2.5794,2.5786,2.5792,2.5358,2.4058,2.4081,2.4088,2.385,2.3462,2.3389,2.3875,2.3395,2.306,2.2909,2.2939,2.312,2.339,2.339,2.339,2.339,2.339,2.3778,2.4592,2.4606,2.4991,2.5688,2.5806,2.6003,2.6247,2.6879,2.6971,2.6626,2.7122,2.7376,2.7455,2.7622,2.8272,2.9232,3.0558,3.1772,3.2984,3.4634,3.5826,3.6684,3.7166,3.782,3.8469,3.8504,3.874,3.9051,3.9191,3.9453,3.9719,3.9771,3.9852,4.0043,4.0384,3.9988,3.9575,3.9728,3.9613,3.9388,3.8947,3.8355,3.7385,3.5553,3.4511,3.3536,3.221,0.0,3.0983,3.1012,3.2046,3.2791,3.2813,3.4043,3.4367,3.2924,3.2859,3.2316,3.0894,3.0781,3.0818,3.0795,2.9392,2.784,2.6231,2.4498,2.3188,2.2378,2.1508,2.1097,2.1177,2.2403,2.3821,2.5516,2.8455,3.0544,3.1843,3.2702,3.314,3.3221,3.4088,3.458,3.5005,3.7283,3.8986,4.0409,4.221,4.416,4.6203,2.0675,2.1732,2.2884,2.424,2.434,2.4504,2.5334,2.543,2.5123,2.4339,2.4334,2.4347,2.4123,2.3684,2.3531,2.3846,2.3305,2.2878,2.2604,2.2543,2.2696,2.303,2.3271,2.339,2.339,2.3599,2.4075,2.4912,2.482,2.5081,2.5705,2.5552,2.5551,2.5708,2.6401,2.6626,2.6505,2.7103,2.7441,2.7609,2.7837,2.8396,2.9224,3.033,3.1589,3.2862,3.3792,3.5193,3.6661,3.6689,3.7309,3.8101,3.8101,3.8417,3.8795,3.8921,3.942,3.9881,3.9418,3.9309,3.9447,4.0074,3.9977,3.9785,3.9965,4.0118,4.0109,3.9643,3.9346,3.8584,3.6685,3.5935,3.5095,3.3742,3.2893,3.2428,3.24,3.3174,3.3696,3.3715,3.5018,3.5205,3.3487,3.337,3.269,3.0937,3.0775,3.064,3.0353,2.8829,2.7546,2.6577,2.5045,2.3984,2.3439,2.2317,2.1829,2.1929,2.2907,2.4205,2.5886,2.8607,3.0592,3.1896,3.2826,3.3101,3.2909,3.3811,3.4275,3.4688,3.696,3.8877,4.056,4.2429,4.4336,4.6329,1.879,2.0063,2.1448,2.3151,2.2978,2.3353,2.562,2.5396,2.5031,2.5164,2.5059,2.4741,2.415,2.3657,2.3389,2.3399,2.2994,2.2451,2.1925,2.1776,2.2056,2.2848,2.321,2.339,2.339,2.3985,2.4279,2.4279,2.4559,2.482,2.5079,2.5155,2.5437,2.5909,2.6327,2.6854,2.7504,2.7665,2.7977,2.8436,2.8645,2.885,2.9247,3.0445,3.1747,3.2937,3.3355,3.4912,3.6711,3.6171,3.6934,3.8101,3.8101,3.846,3.8921,3.9078,3.9161,3.9283,3.9602,3.9588,3.9489,3.9414,3.9647,3.9895,3.9986,4.0251,4.0477,4.0516,3.9984,3.923,3.8373,3.6831,3.5432,3.4575,3.3805,3.3293,3.3293,3.4046,3.4583,3.4583,3.5353,3.5223,3.3543,3.3398,3.2651,3.0927,3.0744,3.0297,2.9326,2.8418,2.7444,2.6427,2.5463,2.4915,2.4798,2.3227,2.2483,2.2607,2.3624,2.4996,2.6696,2.8955,3.0632,3.1758,3.3062,3.3283,3.2773,3.3437,3.3951,3.4507,3.6728,3.8654,4.0451,4.2618,4.451,4.6296,1.6337,1.7818,1.9278,2.0349,2.1194,2.2007,2.2906,2.3418,2.358,2.3098,2.3285,2.342,2.3272,2.293,2.2818,2.316,2.2757,2.2266,2.1792,2.18,2.1956,2.2173,2.2635,2.2825,2.2631,2.316,2.3489,2.3528,2.4003,2.4233,2.4341,2.4546,2.4657,2.4698,2.5984,2.6718,2.7034,2.8206,2.8832,2.9068,2.9321,2.947,2.9649,3.0185,3.1057,3.2052,3.2474,3.3979,3.5764,3.5939,3.688,3.7984,3.8254,3.86,3.8979,3.9021,3.9202,3.9438,3.9539,3.9588,3.9662,3.9658,3.938,3.9257,4.0043,3.9904,3.9791,4.0565,4.0543,4.0156,3.9417,3.835,3.7325,3.6456,3.5115,3.4199,3.4224,3.4423,3.4603,3.4603,3.4835,3.4531,3.3436,3.2797,3.1943,3.0764,3.0616,2.9859,2.824,2.7912,2.698,2.5332,2.491,2.4678,2.4596,2.3726,2.3366,2.3449,2.3948,2.5006,2.6696,2.8995,3.108,3.2883,3.4015,3.4331,3.4063,3.4338,3.4552,3.4884,3.6749,3.8413,4.0148,4.3178,4.4754,4.5848,1.4348,1.5697,1.7059,1.8291,1.9112,2.0049,2.1282,2.184,2.2178,2.2359,2.2531,2.2742,2.2869,2.2631,2.2605,2.2889,2.2543,2.2101,2.1578,2.1737,2.1674,2.1454,2.1891,2.2258,2.238,2.2892,2.3205,2.3356,2.3725,2.4004,2.4164,2.4104,2.4152,2.4327,2.5693,2.652,2.6889,2.8243,2.8989,2.9312,2.9592,2.9748,2.9837,3.0151,3.0846,3.1656,3.2198,3.3616,3.5332,3.5852,3.6881,3.8036,3.8401,3.8728,3.8993,3.8993,3.9225,3.9464,3.9552,3.9613,3.9672,3.9811,3.9537,3.9347,3.9721,3.9808,3.9991,4.0614,4.0793,4.0607,3.9838,3.9263,3.8502,3.7332,3.6306,3.5507,3.5171,3.5098,3.5114,3.5114,3.48,3.423,3.3399,3.2504,3.154,3.0565,3.0428,2.9571,2.767,2.7541,2.6664,2.4768,2.4615,2.4543,2.4547,2.461,2.4518,2.4243,2.4857,2.5857,2.7247,2.9625,3.1684,3.3466,3.4649,3.4986,3.4724,3.4758,3.4866,3.5208,3.6651,3.8221,3.9971,4.3218,4.4756,4.5671,1.286,1.3783,1.4959,1.6731,1.6992,1.7829,2.0348,2.0509,2.0864,2.2366,2.2421,2.2396,2.2567,2.2482,2.2451,2.2531,2.2279,2.1878,2.1314,2.15,2.1385,2.074,2.1099,2.1619,2.2318,2.2802,2.317,2.345,2.3538,2.3845,2.4327,2.3835,2.3952,2.4534,2.5561,2.6388,2.7116,2.8094,2.8872,2.938,2.9659,2.9804,2.9924,3.03,3.0919,3.1674,3.2346,3.3682,3.5238,3.5998,3.7059,3.8168,3.8564,3.884,3.8993,3.8993,3.9198,3.9412,3.9539,3.9587,3.9647,3.9754,3.9962,3.9919,3.9346,3.9844,4.05,4.0661,4.0793,4.0684,3.9953,3.9766,3.9197,3.7567,3.7253,3.6884,3.6028,3.5898,3.5883,3.5882,3.5042,3.4156,3.3329,3.2346,3.1352,3.0346,3.0209,2.9348,2.7464,2.7319,2.6424,2.4621,2.4593,2.4622,2.4717,2.574,2.5808,2.5057,2.6176,2.7205,2.8189,3.0567,3.2314,3.3611,3.5102,3.5441,3.4948,3.4834,3.5033,3.5431,3.6567,3.8035,3.9904,4.2911,4.4483,4.563,1.1865,1.2857,1.3937,1.4882,1.5941,1.7153,1.8607,1.9294,1.9935,2.0687,2.0912,2.1014,2.1078,2.1067,2.1101,2.1276,2.1458,2.1464,2.1164,2.1199,2.1192,2.1043,2.0758,2.0742,2.1018,2.1482,2.1872,2.218,2.2564,2.3101,2.3775,2.3872,2.4151,2.4636,2.6157,2.7,2.7433,2.8984,2.9783,3.0,3.0184,3.0384,3.0654,3.077,3.1012,3.1435,3.2466,3.3529,3.4697,3.6643,3.7719,3.8271,3.8417,3.8713,3.8993,3.8993,3.912,3.9296,3.9477,3.9563,3.9508,3.913,3.9564,4.01,4.0036,3.9338,3.9065,4.0483,4.0787,4.0796,4.0727,4.0159,3.937,3.8393,3.7632,3.6906,3.6015,3.5916,3.5873,3.5752,3.4975,3.4032,3.3091,3.1515,3.0407,3.0037,2.9962,2.9117,2.7206,2.7033,2.6179,2.4412,2.5075,2.5502,2.5632,2.6652,2.6803,2.6106,2.7164,2.8168,2.9088,3.0902,3.2448,3.3751,3.5754,3.6087,3.5222,3.5483,3.5539,3.5636,3.6677,3.7901,3.943,4.2781,4.4279,4.5226,1.1354,1.2089,1.297,1.3893,1.4964,1.6048,1.7185,1.7824,1.8488,1.9298,1.9601,1.9885,2.0313,2.0375,2.0387,2.0456,2.0851,2.0957,2.0601,2.0758,2.0782,2.0577,2.0034,1.977,1.9938,2.0246,2.0716,2.1379,2.1971,2.2549,2.3088,2.3725,2.4193,2.4626,2.6335,2.7222,2.7517,2.9264,3.0098,3.0227,3.0459,3.0688,3.0912,3.1012,3.1388,3.1992,3.3063,3.4438,3.5922,3.7218,3.7698,3.7895,3.848,3.8604,3.8599,3.9077,3.9245,3.9376,3.9563,3.9623,3.958,3.9374,3.9381,3.9519,3.9682,3.9485,3.9539,4.0525,4.0771,4.0829,4.0984,4.0301,3.9438,3.8689,3.7771,3.6872,3.5985,3.5794,3.5702,3.5631,3.4858,3.3765,3.2385,3.1353,3.0517,2.9888,2.9792,2.9088,2.7559,2.7446,2.6888,2.567,2.6076,2.6443,2.6719,2.7701,2.8066,2.7808,2.8348,2.8852,2.9386,3.1428,3.2833,3.3769,3.5677,3.6091,3.5415,3.5556,3.5688,3.5944,3.6916,3.8042,3.9481,4.2521,4.4795,4.6729,1.1235,1.1723,1.2358,1.3426,1.4205,1.5045,1.613,1.6539,1.7118,1.8199,1.8453,1.8837,1.9521,1.9736,1.9844,1.9889,2.0342,2.0443,1.9982,2.0282,2.0302,1.9982,1.9352,1.9051,1.9156,1.9219,1.9787,2.0882,2.1712,2.2285,2.2697,2.3583,2.4172,2.4524,2.6293,2.7222,2.7496,2.9286,3.0141,3.029,3.0605,3.0851,3.1012,3.119,3.1701,3.2559,3.3731,3.554,3.7412,3.7524,3.7436,3.7415,3.8243,3.8312,3.8214,3.8964,3.9464,3.9727,3.9708,3.9818,3.9917,3.9916,3.9454,3.9052,3.9235,3.9775,4.0354,4.063,4.0736,4.0829,4.097,4.0295,3.9468,3.8702,3.781,3.684,3.573,3.5586,3.5504,3.5265,3.4563,3.3566,3.206,3.156,3.0958,3.0054,2.9711,2.91,2.8069,2.8025,2.7726,2.7134,2.7252,2.7471,2.7853,2.8791,2.9386,2.9549,2.9558,2.953,2.9589,3.193,3.3147,3.3504,3.5305,3.5813,3.5343,3.5516,3.5813,3.6221,3.7306,3.8367,3.9624,4.2504,4.5581,4.8523,1.1827,1.2251,1.274,1.3246,1.4104,1.501,1.5841,1.6283,1.6791,1.7544,1.7617,1.7586,1.7672,1.823,1.8862,1.9347,1.973,1.992,1.9848,1.9892,1.9892,1.9848,1.9299,1.9008,1.9032,1.8705,1.9306,2.09,2.1931,2.2759,2.336,2.3794,2.413,2.4421,2.6272,2.719,2.7455,2.935,3.0258,3.0468,3.077,3.1092,3.1404,3.1443,3.1644,3.2126,3.3771,3.569,3.7378,3.7123,3.7207,3.7404,3.7017,3.7516,3.8302,3.8426,3.9464,4.0491,3.9859,4.0259,4.066,4.0056,3.991,3.9946,4.0024,3.9674,3.9546,4.0501,4.0706,4.0782,4.0967,4.031,3.9451,3.8709,3.7802,3.6618,3.4892,3.517,3.5175,3.4243,3.395,3.3786,3.3576,3.2112,3.1022,3.0678,2.9837,2.893,2.8065,2.8046,2.7802,2.7219,2.8078,2.8689,2.8895,2.9897,3.0457,3.0615,3.0542,3.0496,3.0494,3.2149,3.2814,3.2767,3.502,3.5475,3.4749,3.5937,3.6353,3.6347,3.8057,3.8922,3.9629,4.3203,4.6225,4.8802,1.2314,1.2656,1.3057,1.3658,1.4281,1.4935,1.5654,1.5952,1.6409,1.7183,1.7261,1.7294,1.7435,1.7798,1.8302,1.901,1.8872,1.8936,1.9384,1.923,1.92,1.9336,1.8682,1.8459,1.87,1.839,1.8648,1.9559,2.0762,2.1793,2.2665,2.3396,2.3897,2.4265,2.6166,2.7094,2.7434,2.9456,3.0375,3.0501,3.0912,3.1249,3.1519,3.1688,3.2152,3.2982,3.4813,3.6149,3.7057,3.6985,3.6638,3.6279,3.6645,3.6928,3.7268,3.8283,3.9142,3.9813,3.9931,4.0245,4.0494,4.0196,4.0177,4.0251,4.0397,4.0154,4.0068,4.0591,4.0724,4.0819,4.0955,3.9906,3.8926,3.8591,3.7304,3.5898,3.4572,3.4943,3.5132,3.453,3.4495,3.4343,3.3904,3.2708,3.1665,3.096,3.0077,2.9382,2.8912,2.8998,2.8995,2.8821,2.9379,2.9792,2.9984,3.0447,3.0699,3.0812,3.0698,3.0893,3.1379,3.2416,3.3024,3.3353,3.4859,3.5121,3.4652,3.5734,3.6272,3.6544,3.8372,4.0115,4.1824,4.3562,4.5781,4.8243]}]]